GEFSMA_prec_meanprecacc_114.txt.gz
Total_Precipitation_Accumulation
0.77 0.70 0.58 0.60 0.55 0.57 0.63 0.66 0.67 0.66 0.66 0.60 0.57 0.54 0.51 0.48 0.46 0.44 0.57 0.75 1.05 1.15 0.92 0.72 0.56 0.48 0.50 0.49 0.48 0.52 0.58 0.61 0.66 0.67 0.66 0.62 0.65 0.56 0.42 0.33 0.33 0.33 0.34
0.71 0.73 0.68 0.69 0.69 0.66 0.66 0.65 0.62 0.71 0.73 0.66 0.59 0.55 0.51 0.43 0.42 0.49 0.60 0.74 0.79 0.92 1.09 1.01 0.83 0.69 0.59 0.52 0.48 0.46 0.49 0.53 0.57 0.60 0.66 0.61 0.57 0.49 0.41 0.33 0.36 0.34 0.32
0.67 0.73 0.76 0.76 0.76 0.77 0.77 0.77 0.75 0.79 0.75 0.71 0.67 0.56 0.47 0.40 0.39 0.47 0.51 0.61 0.53 0.47 0.69 0.93 0.98 0.88 0.79 0.69 0.58 0.45 0.40 0.43 0.48 0.52 0.61 0.61 0.51 0.43 0.36 0.36 0.37 0.37 0.32
0.70 0.79 0.80 0.82 0.88 0.80 0.78 0.83 0.88 0.90 0.86 0.82 0.79 0.65 0.47 0.45 0.43 0.45 0.50 0.52 0.51 0.38 0.41 0.48 0.56 0.67 0.83 0.88 0.76 0.53 0.41 0.36 0.40 0.47 0.58 0.54 0.43 0.40 0.39 0.39 0.36 0.37 0.36
0.88 0.95 0.98 1.00 1.02 1.03 0.95 0.84 0.87 0.93 0.98 0.95 0.83 0.73 0.58 0.53 0.53 0.50 0.58 0.56 0.52 0.42 0.44 0.36 0.32 0.34 0.45 0.62 0.70 0.65 0.54 0.39 0.35 0.40 0.47 0.45 0.39 0.35 0.34 0.33 0.30 0.29 0.31
1.15 1.25 1.22 1.18 1.23 1.30 1.30 1.09 1.12 1.07 1.00 1.02 0.90 0.82 0.75 0.67 0.66 0.63 0.62 0.63 0.65 0.53 0.49 0.42 0.34 0.23 0.25 0.38 0.53 0.60 0.59 0.45 0.36 0.35 0.37 0.37 0.34 0.33 0.29 0.25 0.25 0.26 0.27
1.48 1.64 1.59 1.57 1.56 1.52 1.48 1.41 1.51 1.45 1.20 1.09 1.19 1.13 0.99 0.80 0.74 0.68 0.62 0.65 0.73 0.72 0.66 0.57 0.48 0.35 0.25 0.24 0.29 0.40 0.52 0.53 0.49 0.45 0.40 0.42 0.36 0.29 0.30 0.30 0.27 0.27 0.29
1.71 1.75 1.93 2.03 1.99 2.06 2.03 1.83 1.93 1.93 1.61 1.37 1.50 1.70 1.42 1.21 0.82 0.69 0.69 0.65 0.70 0.79 0.85 0.72 0.58 0.48 0.41 0.38 0.24 0.26 0.35 0.50 0.61 0.58 0.52 0.50 0.43 0.30 0.27 0.28 0.30 0.29 0.29
1.87 1.89 1.99 2.15 2.16 2.22 2.28 2.33 2.26 2.31 2.09 1.73 1.61 1.79 1.60 1.45 1.23 0.82 0.73 0.76 0.80 0.87 0.90 0.90 0.78 0.62 0.57 0.55 0.40 0.26 0.23 0.28 0.49 0.57 0.56 0.51 0.44 0.34 0.29 0.27 0.30 0.31 0.29
2.06 2.13 2.14 2.24 2.26 2.27 2.34 2.43 2.38 2.47 2.49 2.12 1.86 1.63 1.43 1.37 1.40 1.17 0.91 0.80 0.84 0.89 0.95 0.96 0.89 0.79 0.72 0.70 0.60 0.44 0.28 0.23 0.32 0.51 0.59 0.57 0.47 0.39 0.34 0.32 0.30 0.31 0.35
2.17 2.19 2.25 2.40 2.38 2.34 2.32 2.51 2.55 2.61 2.53 2.44 2.28 2.09 1.93 1.63 1.26 1.29 1.25 1.05 0.89 0.78 0.85 0.96 0.99 0.95 0.87 0.81 0.81 0.65 0.44 0.28 0.27 0.46 0.58 0.67 0.61 0.52 0.45 0.43 0.39 0.38 0.36
2.19 2.09 2.01 2.14 2.19 2.22 2.22 2.38 2.52 2.62 2.58 2.62 2.51 2.22 2.12 1.95 1.57 1.48 1.33 1.20 1.12 0.91 0.84 0.85 0.88 0.89 0.91 0.88 0.83 0.84 0.63 0.41 0.28 0.34 0.49 0.57 0.63 0.63 0.58 0.58 0.57 0.51 0.46
2.02 2.04 1.94 1.93 1.96 1.91 1.94 2.05 2.09 2.16 2.29 2.43 2.33 2.12 2.06 1.88 1.83 1.79 1.65 1.42 1.21 0.97 0.92 0.85 0.80 0.83 0.83 0.83 0.89 0.95 0.69 0.46 0.30 0.26 0.32 0.39 0.48 0.55 0.56 0.60 0.65 0.66 0.65
1.71 1.79 1.79 1.73 1.77 1.82 1.83 1.89 1.89 1.89 1.91 1.97 1.97 2.02 2.06 1.92 1.82 1.72 1.68 1.79 1.56 1.29 1.09 0.94 0.89 0.86 0.83 0.83 0.95 0.96 0.69 0.59 0.41 0.30 0.26 0.29 0.34 0.40 0.49 0.54 0.62 0.70 0.72
1.27 1.33 1.43 1.50 1.59 1.64 1.70 1.82 1.86 1.85 1.80 1.77 1.87 1.93 1.86 1.83 1.80 1.67 1.60 1.66 1.71 1.55 1.40 1.18 1.05 0.93 0.94 0.94 1.04 0.82 0.69 0.66 0.53 0.42 0.36 0.31 0.32 0.33 0.35 0.40 0.47 0.53 0.58
0.94 0.99 1.11 1.27 1.48 1.60 1.64 1.70 1.73 1.80 1.82 1.77 1.85 1.94 1.95 1.96 1.98 1.89 1.73 1.67 1.60 1.57 1.49 1.26 1.06 0.93 1.04 1.00 1.08 0.87 0.79 0.86 0.69 0.56 0.45 0.39 0.36 0.37 0.34 0.30 0.30 0.32 0.37
0.77 0.89 0.94 1.08 1.24 1.41 1.59 1.73 1.73 1.72 1.74 1.72 1.67 1.75 1.85 1.96 2.06 2.07 2.03 1.86 1.72 1.65 1.56 1.39 1.17 0.97 1.07 1.13 1.08 0.99 0.89 0.78 0.73 0.67 0.56 0.50 0.44 0.40 0.39 0.38 0.33 0.28 0.28
0.61 0.71 0.84 1.03 1.15 1.24 1.28 1.36 1.43 1.45 1.47 1.50 1.48 1.45 1.54 1.66 1.79 1.94 2.01 1.95 1.91 1.79 1.69 1.63 1.43 1.16 1.03 1.07 1.10 1.13 1.03 0.88 0.83 0.84 0.76 0.64 0.55 0.47 0.43 0.40 0.37 0.33 0.29
0.61 0.66 0.80 0.95 1.00 1.04 1.08 1.09 1.18 1.26 1.27 1.24 1.27 1.24 1.26 1.36 1.50 1.63 1.72 1.79 1.89 1.91 1.87 1.75 1.63 1.44 1.19 1.14 1.19 1.17 1.13 1.16 1.00 0.93 0.90 0.82 0.74 0.66 0.59 0.53 0.45 0.40 0.36
0.62 0.69 0.84 0.94 0.95 0.90 0.98 1.01 1.05 1.07 1.05 1.01 1.03 1.04 1.08 1.11 1.17 1.29 1.44 1.64 1.81 1.90 1.94 1.90 1.79 1.55 1.38 1.31 1.28 1.26 1.29 1.29 1.23 1.08 1.00 0.92 0.91 0.82 0.73 0.65 0.57 0.50 0.46
0.64 0.71 0.76 0.87 0.91 0.89 0.93 0.98 0.97 0.88 0.86 0.87 0.84 0.75 0.77 0.82 0.82 0.89 0.96 1.23 1.47 1.65 1.77 1.83 1.77 1.59 1.39 1.28 1.18 1.21 1.29 1.39 1.41 1.34 1.25 1.06 0.98 0.89 0.82 0.78 0.71 0.61 0.53
0.53 0.58 0.64 0.80 0.91 0.82 0.93 0.92 0.83 0.76 0.73 0.75 0.72 0.66 0.65 0.69 0.61 0.56 0.60 0.80 1.08 1.27 1.43 1.58 1.63 1.49 1.35 1.26 1.28 1.27 1.25 1.25 1.25 1.18 1.12 1.14 1.08 0.99 0.91 0.84 0.87 0.82 0.73
0.46 0.52 0.56 0.73 0.82 0.90 0.85 0.69 0.73 0.72 0.73 0.74 0.76 0.77 0.70 0.66 0.74 0.65 0.59 0.65 0.73 0.84 0.98 1.20 1.41 1.40 1.48 1.39 1.26 1.19 1.17 1.17 1.16 1.18 1.12 1.07 1.03 0.96 0.89 0.86 0.93 0.88 0.86
0.44 0.49 0.55 0.59 0.67 0.80 0.74 0.59 0.63 0.62 0.72 0.80 0.83 0.91 0.91 0.85 0.83 0.89 0.82 0.83 0.80 0.74 0.80 0.72 0.91 1.25 1.39 1.43 1.34 1.29 1.30 1.21 1.12 1.13 1.09 1.07 1.05 0.97 0.85 0.78 0.82 0.75 0.71
0.48 0.50 0.55 0.58 0.64 0.68 0.64 0.56 0.59 0.66 0.78 0.81 0.78 0.88 0.90 0.84 0.89 0.95 1.05 1.09 1.00 0.87 1.00 1.00 0.91 0.99 1.11 1.15 1.21 1.23 1.22 1.14 1.08 1.04 0.92 0.86 0.85 0.88 0.89 0.83 0.76 0.73 0.66
0.46 0.48 0.47 0.47 0.51 0.54 0.59 0.49 0.60 0.72 0.77 0.79 0.79 0.84 0.97 0.88 0.86 0.84 0.93 1.04 1.01 0.90 0.79 0.82 0.79 0.68 0.62 0.72 0.89 1.00 1.19 1.24 1.17 1.05 0.89 0.81 0.82 0.80 0.82 0.76 0.66 0.64 0.60

GEFSMA_prec_meanprecacc_120.txt.gz
Total_Precipitation_Accumulation
0.77 0.70 0.59 0.61 0.56 0.58 0.64 0.68 0.70 0.69 0.70 0.65 0.61 0.60 0.59 0.55 0.54 0.53 0.64 0.82 1.14 1.25 1.01 0.78 0.61 0.52 0.54 0.53 0.50 0.56 0.61 0.65 0.70 0.70 0.70 0.67 0.69 0.59 0.45 0.36 0.36 0.35 0.37
0.71 0.73 0.68 0.69 0.70 0.67 0.67 0.66 0.64 0.73 0.75 0.70 0.64 0.61 0.58 0.49 0.51 0.58 0.68 0.80 0.86 0.99 1.17 1.08 0.89 0.74 0.64 0.55 0.51 0.50 0.54 0.56 0.60 0.63 0.68 0.64 0.60 0.52 0.43 0.35 0.39 0.37 0.34
0.68 0.73 0.76 0.76 0.77 0.78 0.77 0.78 0.77 0.82 0.77 0.74 0.71 0.62 0.54 0.47 0.47 0.55 0.58 0.66 0.57 0.53 0.77 1.01 1.05 0.95 0.85 0.75 0.63 0.51 0.46 0.47 0.51 0.56 0.64 0.63 0.52 0.45 0.39 0.38 0.39 0.40 0.35
0.70 0.79 0.80 0.83 0.89 0.81 0.78 0.84 0.89 0.92 0.88 0.85 0.83 0.68 0.51 0.50 0.50 0.53 0.58 0.61 0.58 0.43 0.47 0.55 0.63 0.73 0.90 0.95 0.82 0.60 0.48 0.40 0.43 0.50 0.62 0.56 0.46 0.43 0.42 0.41 0.39 0.40 0.39
0.88 0.95 0.99 1.00 1.03 1.04 0.96 0.85 0.88 0.93 0.99 0.98 0.86 0.76 0.61 0.57 0.60 0.57 0.67 0.68 0.62 0.51 0.52 0.42 0.37 0.39 0.52 0.71 0.77 0.72 0.61 0.44 0.39 0.44 0.52 0.49 0.41 0.38 0.37 0.35 0.33 0.32 0.33
1.15 1.25 1.23 1.18 1.23 1.31 1.31 1.10 1.13 1.08 1.01 1.05 0.95 0.86 0.79 0.72 0.71 0.69 0.70 0.74 0.76 0.64 0.60 0.50 0.38 0.25 0.31 0.45 0.60 0.67 0.66 0.53 0.42 0.40 0.42 0.42 0.38 0.38 0.33 0.28 0.28 0.29 0.30
1.49 1.64 1.60 1.58 1.57 1.52 1.48 1.43 1.53 1.48 1.22 1.12 1.23 1.17 1.04 0.86 0.79 0.74 0.70 0.76 0.86 0.84 0.83 0.68 0.55 0.40 0.29 0.30 0.35 0.48 0.61 0.64 0.59 0.53 0.46 0.48 0.42 0.35 0.34 0.33 0.30 0.30 0.32
1.71 1.75 1.93 2.03 1.99 2.06 2.03 1.84 1.95 1.95 1.62 1.38 1.52 1.73 1.45 1.25 0.88 0.75 0.76 0.75 0.84 0.94 1.01 0.86 0.70 0.56 0.47 0.43 0.30 0.34 0.42 0.59 0.71 0.66 0.60 0.57 0.50 0.38 0.33 0.33 0.33 0.33 0.32
1.87 1.89 1.99 2.15 2.16 2.22 2.28 2.34 2.27 2.32 2.11 1.75 1.64 1.83 1.62 1.49 1.28 0.86 0.78 0.85 0.90 1.00 1.08 1.08 0.94 0.74 0.65 0.61 0.45 0.33 0.30 0.33 0.55 0.66 0.65 0.58 0.52 0.43 0.36 0.32 0.33 0.35 0.34
2.06 2.13 2.14 2.24 2.27 2.27 2.34 2.44 2.39 2.47 2.50 2.14 1.89 1.67 1.46 1.40 1.45 1.21 0.96 0.88 0.95 1.00 1.09 1.15 1.08 0.94 0.82 0.79 0.68 0.51 0.34 0.27 0.36 0.59 0.70 0.65 0.55 0.47 0.42 0.38 0.35 0.36 0.39
2.17 2.20 2.26 2.41 2.39 2.35 2.32 2.52 2.55 2.62 2.53 2.45 2.30 2.12 1.94 1.65 1.29 1.32 1.30 1.10 0.96 0.87 0.96 1.12 1.18 1.12 1.00 0.91 0.92 0.73 0.51 0.32 0.31 0.53 0.68 0.78 0.70 0.61 0.52 0.50 0.46 0.44 0.41
2.20 2.09 2.02 2.14 2.20 2.23 2.22 2.38 2.53 2.64 2.60 2.63 2.53 2.23 2.13 1.97 1.59 1.51 1.37 1.24 1.17 0.98 0.92 0.97 1.02 1.04 1.05 1.00 0.96 0.96 0.71 0.45 0.32 0.43 0.60 0.66 0.72 0.72 0.67 0.66 0.64 0.59 0.53
2.02 2.04 1.95 1.94 1.96 1.92 1.95 2.06 2.10 2.17 2.30 2.44 2.35 2.13 2.08 1.90 1.84 1.82 1.68 1.45 1.25 1.02 0.99 0.93 0.89 0.94 0.96 0.95 1.03 1.09 0.79 0.53 0.35 0.31 0.39 0.47 0.54 0.62 0.65 0.71 0.77 0.78 0.75
1.71 1.79 1.80 1.74 1.78 1.83 1.84 1.90 1.89 1.90 1.92 1.98 1.99 2.04 2.07 1.94 1.85 1.74 1.70 1.81 1.59 1.33 1.14 1.00 0.94 0.94 0.94 0.95 1.08 1.12 0.79 0.66 0.46 0.34 0.30 0.32 0.37 0.45 0.56 0.63 0.73 0.84 0.85
1.27 1.34 1.44 1.51 1.60 1.65 1.71 1.84 1.88 1.87 1.82 1.79 1.89 1.94 1.88 1.85 1.82 1.69 1.61 1.68 1.74 1.58 1.43 1.21 1.09 0.98 1.00 1.01 1.11 0.92 0.79 0.74 0.59 0.47 0.40 0.34 0.34 0.37 0.41 0.48 0.55 0.63 0.71
0.94 1.00 1.11 1.28 1.50 1.62 1.65 1.71 1.74 1.81 1.84 1.78 1.86 1.95 1.96 1.96 1.99 1.90 1.74 1.69 1.63 1.61 1.52 1.28 1.08 0.96 1.09 1.02 1.12 0.93 0.87 0.94 0.75 0.61 0.50 0.43 0.39 0.40 0.38 0.37 0.37 0.39 0.44
0.78 0.89 0.95 1.09 1.24 1.42 1.60 1.74 1.73 1.72 1.74 1.73 1.68 1.76 1.87 1.97 2.08 2.08 2.04 1.87 1.73 1.68 1.58 1.42 1.19 1.02 1.12 1.17 1.13 1.05 0.96 0.85 0.78 0.71 0.61 0.55 0.49 0.44 0.42 0.41 0.38 0.36 0.35
0.62 0.71 0.84 1.05 1.16 1.24 1.29 1.37 1.44 1.46 1.48 1.51 1.49 1.46 1.55 1.67 1.81 1.96 2.02 1.95 1.92 1.81 1.71 1.65 1.47 1.21 1.07 1.11 1.15 1.20 1.12 0.95 0.88 0.89 0.80 0.69 0.61 0.52 0.46 0.42 0.39 0.36 0.34
0.61 0.66 0.80 0.95 1.01 1.05 1.09 1.11 1.21 1.28 1.29 1.26 1.30 1.26 1.28 1.37 1.51 1.64 1.73 1.80 1.90 1.94 1.90 1.79 1.68 1.48 1.23 1.20 1.25 1.25 1.23 1.26 1.08 0.99 0.96 0.88 0.80 0.72 0.64 0.56 0.48 0.42 0.37
0.62 0.69 0.84 0.94 0.95 0.91 0.99 1.02 1.07 1.10 1.07 1.02 1.06 1.06 1.10 1.12 1.19 1.31 1.45 1.65 1.83 1.93 1.97 1.94 1.85 1.60 1.41 1.36 1.34 1.33 1.36 1.38 1.32 1.15 1.06 0.97 0.97 0.89 0.79 0.68 0.60 0.52 0.47
0.64 0.71 0.76 0.87 0.92 0.90 0.93 0.98 0.97 0.90 0.88 0.88 0.85 0.77 0.78 0.84 0.85 0.92 0.98 1.25 1.49 1.68 1.79 1.86 1.82 1.64 1.44 1.33 1.22 1.26 1.36 1.47 1.49 1.43 1.34 1.13 1.03 0.94 0.88 0.82 0.73 0.63 0.55
0.53 0.58 0.64 0.80 0.91 0.82 0.93 0.92 0.84 0.77 0.73 0.76 0.73 0.67 0.66 0.70 0.62 0.58 0.61 0.82 1.10 1.28 1.44 1.60 1.66 1.52 1.41 1.32 1.33 1.32 1.29 1.31 1.30 1.23 1.19 1.22 1.14 1.04 0.95 0.88 0.89 0.85 0.75
0.47 0.52 0.56 0.73 0.82 0.90 0.85 0.69 0.73 0.73 0.73 0.75 0.77 0.78 0.71 0.66 0.74 0.66 0.60 0.66 0.74 0.85 0.99 1.22 1.43 1.43 1.52 1.44 1.32 1.25 1.23 1.23 1.21 1.23 1.18 1.15 1.11 1.03 0.94 0.90 0.97 0.92 0.89
0.44 0.49 0.55 0.59 0.67 0.80 0.74 0.59 0.63 0.62 0.72 0.80 0.83 0.92 0.93 0.85 0.83 0.89 0.83 0.83 0.81 0.75 0.81 0.73 0.92 1.27 1.41 1.47 1.39 1.36 1.41 1.31 1.20 1.20 1.15 1.13 1.11 1.04 0.92 0.84 0.88 0.80 0.76
0.48 0.50 0.55 0.58 0.64 0.68 0.64 0.57 0.60 0.66 0.79 0.82 0.78 0.89 0.92 0.85 0.90 0.96 1.05 1.09 1.01 0.88 1.01 1.02 0.93 1.01 1.13 1.19 1.28 1.30 1.32 1.23 1.17 1.11 0.98 0.91 0.89 0.92 0.93 0.87 0.82 0.81 0.73
0.46 0.48 0.47 0.47 0.52 0.54 0.59 0.50 0.60 0.72 0.77 0.79 0.80 0.85 0.99 0.89 0.86 0.85 0.93 1.05 1.02 0.91 0.80 0.83 0.80 0.70 0.64 0.75 0.94 1.06 1.26 1.32 1.24 1.11 0.95 0.85 0.86 0.84 0.86 0.79 0.70 0.70 0.68

GEFSMA_prec_meanprecacc_126.txt.gz
Total_Precipitation_Accumulation
0.77 0.70 0.59 0.61 0.56 0.59 0.65 0.69 0.71 0.70 0.71 0.67 0.65 0.64 0.63 0.58 0.56 0.55 0.67 0.87 1.20 1.34 1.11 0.89 0.71 0.63 0.62 0.59 0.57 0.65 0.69 0.72 0.75 0.76 0.76 0.74 0.76 0.67 0.54 0.44 0.42 0.40 0.43
0.71 0.73 0.68 0.69 0.70 0.68 0.68 0.67 0.65 0.75 0.77 0.72 0.68 0.66 0.62 0.53 0.54 0.61 0.73 0.85 0.90 1.06 1.25 1.19 1.02 0.87 0.74 0.63 0.60 0.59 0.62 0.64 0.65 0.68 0.74 0.71 0.66 0.61 0.52 0.41 0.44 0.40 0.38
0.68 0.73 0.76 0.76 0.77 0.78 0.78 0.79 0.78 0.84 0.78 0.76 0.74 0.67 0.60 0.53 0.52 0.60 0.63 0.70 0.60 0.57 0.81 1.10 1.20 1.10 0.99 0.85 0.72 0.60 0.55 0.54 0.57 0.62 0.70 0.69 0.58 0.54 0.45 0.42 0.43 0.44 0.38
0.70 0.79 0.80 0.83 0.89 0.81 0.79 0.85 0.90 0.93 0.89 0.87 0.85 0.71 0.57 0.57 0.56 0.58 0.63 0.66 0.62 0.47 0.51 0.61 0.73 0.85 1.04 1.10 0.93 0.70 0.57 0.47 0.48 0.57 0.68 0.60 0.49 0.47 0.45 0.46 0.43 0.43 0.41
0.88 0.95 0.99 1.00 1.03 1.04 0.96 0.85 0.88 0.94 1.00 0.98 0.88 0.79 0.65 0.62 0.65 0.63 0.75 0.74 0.67 0.55 0.55 0.45 0.43 0.47 0.62 0.85 0.90 0.84 0.71 0.53 0.45 0.51 0.58 0.53 0.45 0.42 0.40 0.40 0.38 0.35 0.36
1.15 1.25 1.23 1.18 1.23 1.31 1.31 1.10 1.13 1.08 1.02 1.06 0.97 0.89 0.84 0.76 0.76 0.76 0.77 0.80 0.82 0.68 0.64 0.52 0.42 0.30 0.37 0.55 0.71 0.80 0.79 0.64 0.50 0.47 0.50 0.48 0.43 0.42 0.37 0.32 0.33 0.33 0.32
1.49 1.64 1.60 1.58 1.57 1.53 1.49 1.43 1.53 1.48 1.22 1.12 1.26 1.21 1.08 0.91 0.84 0.80 0.78 0.85 0.94 0.89 0.86 0.70 0.58 0.43 0.33 0.34 0.40 0.57 0.74 0.77 0.69 0.62 0.56 0.58 0.50 0.42 0.41 0.38 0.34 0.34 0.35
1.71 1.75 1.93 2.03 1.99 2.07 2.04 1.85 1.95 1.95 1.63 1.39 1.54 1.77 1.50 1.30 0.92 0.80 0.83 0.84 0.93 1.02 1.05 0.89 0.73 0.59 0.49 0.46 0.33 0.38 0.50 0.71 0.82 0.76 0.69 0.67 0.59 0.47 0.41 0.39 0.37 0.36 0.36
1.87 1.89 1.99 2.15 2.16 2.22 2.28 2.34 2.28 2.33 2.11 1.76 1.66 1.87 1.66 1.52 1.32 0.91 0.84 0.95 1.03 1.10 1.15 1.13 0.98 0.78 0.67 0.64 0.49 0.36 0.34 0.39 0.64 0.75 0.75 0.70 0.64 0.54 0.45 0.40 0.39 0.39 0.37
2.06 2.13 2.14 2.24 2.27 2.27 2.34 2.44 2.40 2.47 2.51 2.15 1.89 1.68 1.48 1.43 1.48 1.24 1.00 0.97 1.10 1.13 1.17 1.20 1.15 1.01 0.86 0.81 0.72 0.56 0.38 0.31 0.42 0.67 0.80 0.77 0.67 0.63 0.54 0.47 0.42 0.41 0.43
2.17 2.20 2.26 2.41 2.39 2.35 2.32 2.52 2.55 2.62 2.54 2.46 2.30 2.12 1.96 1.67 1.30 1.34 1.33 1.17 1.10 1.02 1.06 1.19 1.26 1.21 1.06 0.97 0.97 0.78 0.55 0.36 0.36 0.59 0.77 0.89 0.82 0.78 0.70 0.61 0.54 0.50 0.46
2.20 2.09 2.02 2.14 2.20 2.23 2.22 2.38 2.53 2.65 2.62 2.64 2.54 2.24 2.14 1.99 1.60 1.52 1.39 1.28 1.27 1.10 1.03 1.06 1.10 1.12 1.13 1.07 1.02 1.03 0.76 0.51 0.38 0.49 0.67 0.76 0.84 0.89 0.86 0.79 0.75 0.68 0.61
2.02 2.05 1.95 1.94 1.96 1.92 1.95 2.06 2.11 2.18 2.32 2.45 2.35 2.14 2.08 1.91 1.85 1.83 1.71 1.48 1.29 1.08 1.06 1.02 0.99 1.02 1.04 1.04 1.11 1.20 0.87 0.60 0.41 0.37 0.47 0.55 0.64 0.75 0.81 0.86 0.88 0.88 0.85
1.72 1.80 1.80 1.74 1.78 1.83 1.84 1.90 1.90 1.90 1.92 1.98 1.99 2.04 2.08 1.95 1.86 1.76 1.73 1.84 1.61 1.37 1.20 1.06 1.02 1.04 1.03 1.02 1.18 1.24 0.90 0.73 0.52 0.40 0.36 0.38 0.44 0.55 0.67 0.77 0.88 0.98 0.99
1.28 1.34 1.44 1.51 1.60 1.65 1.71 1.84 1.89 1.88 1.83 1.80 1.89 1.95 1.89 1.85 1.82 1.70 1.64 1.70 1.76 1.62 1.47 1.26 1.15 1.07 1.11 1.10 1.21 1.00 0.88 0.83 0.66 0.55 0.47 0.39 0.38 0.43 0.48 0.58 0.70 0.75 0.81
0.94 1.00 1.11 1.28 1.50 1.62 1.65 1.72 1.76 1.83 1.85 1.79 1.88 1.98 1.97 1.97 2.00 1.90 1.76 1.70 1.64 1.63 1.54 1.32 1.12 1.01 1.16 1.10 1.22 1.02 0.95 1.02 0.82 0.67 0.56 0.49 0.44 0.44 0.43 0.42 0.48 0.50 0.51
0.78 0.89 0.95 1.09 1.24 1.42 1.60 1.74 1.74 1.73 1.75 1.74 1.69 1.77 1.87 1.97 2.08 2.09 2.05 1.89 1.75 1.71 1.60 1.43 1.22 1.05 1.17 1.22 1.19 1.13 1.03 0.91 0.84 0.77 0.66 0.60 0.55 0.48 0.47 0.46 0.44 0.44 0.43
0.62 0.71 0.84 1.05 1.16 1.24 1.29 1.37 1.44 1.47 1.48 1.51 1.50 1.46 1.56 1.67 1.81 1.96 2.02 1.96 1.94 1.84 1.73 1.67 1.50 1.24 1.11 1.15 1.19 1.26 1.17 1.00 0.92 0.95 0.86 0.74 0.66 0.58 0.52 0.47 0.44 0.41 0.40
0.61 0.66 0.80 0.95 1.01 1.06 1.09 1.11 1.21 1.28 1.29 1.26 1.30 1.27 1.28 1.38 1.52 1.64 1.73 1.81 1.92 1.96 1.92 1.82 1.71 1.51 1.26 1.23 1.28 1.28 1.27 1.30 1.12 1.04 1.03 0.97 0.87 0.78 0.71 0.62 0.53 0.46 0.42
0.62 0.69 0.84 0.94 0.95 0.91 1.00 1.03 1.08 1.10 1.07 1.03 1.06 1.06 1.10 1.13 1.20 1.31 1.46 1.67 1.85 1.95 1.99 1.97 1.88 1.64 1.45 1.40 1.37 1.36 1.40 1.42 1.37 1.20 1.11 1.06 1.08 0.99 0.86 0.75 0.66 0.56 0.52
0.64 0.71 0.76 0.87 0.92 0.90 0.93 0.99 0.98 0.90 0.89 0.89 0.85 0.77 0.79 0.84 0.85 0.93 0.99 1.26 1.51 1.70 1.81 1.88 1.85 1.68 1.47 1.37 1.27 1.30 1.39 1.51 1.54 1.48 1.39 1.19 1.12 1.06 1.00 0.90 0.79 0.68 0.59
0.53 0.58 0.64 0.80 0.91 0.82 0.93 0.92 0.84 0.77 0.73 0.77 0.74 0.68 0.66 0.70 0.62 0.59 0.62 0.84 1.12 1.30 1.46 1.63 1.69 1.55 1.43 1.34 1.37 1.37 1.35 1.35 1.35 1.28 1.26 1.30 1.23 1.14 1.05 0.98 0.97 0.89 0.80
0.47 0.52 0.56 0.73 0.82 0.90 0.85 0.69 0.73 0.73 0.73 0.75 0.77 0.79 0.72 0.68 0.75 0.66 0.60 0.67 0.76 0.87 1.01 1.24 1.45 1.45 1.55 1.47 1.35 1.29 1.28 1.28 1.25 1.28 1.24 1.23 1.19 1.11 1.01 0.97 1.05 0.98 0.93
0.44 0.49 0.55 0.59 0.67 0.80 0.74 0.59 0.63 0.62 0.72 0.80 0.83 0.92 0.93 0.86 0.83 0.89 0.83 0.84 0.82 0.76 0.83 0.74 0.93 1.29 1.43 1.48 1.41 1.40 1.46 1.35 1.25 1.25 1.20 1.18 1.18 1.11 0.98 0.91 0.94 0.86 0.80
0.48 0.50 0.55 0.58 0.64 0.68 0.64 0.57 0.60 0.66 0.79 0.82 0.78 0.89 0.92 0.85 0.90 0.96 1.06 1.10 1.02 0.89 1.03 1.04 0.95 1.04 1.16 1.21 1.29 1.33 1.36 1.28 1.23 1.18 1.04 0.96 0.94 0.98 1.00 0.94 0.91 0.91 0.82
0.46 0.48 0.47 0.47 0.52 0.54 0.59 0.50 0.60 0.72 0.78 0.79 0.80 0.85 0.99 0.90 0.87 0.86 0.93 1.05 1.03 0.92 0.81 0.85 0.82 0.72 0.67 0.77 0.95 1.08 1.30 1.37 1.29 1.18 1.03 0.93 0.93 0.90 0.91 0.85 0.78 0.79 0.78

GEFSMA_prec_meanprecacc_132.txt.gz
Total_Precipitation_Accumulation
0.77 0.70 0.59 0.61 0.56 0.59 0.66 0.70 0.72 0.71 0.73 0.71 0.69 0.68 0.68 0.63 0.59 0.57 0.69 0.89 1.24 1.40 1.19 0.96 0.77 0.68 0.67 0.66 0.64 0.72 0.78 0.81 0.87 0.95 0.95 0.94 0.90 0.80 0.69 0.62 0.58 0.53 0.62
0.71 0.74 0.68 0.69 0.70 0.68 0.68 0.68 0.66 0.76 0.78 0.75 0.71 0.70 0.68 0.59 0.58 0.65 0.75 0.87 0.92 1.09 1.32 1.28 1.11 0.94 0.80 0.71 0.69 0.68 0.70 0.71 0.74 0.83 0.92 0.85 0.77 0.70 0.63 0.55 0.57 0.49 0.50
0.68 0.73 0.76 0.76 0.78 0.79 0.78 0.80 0.79 0.85 0.80 0.78 0.77 0.71 0.65 0.58 0.60 0.67 0.68 0.73 0.63 0.59 0.85 1.16 1.29 1.18 1.07 0.95 0.83 0.71 0.64 0.63 0.66 0.74 0.85 0.81 0.67 0.65 0.57 0.54 0.54 0.53 0.48
0.70 0.79 0.80 0.83 0.89 0.82 0.80 0.86 0.90 0.94 0.90 0.89 0.89 0.76 0.61 0.61 0.62 0.65 0.70 0.70 0.67 0.52 0.55 0.64 0.79 0.92 1.13 1.21 1.05 0.82 0.66 0.56 0.59 0.67 0.78 0.70 0.57 0.55 0.57 0.59 0.54 0.54 0.50
0.88 0.95 0.99 1.01 1.03 1.05 0.98 0.87 0.89 0.94 1.01 1.00 0.91 0.83 0.69 0.66 0.71 0.71 0.82 0.80 0.73 0.63 0.62 0.49 0.46 0.51 0.69 0.95 1.01 0.96 0.82 0.61 0.55 0.61 0.66 0.60 0.51 0.48 0.48 0.51 0.50 0.46 0.43
1.15 1.25 1.23 1.18 1.24 1.32 1.33 1.12 1.15 1.09 1.03 1.08 0.99 0.92 0.87 0.80 0.80 0.83 0.85 0.87 0.90 0.75 0.70 0.58 0.49 0.34 0.41 0.63 0.79 0.91 0.91 0.75 0.61 0.57 0.58 0.55 0.50 0.49 0.44 0.40 0.43 0.42 0.39
1.49 1.64 1.60 1.59 1.57 1.54 1.50 1.44 1.55 1.49 1.23 1.13 1.27 1.23 1.10 0.94 0.88 0.85 0.85 0.92 1.01 0.98 0.95 0.79 0.66 0.48 0.38 0.40 0.46 0.64 0.85 0.90 0.83 0.73 0.66 0.66 0.57 0.50 0.48 0.45 0.41 0.41 0.41
1.72 1.75 1.94 2.03 1.99 2.08 2.06 1.87 1.98 1.97 1.64 1.39 1.56 1.80 1.53 1.34 0.96 0.85 0.89 0.90 0.99 1.08 1.14 0.96 0.78 0.63 0.55 0.52 0.37 0.41 0.56 0.80 0.95 0.87 0.79 0.74 0.66 0.54 0.48 0.48 0.44 0.40 0.41
1.87 1.89 2.00 2.15 2.16 2.23 2.30 2.37 2.30 2.34 2.13 1.77 1.67 1.90 1.71 1.57 1.36 0.96 0.91 1.01 1.09 1.16 1.22 1.21 1.04 0.81 0.74 0.72 0.55 0.40 0.36 0.44 0.75 0.87 0.86 0.79 0.70 0.61 0.51 0.48 0.46 0.44 0.41
2.06 2.13 2.14 2.25 2.27 2.27 2.35 2.46 2.41 2.49 2.53 2.17 1.92 1.71 1.51 1.46 1.53 1.30 1.07 1.02 1.17 1.23 1.25 1.28 1.23 1.06 0.92 0.89 0.78 0.59 0.41 0.33 0.48 0.81 0.95 0.90 0.78 0.71 0.60 0.54 0.47 0.44 0.46
2.17 2.20 2.26 2.41 2.39 2.35 2.33 2.53 2.57 2.64 2.56 2.48 2.32 2.14 1.98 1.70 1.35 1.40 1.38 1.23 1.17 1.11 1.17 1.29 1.34 1.29 1.14 1.04 1.05 0.82 0.57 0.39 0.38 0.68 0.90 1.04 0.97 0.91 0.79 0.69 0.61 0.55 0.51
2.20 2.09 2.02 2.14 2.20 2.23 2.22 2.39 2.55 2.68 2.65 2.67 2.56 2.26 2.17 2.02 1.64 1.57 1.44 1.32 1.33 1.16 1.10 1.15 1.17 1.18 1.22 1.16 1.08 1.07 0.80 0.55 0.40 0.52 0.74 0.86 0.98 1.05 1.00 0.90 0.83 0.75 0.67
2.02 2.05 1.95 1.94 1.97 1.92 1.95 2.07 2.12 2.20 2.33 2.47 2.38 2.16 2.10 1.93 1.88 1.87 1.75 1.51 1.33 1.12 1.12 1.09 1.07 1.07 1.08 1.09 1.17 1.27 0.92 0.65 0.45 0.39 0.50 0.61 0.70 0.85 0.95 0.98 0.98 0.97 0.94
1.72 1.80 1.80 1.74 1.78 1.83 1.84 1.91 1.90 1.91 1.93 2.00 2.00 2.06 2.10 1.96 1.88 1.79 1.77 1.89 1.65 1.41 1.25 1.12 1.10 1.11 1.07 1.06 1.22 1.30 0.97 0.78 0.56 0.43 0.39 0.42 0.48 0.62 0.76 0.90 1.00 1.08 1.09
1.28 1.34 1.44 1.51 1.60 1.65 1.71 1.84 1.90 1.89 1.84 1.81 1.91 1.96 1.90 1.87 1.84 1.73 1.68 1.76 1.81 1.66 1.52 1.32 1.21 1.15 1.17 1.15 1.25 1.04 0.96 0.89 0.71 0.59 0.50 0.43 0.41 0.47 0.53 0.69 0.81 0.83 0.89
0.94 1.00 1.11 1.28 1.50 1.62 1.66 1.72 1.76 1.85 1.88 1.82 1.89 2.00 1.99 1.98 2.01 1.93 1.79 1.73 1.67 1.67 1.59 1.36 1.19 1.10 1.23 1.16 1.26 1.06 1.00 1.10 0.90 0.72 0.62 0.54 0.49 0.47 0.46 0.52 0.59 0.59 0.59
0.78 0.89 0.95 1.09 1.24 1.42 1.60 1.75 1.76 1.74 1.77 1.76 1.71 1.78 1.89 1.98 2.09 2.10 2.07 1.92 1.78 1.74 1.64 1.47 1.28 1.13 1.25 1.30 1.25 1.19 1.09 0.98 0.92 0.84 0.73 0.69 0.62 0.52 0.50 0.52 0.58 0.54 0.53
0.62 0.71 0.84 1.05 1.16 1.24 1.29 1.37 1.45 1.48 1.49 1.54 1.52 1.48 1.57 1.69 1.82 1.97 2.04 1.98 1.96 1.86 1.76 1.70 1.53 1.29 1.18 1.22 1.25 1.32 1.25 1.06 0.98 1.03 0.94 0.81 0.73 0.63 0.56 0.52 0.55 0.52 0.50
0.61 0.66 0.80 0.95 1.01 1.06 1.09 1.11 1.21 1.29 1.29 1.27 1.31 1.28 1.30 1.40 1.53 1.65 1.74 1.82 1.94 1.98 1.95 1.85 1.76 1.56 1.31 1.29 1.32 1.32 1.32 1.37 1.17 1.09 1.09 1.03 0.92 0.83 0.77 0.68 0.60 0.54 0.52
0.62 0.69 0.84 0.94 0.95 0.91 1.00 1.03 1.08 1.11 1.07 1.03 1.06 1.07 1.11 1.14 1.21 1.33 1.47 1.68 1.87 1.97 2.03 2.00 1.91 1.68 1.49 1.43 1.41 1.40 1.44 1.47 1.43 1.24 1.15 1.10 1.14 1.04 0.91 0.79 0.71 0.62 0.59
0.64 0.71 0.76 0.87 0.92 0.90 0.93 0.99 0.98 0.92 0.90 0.90 0.86 0.77 0.79 0.85 0.86 0.94 0.99 1.27 1.52 1.73 1.85 1.92 1.88 1.71 1.50 1.39 1.29 1.32 1.43 1.55 1.59 1.53 1.44 1.23 1.17 1.12 1.05 0.94 0.82 0.72 0.64
0.53 0.58 0.64 0.80 0.91 0.82 0.93 0.92 0.85 0.78 0.74 0.78 0.75 0.69 0.67 0.71 0.62 0.59 0.63 0.84 1.13 1.33 1.50 1.66 1.71 1.58 1.44 1.36 1.39 1.39 1.39 1.40 1.39 1.32 1.31 1.34 1.26 1.18 1.11 1.03 1.00 0.92 0.84
0.47 0.52 0.56 0.73 0.82 0.90 0.85 0.70 0.74 0.73 0.74 0.75 0.78 0.80 0.73 0.68 0.76 0.67 0.61 0.68 0.77 0.88 1.03 1.28 1.48 1.47 1.56 1.48 1.37 1.31 1.31 1.33 1.30 1.32 1.29 1.30 1.24 1.15 1.06 1.03 1.11 1.01 0.96
0.44 0.49 0.55 0.59 0.67 0.80 0.74 0.59 0.63 0.63 0.73 0.81 0.84 0.93 0.93 0.87 0.84 0.91 0.85 0.86 0.84 0.77 0.83 0.76 0.96 1.31 1.45 1.50 1.43 1.43 1.49 1.40 1.29 1.29 1.25 1.25 1.24 1.17 1.03 0.96 1.02 0.92 0.83
0.48 0.50 0.55 0.58 0.64 0.68 0.64 0.57 0.60 0.66 0.79 0.82 0.79 0.90 0.92 0.85 0.90 0.96 1.08 1.13 1.05 0.91 1.04 1.05 0.96 1.05 1.18 1.23 1.32 1.36 1.39 1.31 1.27 1.22 1.09 1.02 1.00 1.05 1.08 1.00 0.97 0.98 0.87
0.46 0.48 0.47 0.47 0.52 0.54 0.59 0.50 0.60 0.72 0.78 0.79 0.80 0.86 0.99 0.90 0.87 0.86 0.95 1.07 1.06 0.94 0.83 0.87 0.84 0.74 0.68 0.78 0.96 1.10 1.33 1.39 1.33 1.22 1.07 0.98 0.99 0.96 0.99 0.93 0.85 0.86 0.84

GEFSMA_prec_meanprecacc_138.txt.gz
Total_Precipitation_Accumulation
0.77 0.71 0.59 0.62 0.57 0.60 0.66 0.70 0.72 0.72 0.74 0.72 0.72 0.73 0.73 0.70 0.66 0.64 0.77 0.93 1.27 1.43 1.23 1.00 0.81 0.72 0.70 0.69 0.69 0.81 0.94 1.00 1.05 1.13 1.14 1.13 1.08 0.95 0.87 0.79 0.79 0.84 0.84
0.71 0.74 0.69 0.70 0.71 0.69 0.69 0.68 0.67 0.76 0.79 0.76 0.74 0.74 0.74 0.66 0.65 0.73 0.84 0.92 0.95 1.12 1.37 1.32 1.16 0.99 0.84 0.74 0.73 0.74 0.82 0.88 0.92 1.01 1.07 1.03 0.95 0.84 0.76 0.73 0.76 0.69 0.67
0.68 0.73 0.76 0.77 0.79 0.79 0.79 0.80 0.80 0.85 0.81 0.80 0.80 0.75 0.69 0.65 0.66 0.73 0.76 0.82 0.68 0.62 0.88 1.20 1.35 1.24 1.12 0.99 0.87 0.76 0.74 0.78 0.82 0.97 1.04 0.98 0.83 0.77 0.71 0.73 0.74 0.68 0.60
0.70 0.79 0.81 0.84 0.91 0.83 0.80 0.87 0.92 0.96 0.91 0.90 0.92 0.79 0.65 0.66 0.67 0.72 0.79 0.79 0.76 0.60 0.61 0.68 0.83 0.97 1.18 1.27 1.12 0.91 0.77 0.70 0.73 0.92 1.01 0.84 0.71 0.67 0.71 0.76 0.70 0.67 0.60
0.88 0.95 0.99 1.02 1.05 1.07 0.99 0.88 0.90 0.96 1.03 1.02 0.94 0.87 0.73 0.71 0.75 0.76 0.89 0.88 0.81 0.71 0.70 0.54 0.49 0.55 0.76 1.02 1.07 1.03 0.90 0.75 0.70 0.82 0.87 0.73 0.64 0.60 0.60 0.64 0.60 0.57 0.56
1.16 1.26 1.24 1.19 1.26 1.34 1.35 1.14 1.17 1.12 1.05 1.10 1.02 0.95 0.90 0.83 0.84 0.88 0.90 0.93 0.96 0.83 0.80 0.65 0.54 0.38 0.45 0.69 0.85 0.98 0.98 0.84 0.74 0.75 0.77 0.65 0.59 0.59 0.55 0.52 0.53 0.53 0.50
1.49 1.65 1.61 1.59 1.60 1.57 1.53 1.47 1.59 1.52 1.25 1.16 1.30 1.26 1.13 0.96 0.90 0.88 0.87 0.96 1.06 1.06 1.06 0.89 0.76 0.57 0.41 0.42 0.50 0.69 0.92 0.98 0.93 0.86 0.78 0.73 0.63 0.58 0.57 0.55 0.52 0.54 0.54
1.72 1.75 1.95 2.05 2.02 2.10 2.08 1.89 2.02 2.02 1.67 1.41 1.59 1.84 1.58 1.38 0.99 0.87 0.91 0.93 1.04 1.15 1.23 1.07 0.88 0.72 0.64 0.57 0.39 0.44 0.60 0.87 1.03 0.96 0.87 0.82 0.72 0.60 0.53 0.53 0.51 0.52 0.53
1.87 1.89 2.00 2.17 2.18 2.25 2.32 2.39 2.33 2.40 2.17 1.80 1.70 1.94 1.76 1.63 1.41 0.99 0.93 1.02 1.13 1.22 1.30 1.31 1.15 0.89 0.85 0.82 0.60 0.42 0.38 0.47 0.81 0.96 0.95 0.88 0.78 0.66 0.56 0.52 0.51 0.50 0.50
2.06 2.13 2.15 2.25 2.27 2.28 2.37 2.48 2.43 2.54 2.58 2.20 1.95 1.73 1.55 1.52 1.58 1.34 1.10 1.06 1.22 1.28 1.31 1.36 1.35 1.15 1.00 1.01 0.86 0.63 0.43 0.34 0.53 0.89 1.06 1.00 0.87 0.79 0.66 0.58 0.51 0.49 0.51
2.17 2.20 2.27 2.42 2.40 2.37 2.34 2.56 2.61 2.69 2.61 2.52 2.36 2.18 2.01 1.75 1.39 1.45 1.44 1.28 1.22 1.16 1.23 1.35 1.47 1.39 1.24 1.15 1.17 0.88 0.61 0.41 0.41 0.74 1.01 1.15 1.08 1.02 0.90 0.78 0.67 0.60 0.55
2.20 2.10 2.02 2.16 2.22 2.25 2.24 2.41 2.58 2.71 2.69 2.71 2.61 2.30 2.21 2.07 1.69 1.62 1.49 1.38 1.40 1.23 1.15 1.20 1.24 1.26 1.29 1.25 1.18 1.14 0.84 0.57 0.42 0.56 0.84 0.98 1.09 1.18 1.15 1.05 0.94 0.83 0.72
2.02 2.05 1.95 1.95 1.98 1.93 1.97 2.08 2.14 2.22 2.36 2.51 2.41 2.19 2.13 1.97 1.92 1.91 1.80 1.56 1.39 1.18 1.17 1.13 1.11 1.11 1.12 1.14 1.23 1.33 0.96 0.67 0.46 0.41 0.53 0.67 0.78 0.95 1.12 1.18 1.13 1.08 1.02
1.72 1.80 1.80 1.75 1.79 1.83 1.84 1.91 1.92 1.92 1.95 2.02 2.01 2.08 2.12 1.98 1.90 1.82 1.81 1.94 1.72 1.47 1.31 1.17 1.14 1.15 1.11 1.11 1.27 1.35 1.01 0.79 0.57 0.45 0.40 0.44 0.53 0.69 0.87 1.04 1.14 1.23 1.22
1.28 1.34 1.44 1.51 1.61 1.66 1.72 1.85 1.91 1.90 1.86 1.83 1.93 1.98 1.92 1.89 1.87 1.76 1.72 1.81 1.87 1.72 1.59 1.39 1.25 1.19 1.22 1.19 1.28 1.10 1.01 0.91 0.71 0.61 0.51 0.44 0.44 0.49 0.57 0.76 0.90 0.91 0.98
0.94 1.00 1.11 1.28 1.50 1.62 1.66 1.73 1.78 1.86 1.89 1.84 1.92 2.01 2.01 2.01 2.03 1.95 1.82 1.77 1.71 1.73 1.64 1.42 1.23 1.13 1.27 1.18 1.28 1.10 1.05 1.13 0.91 0.74 0.64 0.57 0.51 0.49 0.48 0.56 0.65 0.64 0.63
0.78 0.89 0.95 1.09 1.24 1.43 1.61 1.75 1.77 1.76 1.80 1.78 1.72 1.80 1.90 2.00 2.12 2.13 2.10 1.95 1.81 1.78 1.69 1.52 1.32 1.17 1.30 1.35 1.29 1.23 1.13 1.02 0.96 0.86 0.74 0.72 0.65 0.54 0.52 0.55 0.62 0.59 0.57
0.62 0.71 0.84 1.05 1.16 1.25 1.30 1.38 1.46 1.49 1.51 1.56 1.55 1.52 1.60 1.72 1.86 2.00 2.06 2.00 1.99 1.90 1.80 1.75 1.57 1.31 1.21 1.28 1.31 1.37 1.29 1.11 1.03 1.05 0.95 0.84 0.77 0.67 0.59 0.54 0.59 0.58 0.55
0.61 0.66 0.80 0.95 1.01 1.06 1.10 1.12 1.22 1.30 1.31 1.29 1.34 1.30 1.32 1.43 1.56 1.69 1.77 1.84 1.96 1.99 1.98 1.88 1.78 1.58 1.34 1.34 1.38 1.37 1.37 1.43 1.22 1.12 1.12 1.06 0.97 0.88 0.81 0.70 0.64 0.61 0.57
0.62 0.69 0.84 0.94 0.95 0.91 1.00 1.03 1.08 1.12 1.09 1.04 1.07 1.08 1.13 1.16 1.24 1.36 1.50 1.70 1.90 2.00 2.06 2.04 1.93 1.70 1.52 1.49 1.48 1.46 1.50 1.53 1.49 1.29 1.20 1.14 1.17 1.08 0.95 0.82 0.74 0.69 0.65
0.64 0.71 0.76 0.87 0.92 0.90 0.93 0.99 0.98 0.93 0.92 0.91 0.87 0.78 0.80 0.86 0.87 0.95 1.01 1.29 1.54 1.75 1.89 1.96 1.91 1.75 1.54 1.44 1.34 1.39 1.50 1.63 1.66 1.62 1.53 1.28 1.22 1.16 1.09 0.98 0.85 0.76 0.70
0.53 0.58 0.64 0.80 0.91 0.82 0.93 0.92 0.85 0.78 0.75 0.79 0.76 0.69 0.67 0.71 0.62 0.59 0.63 0.85 1.14 1.34 1.52 1.70 1.76 1.62 1.48 1.40 1.44 1.46 1.45 1.46 1.45 1.40 1.40 1.42 1.34 1.24 1.15 1.07 1.02 0.94 0.86
0.47 0.52 0.56 0.73 0.83 0.91 0.85 0.70 0.74 0.74 0.74 0.76 0.79 0.80 0.73 0.69 0.76 0.67 0.61 0.68 0.77 0.88 1.04 1.30 1.52 1.51 1.60 1.52 1.42 1.36 1.36 1.38 1.35 1.38 1.37 1.37 1.31 1.21 1.10 1.06 1.15 1.04 0.98
0.44 0.49 0.55 0.59 0.67 0.80 0.74 0.59 0.63 0.63 0.74 0.81 0.84 0.93 0.94 0.87 0.84 0.91 0.87 0.88 0.85 0.77 0.84 0.76 0.98 1.35 1.48 1.53 1.47 1.49 1.55 1.47 1.34 1.33 1.32 1.32 1.31 1.21 1.06 0.98 1.05 0.94 0.85
0.48 0.50 0.55 0.58 0.64 0.68 0.64 0.57 0.60 0.67 0.79 0.82 0.79 0.90 0.93 0.87 0.91 0.97 1.09 1.15 1.08 0.94 1.04 1.05 0.97 1.07 1.21 1.26 1.36 1.43 1.47 1.37 1.31 1.26 1.14 1.06 1.05 1.10 1.13 1.05 1.01 1.01 0.89
0.47 0.48 0.47 0.47 0.52 0.54 0.59 0.50 0.61 0.72 0.78 0.80 0.81 0.86 1.00 0.91 0.88 0.87 0.96 1.10 1.09 0.97 0.84 0.88 0.85 0.75 0.70 0.80 0.99 1.14 1.39 1.46 1.38 1.27 1.11 1.01 1.02 1.00 1.04 0.98 0.90 0.92 0.88

GEFSMA_prec_meanprecacc_144.txt.gz
Total_Precipitation_Accumulation
0.77 0.71 0.59 0.62 0.57 0.60 0.66 0.70 0.73 0.72 0.75 0.74 0.74 0.74 0.76 0.73 0.68 0.66 0.80 0.97 1.33 1.49 1.29 1.05 0.85 0.75 0.73 0.73 0.75 0.92 1.08 1.16 1.20 1.26 1.28 1.33 1.26 1.10 1.00 0.90 0.95 1.02 0.96
0.71 0.74 0.69 0.70 0.71 0.69 0.69 0.69 0.67 0.77 0.80 0.78 0.76 0.76 0.77 0.69 0.68 0.76 0.90 0.96 0.98 1.16 1.42 1.39 1.22 1.01 0.88 0.79 0.78 0.86 0.97 1.03 1.06 1.14 1.19 1.17 1.10 0.98 0.90 0.84 1.01 0.91 0.80
0.68 0.73 0.76 0.77 0.79 0.79 0.79 0.80 0.80 0.86 0.81 0.81 0.81 0.76 0.71 0.66 0.67 0.76 0.80 0.86 0.71 0.65 0.93 1.28 1.41 1.28 1.17 1.05 0.91 0.84 0.85 0.91 0.95 1.10 1.15 1.09 0.95 0.89 0.83 0.85 0.94 0.85 0.74
0.70 0.79 0.81 0.85 0.91 0.83 0.80 0.87 0.92 0.96 0.91 0.91 0.92 0.80 0.66 0.68 0.68 0.73 0.83 0.84 0.79 0.62 0.64 0.73 0.90 1.03 1.25 1.36 1.16 0.99 0.91 0.83 0.86 1.04 1.12 0.94 0.80 0.76 0.80 0.86 0.85 0.80 0.73
0.88 0.95 0.99 1.02 1.05 1.07 0.99 0.88 0.90 0.96 1.03 1.03 0.95 0.88 0.74 0.73 0.77 0.78 0.95 0.96 0.86 0.74 0.73 0.58 0.54 0.60 0.81 1.11 1.16 1.12 1.05 0.88 0.82 0.93 0.97 0.81 0.71 0.67 0.68 0.72 0.69 0.66 0.65
1.16 1.26 1.24 1.19 1.26 1.34 1.35 1.14 1.18 1.12 1.06 1.11 1.03 0.96 0.91 0.85 0.85 0.91 0.96 1.01 1.02 0.87 0.84 0.69 0.57 0.41 0.49 0.73 0.93 1.07 1.16 1.05 0.89 0.90 0.93 0.74 0.66 0.65 0.61 0.58 0.58 0.60 0.57
1.49 1.65 1.61 1.60 1.60 1.57 1.53 1.48 1.60 1.53 1.26 1.17 1.32 1.27 1.14 0.98 0.93 0.92 0.93 1.02 1.12 1.10 1.11 0.95 0.81 0.59 0.43 0.45 0.53 0.76 1.04 1.19 1.11 1.02 1.04 0.92 0.71 0.63 0.62 0.60 0.57 0.60 0.60
1.72 1.76 1.95 2.05 2.02 2.11 2.08 1.90 2.03 2.02 1.67 1.42 1.59 1.85 1.59 1.39 1.01 0.91 0.94 0.98 1.09 1.21 1.27 1.12 0.92 0.76 0.66 0.58 0.41 0.48 0.66 0.99 1.20 1.10 1.11 1.10 0.83 0.65 0.59 0.58 0.57 0.58 0.60
1.87 1.89 2.00 2.17 2.19 2.25 2.32 2.39 2.33 2.40 2.18 1.80 1.70 1.94 1.77 1.64 1.44 1.02 0.95 1.06 1.18 1.28 1.36 1.37 1.21 0.96 0.89 0.84 0.62 0.44 0.41 0.52 0.93 1.08 1.09 1.08 0.90 0.71 0.61 0.57 0.55 0.56 0.58
2.06 2.13 2.15 2.25 2.27 2.29 2.38 2.48 2.44 2.54 2.59 2.21 1.95 1.73 1.55 1.52 1.60 1.36 1.13 1.10 1.27 1.33 1.37 1.42 1.41 1.23 1.06 1.04 0.88 0.65 0.45 0.37 0.59 0.99 1.16 1.11 0.95 0.84 0.71 0.64 0.57 0.54 0.58
2.17 2.20 2.27 2.42 2.40 2.37 2.35 2.56 2.62 2.69 2.61 2.52 2.36 2.18 2.02 1.76 1.40 1.46 1.46 1.31 1.25 1.19 1.26 1.39 1.53 1.45 1.29 1.19 1.21 0.91 0.63 0.43 0.43 0.81 1.12 1.25 1.14 1.08 0.96 0.85 0.74 0.66 0.61
2.20 2.10 2.02 2.16 2.22 2.25 2.24 2.41 2.58 2.71 2.69 2.71 2.61 2.31 2.22 2.08 1.70 1.63 1.50 1.40 1.42 1.25 1.18 1.25 1.32 1.31 1.33 1.28 1.22 1.18 0.86 0.59 0.44 0.59 0.90 1.05 1.16 1.25 1.22 1.13 1.03 0.90 0.78
2.02 2.05 1.95 1.95 1.98 1.93 1.97 2.08 2.14 2.22 2.36 2.51 2.41 2.19 2.14 1.97 1.92 1.91 1.80 1.58 1.41 1.21 1.20 1.18 1.18 1.16 1.15 1.18 1.26 1.37 1.00 0.69 0.48 0.43 0.58 0.73 0.83 1.01 1.21 1.31 1.26 1.19 1.11
1.72 1.80 1.80 1.75 1.79 1.83 1.84 1.91 1.92 1.92 1.95 2.02 2.02 2.09 2.13 1.99 1.91 1.83 1.82 1.96 1.73 1.49 1.35 1.21 1.19 1.19 1.14 1.14 1.31 1.38 1.05 0.82 0.59 0.47 0.43 0.48 0.57 0.74 0.95 1.17 1.29 1.36 1.34
1.28 1.34 1.44 1.51 1.61 1.66 1.72 1.85 1.91 1.90 1.86 1.83 1.93 1.98 1.92 1.90 1.88 1.77 1.73 1.81 1.88 1.74 1.61 1.43 1.29 1.21 1.24 1.21 1.31 1.13 1.05 0.94 0.74 0.64 0.54 0.47 0.47 0.53 0.61 0.82 0.99 1.03 1.09
0.94 1.00 1.11 1.28 1.50 1.62 1.66 1.73 1.78 1.86 1.89 1.85 1.92 2.01 2.01 2.02 2.04 1.96 1.82 1.78 1.72 1.74 1.66 1.44 1.25 1.15 1.29 1.19 1.30 1.13 1.08 1.18 0.95 0.77 0.67 0.60 0.53 0.51 0.50 0.58 0.69 0.70 0.69
0.78 0.89 0.95 1.09 1.24 1.43 1.61 1.76 1.77 1.76 1.80 1.78 1.72 1.80 1.90 2.01 2.12 2.14 2.10 1.97 1.83 1.79 1.70 1.53 1.33 1.19 1.32 1.37 1.31 1.25 1.16 1.07 1.00 0.90 0.77 0.75 0.68 0.56 0.53 0.56 0.64 0.63 0.60
0.62 0.71 0.84 1.05 1.16 1.25 1.30 1.38 1.46 1.49 1.51 1.56 1.55 1.52 1.60 1.72 1.86 2.00 2.07 2.01 2.01 1.91 1.81 1.76 1.58 1.34 1.23 1.30 1.34 1.41 1.33 1.14 1.05 1.09 0.99 0.87 0.81 0.70 0.61 0.55 0.60 0.59 0.56
0.61 0.66 0.80 0.95 1.01 1.06 1.10 1.12 1.22 1.30 1.31 1.29 1.34 1.31 1.33 1.43 1.57 1.69 1.77 1.85 1.97 2.00 1.99 1.89 1.79 1.59 1.36 1.37 1.40 1.39 1.40 1.47 1.26 1.16 1.15 1.09 1.01 0.92 0.85 0.73 0.66 0.62 0.58
0.62 0.69 0.84 0.94 0.95 0.91 1.00 1.03 1.08 1.12 1.09 1.04 1.07 1.08 1.13 1.17 1.24 1.36 1.50 1.71 1.90 2.01 2.07 2.05 1.95 1.72 1.54 1.52 1.50 1.47 1.52 1.57 1.53 1.33 1.24 1.17 1.20 1.13 1.00 0.89 0.79 0.72 0.67
0.64 0.71 0.76 0.87 0.92 0.90 0.93 0.99 0.98 0.93 0.92 0.91 0.87 0.78 0.80 0.86 0.87 0.95 1.01 1.29 1.54 1.76 1.89 1.96 1.92 1.78 1.57 1.47 1.37 1.40 1.52 1.66 1.73 1.67 1.58 1.32 1.25 1.19 1.13 1.04 0.93 0.82 0.75
0.53 0.58 0.64 0.80 0.91 0.82 0.93 0.92 0.85 0.78 0.75 0.79 0.76 0.69 0.67 0.71 0.62 0.59 0.63 0.85 1.14 1.34 1.53 1.71 1.76 1.63 1.50 1.42 1.47 1.47 1.46 1.49 1.52 1.45 1.45 1.46 1.38 1.28 1.19 1.11 1.09 1.02 0.93
0.47 0.52 0.56 0.73 0.83 0.91 0.85 0.70 0.74 0.74 0.74 0.77 0.79 0.80 0.73 0.69 0.76 0.67 0.62 0.69 0.77 0.89 1.04 1.30 1.53 1.52 1.61 1.53 1.44 1.38 1.38 1.40 1.40 1.45 1.46 1.46 1.37 1.26 1.15 1.11 1.22 1.13 1.06
0.44 0.49 0.55 0.59 0.67 0.80 0.74 0.59 0.63 0.63 0.74 0.81 0.84 0.93 0.94 0.87 0.84 0.92 0.87 0.88 0.85 0.78 0.84 0.76 0.98 1.36 1.49 1.54 1.49 1.51 1.58 1.51 1.39 1.39 1.40 1.43 1.38 1.28 1.13 1.04 1.12 1.03 0.94
0.48 0.50 0.55 0.58 0.64 0.68 0.64 0.57 0.60 0.67 0.79 0.82 0.79 0.90 0.94 0.88 0.92 0.97 1.10 1.16 1.09 0.94 1.04 1.05 0.97 1.08 1.22 1.27 1.37 1.46 1.50 1.41 1.36 1.29 1.18 1.16 1.12 1.16 1.20 1.11 1.07 1.09 0.97
0.47 0.48 0.47 0.47 0.52 0.55 0.60 0.50 0.61 0.73 0.78 0.80 0.81 0.87 1.01 0.93 0.90 0.88 0.97 1.11 1.09 0.97 0.85 0.88 0.86 0.76 0.70 0.81 1.01 1.17 1.42 1.51 1.43 1.32 1.15 1.08 1.09 1.06 1.09 1.03 0.94 0.97 0.94

GEFSMA_prec_meanprecacc_150.txt.gz
Total_Precipitation_Accumulation
0.77 0.71 0.59 0.62 0.57 0.60 0.66 0.70 0.73 0.72 0.76 0.75 0.75 0.75 0.77 0.73 0.68 0.66 0.80 0.98 1.36 1.54 1.34 1.10 0.90 0.79 0.77 0.77 0.79 0.98 1.17 1.32 1.32 1.39 1.48 1.60 1.50 1.32 1.19 1.07 1.10 1.13 1.03
0.71 0.74 0.69 0.70 0.71 0.69 0.69 0.69 0.67 0.77 0.81 0.79 0.77 0.77 0.78 0.69 0.68 0.76 0.90 0.96 0.99 1.18 1.47 1.44 1.27 1.07 0.94 0.85 0.83 0.94 1.10 1.21 1.20 1.29 1.37 1.45 1.37 1.15 1.04 1.00 1.16 1.02 0.88
0.68 0.74 0.76 0.77 0.79 0.79 0.79 0.80 0.80 0.86 0.82 0.82 0.83 0.78 0.73 0.68 0.68 0.76 0.80 0.86 0.71 0.66 0.95 1.32 1.47 1.34 1.23 1.11 0.97 0.99 1.04 1.15 1.11 1.24 1.32 1.35 1.19 1.06 0.97 1.01 1.09 0.97 0.84
0.71 0.79 0.81 0.85 0.91 0.83 0.80 0.87 0.92 0.96 0.92 0.92 0.93 0.81 0.68 0.70 0.70 0.75 0.84 0.85 0.79 0.62 0.65 0.76 0.94 1.08 1.32 1.43 1.24 1.18 1.11 1.06 1.03 1.17 1.25 1.17 1.00 0.94 0.95 1.00 0.98 0.91 0.85
0.88 0.96 0.99 1.03 1.05 1.07 0.99 0.88 0.90 0.97 1.03 1.04 0.96 0.89 0.75 0.74 0.78 0.79 0.96 0.97 0.87 0.75 0.73 0.59 0.57 0.65 0.87 1.19 1.28 1.31 1.21 1.06 0.99 1.05 1.09 0.96 0.89 0.83 0.83 0.87 0.83 0.77 0.77
1.16 1.26 1.24 1.19 1.26 1.34 1.35 1.14 1.18 1.12 1.07 1.12 1.04 0.96 0.91 0.86 0.87 0.92 0.97 1.02 1.04 0.89 0.86 0.71 0.59 0.44 0.53 0.79 1.03 1.20 1.31 1.20 1.05 1.04 1.06 0.87 0.80 0.79 0.72 0.70 0.72 0.71 0.69
1.49 1.65 1.61 1.60 1.60 1.58 1.54 1.48 1.60 1.53 1.26 1.17 1.32 1.28 1.15 1.00 0.95 0.94 0.94 1.04 1.14 1.13 1.13 0.97 0.82 0.62 0.46 0.49 0.59 0.83 1.14 1.34 1.28 1.18 1.18 1.03 0.81 0.73 0.73 0.71 0.69 0.70 0.73
1.72 1.76 1.95 2.05 2.02 2.11 2.09 1.90 2.03 2.03 1.67 1.42 1.60 1.85 1.60 1.40 1.03 0.93 0.96 0.99 1.11 1.23 1.29 1.15 0.95 0.79 0.68 0.61 0.44 0.52 0.73 1.16 1.36 1.26 1.27 1.24 0.95 0.75 0.68 0.69 0.69 0.69 0.71
1.88 1.89 2.00 2.17 2.19 2.25 2.32 2.39 2.33 2.40 2.18 1.81 1.70 1.95 1.78 1.65 1.46 1.04 0.96 1.07 1.19 1.29 1.37 1.39 1.25 0.99 0.91 0.86 0.64 0.47 0.53 0.73 1.11 1.25 1.25 1.28 1.07 0.83 0.70 0.66 0.66 0.66 0.68
2.07 2.13 2.15 2.25 2.27 2.29 2.38 2.48 2.44 2.55 2.59 2.21 1.95 1.74 1.55 1.54 1.62 1.37 1.14 1.11 1.28 1.34 1.37 1.43 1.44 1.27 1.07 1.06 0.90 0.68 0.60 0.61 0.86 1.21 1.35 1.30 1.17 1.01 0.82 0.73 0.67 0.65 0.69
2.17 2.20 2.27 2.42 2.41 2.38 2.35 2.56 2.62 2.69 2.61 2.52 2.36 2.19 2.02 1.77 1.42 1.47 1.47 1.32 1.26 1.19 1.26 1.40 1.54 1.47 1.30 1.22 1.23 0.93 0.66 0.52 0.59 1.00 1.32 1.43 1.32 1.24 1.08 0.94 0.83 0.75 0.71
2.20 2.10 2.02 2.16 2.22 2.25 2.24 2.41 2.59 2.71 2.70 2.71 2.61 2.31 2.22 2.09 1.73 1.66 1.52 1.41 1.42 1.25 1.19 1.25 1.32 1.31 1.34 1.30 1.24 1.21 0.89 0.61 0.49 0.67 1.03 1.21 1.31 1.39 1.35 1.23 1.12 0.99 0.85
2.02 2.05 1.95 1.95 1.98 1.93 1.97 2.08 2.14 2.22 2.36 2.51 2.42 2.19 2.14 1.98 1.95 1.95 1.83 1.59 1.41 1.21 1.22 1.20 1.19 1.17 1.16 1.19 1.28 1.39 1.03 0.72 0.51 0.48 0.65 0.83 0.94 1.14 1.34 1.44 1.39 1.30 1.20
1.72 1.80 1.80 1.75 1.79 1.83 1.84 1.91 1.92 1.92 1.95 2.02 2.02 2.09 2.13 2.00 1.93 1.84 1.84 1.97 1.73 1.49 1.36 1.24 1.22 1.20 1.14 1.15 1.32 1.40 1.07 0.84 0.61 0.50 0.46 0.52 0.63 0.83 1.05 1.30 1.43 1.51 1.47
1.28 1.34 1.44 1.51 1.61 1.66 1.72 1.85 1.91 1.90 1.86 1.83 1.93 1.98 1.92 1.90 1.88 1.78 1.73 1.82 1.88 1.74 1.63 1.46 1.31 1.23 1.24 1.21 1.32 1.14 1.07 0.97 0.76 0.67 0.57 0.49 0.49 0.57 0.68 0.90 1.09 1.14 1.20
0.94 1.00 1.11 1.28 1.50 1.62 1.66 1.73 1.78 1.86 1.89 1.85 1.92 2.01 2.01 2.02 2.04 1.96 1.83 1.78 1.72 1.75 1.67 1.46 1.26 1.17 1.30 1.20 1.30 1.13 1.09 1.21 0.96 0.79 0.71 0.63 0.56 0.53 0.53 0.62 0.75 0.78 0.77
0.78 0.89 0.95 1.09 1.25 1.43 1.61 1.76 1.77 1.76 1.80 1.78 1.72 1.80 1.90 2.01 2.12 2.14 2.11 1.97 1.83 1.80 1.71 1.55 1.34 1.20 1.33 1.38 1.31 1.26 1.17 1.08 1.02 0.93 0.82 0.80 0.73 0.60 0.58 0.60 0.68 0.69 0.66
0.62 0.71 0.84 1.05 1.16 1.25 1.30 1.38 1.46 1.49 1.52 1.56 1.55 1.52 1.60 1.72 1.86 2.00 2.08 2.02 2.01 1.92 1.82 1.78 1.59 1.34 1.24 1.31 1.35 1.42 1.35 1.15 1.06 1.10 1.03 0.94 0.88 0.74 0.65 0.60 0.64 0.64 0.61
0.61 0.66 0.80 0.95 1.01 1.06 1.10 1.12 1.22 1.30 1.31 1.29 1.34 1.31 1.33 1.43 1.57 1.69 1.77 1.85 1.97 2.01 2.00 1.90 1.80 1.60 1.37 1.38 1.42 1.41 1.43 1.50 1.27 1.16 1.17 1.13 1.06 0.97 0.89 0.77 0.71 0.67 0.61
0.62 0.69 0.84 0.94 0.95 0.91 1.00 1.03 1.08 1.12 1.09 1.04 1.07 1.08 1.13 1.17 1.24 1.36 1.50 1.71 1.90 2.01 2.08 2.06 1.97 1.74 1.55 1.53 1.51 1.49 1.54 1.60 1.57 1.36 1.25 1.18 1.23 1.17 1.05 0.93 0.85 0.79 0.72
0.64 0.71 0.76 0.87 0.92 0.90 0.93 0.99 0.98 0.93 0.92 0.91 0.87 0.78 0.80 0.86 0.87 0.95 1.01 1.29 1.54 1.76 1.90 1.98 1.95 1.81 1.60 1.48 1.37 1.41 1.53 1.68 1.75 1.70 1.60 1.34 1.26 1.21 1.16 1.09 0.99 0.89 0.82
0.53 0.58 0.64 0.80 0.91 0.82 0.93 0.92 0.85 0.78 0.75 0.79 0.76 0.69 0.67 0.71 0.62 0.59 0.63 0.85 1.14 1.34 1.53 1.71 1.77 1.65 1.52 1.43 1.47 1.48 1.47 1.51 1.54 1.47 1.46 1.48 1.40 1.30 1.21 1.14 1.14 1.09 1.01
0.47 0.52 0.56 0.73 0.83 0.91 0.85 0.70 0.74 0.74 0.74 0.77 0.79 0.80 0.73 0.69 0.76 0.67 0.62 0.69 0.77 0.89 1.04 1.31 1.53 1.52 1.61 1.53 1.44 1.39 1.39 1.42 1.43 1.49 1.49 1.49 1.39 1.28 1.16 1.13 1.26 1.18 1.14
0.44 0.49 0.55 0.59 0.67 0.80 0.74 0.59 0.63 0.63 0.74 0.81 0.84 0.93 0.94 0.87 0.85 0.92 0.87 0.88 0.85 0.78 0.84 0.77 0.98 1.36 1.50 1.55 1.49 1.51 1.59 1.51 1.40 1.44 1.45 1.46 1.40 1.29 1.15 1.06 1.15 1.07 0.99
0.48 0.50 0.55 0.58 0.64 0.68 0.64 0.57 0.60 0.67 0.80 0.82 0.79 0.90 0.94 0.88 0.92 0.98 1.11 1.17 1.09 0.94 1.04 1.05 0.97 1.08 1.22 1.28 1.38 1.47 1.51 1.43 1.38 1.32 1.22 1.20 1.15 1.18 1.24 1.15 1.10 1.13 1.02
0.47 0.48 0.47 0.47 0.52 0.55 0.60 0.50 0.61 0.73 0.78 0.80 0.81 0.87 1.01 0.93 0.90 0.88 0.97 1.11 1.10 0.98 0.85 0.89 0.86 0.76 0.71 0.82 1.01 1.17 1.43 1.52 1.45 1.35 1.18 1.12 1.14 1.10 1.13 1.08 0.99 1.02 1.00

GEFSMA_prec_meanprecacc_156.txt.gz
Total_Precipitation_Accumulation
0.77 0.71 0.59 0.62 0.57 0.60 0.67 0.70 0.73 0.73 0.77 0.76 0.75 0.76 0.78 0.75 0.68 0.66 0.81 1.00 1.39 1.57 1.39 1.15 0.95 0.85 0.84 0.84 0.86 1.04 1.24 1.39 1.40 1.45 1.54 1.66 1.55 1.40 1.38 1.26 1.26 1.24 1.12
0.71 0.74 0.69 0.70 0.71 0.69 0.69 0.69 0.67 0.78 0.82 0.80 0.79 0.79 0.79 0.70 0.69 0.77 0.91 0.97 1.00 1.21 1.52 1.49 1.31 1.11 0.99 0.90 0.89 1.00 1.17 1.30 1.28 1.37 1.44 1.51 1.43 1.24 1.17 1.21 1.36 1.17 0.97
0.68 0.74 0.77 0.77 0.79 0.80 0.79 0.80 0.80 0.86 0.83 0.84 0.85 0.80 0.75 0.69 0.69 0.77 0.81 0.87 0.72 0.67 0.98 1.36 1.50 1.37 1.27 1.17 1.03 1.05 1.13 1.27 1.22 1.33 1.42 1.46 1.32 1.19 1.08 1.17 1.28 1.12 0.93
0.71 0.79 0.81 0.85 0.92 0.84 0.80 0.87 0.92 0.97 0.92 0.94 0.95 0.83 0.70 0.73 0.72 0.76 0.85 0.86 0.81 0.64 0.67 0.78 0.96 1.11 1.36 1.49 1.30 1.24 1.21 1.20 1.14 1.28 1.38 1.36 1.23 1.15 1.07 1.15 1.15 1.07 0.98
0.88 0.96 1.00 1.03 1.06 1.07 0.99 0.89 0.91 0.97 1.04 1.05 0.97 0.90 0.77 0.76 0.80 0.81 0.98 0.98 0.89 0.78 0.76 0.61 0.58 0.67 0.90 1.23 1.33 1.40 1.33 1.20 1.11 1.16 1.23 1.13 1.16 1.11 0.99 1.01 1.01 0.95 0.92
1.16 1.26 1.24 1.20 1.26 1.35 1.36 1.15 1.19 1.13 1.08 1.14 1.05 0.97 0.92 0.87 0.88 0.94 0.98 1.03 1.06 0.92 0.89 0.73 0.62 0.46 0.54 0.81 1.10 1.41 1.49 1.39 1.20 1.16 1.19 1.01 1.00 1.04 0.89 0.82 0.86 0.87 0.83
1.50 1.66 1.62 1.60 1.61 1.59 1.55 1.48 1.61 1.54 1.27 1.19 1.35 1.31 1.17 1.01 0.97 0.96 0.96 1.06 1.16 1.16 1.16 1.00 0.85 0.64 0.47 0.50 0.64 1.07 1.36 1.51 1.44 1.30 1.31 1.19 0.97 0.92 0.89 0.83 0.81 0.85 0.87
1.72 1.76 1.96 2.06 2.04 2.13 2.10 1.91 2.04 2.03 1.68 1.43 1.63 1.90 1.63 1.43 1.06 0.95 0.98 1.01 1.12 1.25 1.32 1.18 0.98 0.82 0.71 0.63 0.48 0.66 0.89 1.28 1.49 1.38 1.39 1.39 1.09 0.88 0.81 0.80 0.80 0.82 0.93
1.88 1.90 2.01 2.17 2.20 2.26 2.34 2.41 2.34 2.42 2.20 1.82 1.72 1.96 1.81 1.68 1.49 1.08 0.98 1.08 1.21 1.32 1.39 1.41 1.27 1.02 0.93 0.89 0.69 0.53 0.60 0.79 1.20 1.37 1.38 1.41 1.20 0.94 0.80 0.76 0.76 0.77 0.84
2.07 2.13 2.15 2.25 2.28 2.30 2.39 2.49 2.44 2.56 2.61 2.23 1.97 1.75 1.56 1.56 1.65 1.40 1.16 1.12 1.29 1.36 1.39 1.44 1.46 1.29 1.11 1.09 0.94 0.71 0.64 0.67 0.95 1.34 1.49 1.44 1.29 1.13 0.93 0.84 0.78 0.76 0.81
2.18 2.21 2.28 2.43 2.42 2.39 2.36 2.57 2.62 2.70 2.62 2.53 2.38 2.20 2.03 1.78 1.44 1.50 1.50 1.35 1.27 1.20 1.27 1.40 1.55 1.49 1.33 1.24 1.27 0.97 0.69 0.57 0.69 1.19 1.48 1.61 1.47 1.39 1.29 1.14 0.98 0.88 0.83
2.20 2.10 2.03 2.16 2.23 2.26 2.25 2.42 2.60 2.72 2.71 2.72 2.62 2.32 2.24 2.11 1.75 1.68 1.55 1.43 1.43 1.26 1.19 1.26 1.33 1.32 1.35 1.31 1.25 1.24 0.91 0.65 0.56 0.86 1.26 1.41 1.50 1.56 1.57 1.52 1.32 1.14 1.00
2.02 2.05 1.95 1.95 1.98 1.93 1.97 2.08 2.15 2.23 2.37 2.52 2.43 2.20 2.15 2.00 1.97 1.97 1.84 1.60 1.42 1.22 1.22 1.20 1.20 1.17 1.17 1.20 1.29 1.41 1.05 0.74 0.56 0.61 0.90 1.06 1.15 1.35 1.54 1.65 1.59 1.46 1.35
1.72 1.80 1.80 1.75 1.79 1.83 1.84 1.91 1.92 1.93 1.96 2.03 2.03 2.10 2.14 2.01 1.95 1.87 1.86 1.99 1.74 1.50 1.37 1.25 1.23 1.21 1.15 1.15 1.33 1.41 1.08 0.86 0.64 0.56 0.56 0.68 0.81 1.01 1.25 1.48 1.61 1.69 1.65
1.28 1.34 1.44 1.51 1.61 1.66 1.72 1.85 1.91 1.91 1.86 1.84 1.94 1.99 1.93 1.92 1.90 1.79 1.74 1.84 1.90 1.76 1.64 1.48 1.33 1.24 1.26 1.21 1.32 1.15 1.08 0.97 0.77 0.68 0.59 0.53 0.56 0.66 0.80 1.05 1.23 1.29 1.38
0.94 1.00 1.11 1.28 1.50 1.62 1.66 1.73 1.78 1.86 1.90 1.85 1.92 2.02 2.02 2.03 2.06 1.98 1.84 1.79 1.73 1.76 1.69 1.47 1.28 1.18 1.31 1.20 1.31 1.13 1.10 1.21 0.97 0.80 0.72 0.65 0.59 0.57 0.58 0.69 0.83 0.86 0.89
0.78 0.89 0.95 1.09 1.25 1.43 1.61 1.76 1.77 1.76 1.80 1.78 1.72 1.80 1.91 2.02 2.14 2.15 2.12 1.98 1.84 1.81 1.72 1.57 1.36 1.22 1.34 1.39 1.32 1.27 1.17 1.09 1.03 0.94 0.84 0.82 0.74 0.62 0.61 0.65 0.74 0.76 0.75
0.62 0.71 0.84 1.05 1.16 1.25 1.30 1.38 1.46 1.50 1.52 1.57 1.55 1.52 1.60 1.72 1.87 2.01 2.09 2.03 2.02 1.93 1.83 1.79 1.61 1.36 1.25 1.32 1.36 1.43 1.35 1.16 1.08 1.12 1.04 0.95 0.90 0.76 0.68 0.64 0.68 0.70 0.68
0.61 0.66 0.80 0.95 1.01 1.06 1.10 1.12 1.22 1.31 1.31 1.30 1.34 1.31 1.33 1.43 1.57 1.70 1.78 1.86 1.97 2.01 2.00 1.91 1.82 1.63 1.39 1.39 1.43 1.42 1.43 1.51 1.28 1.18 1.18 1.15 1.08 1.00 0.93 0.83 0.76 0.72 0.67
0.62 0.69 0.84 0.94 0.95 0.91 1.00 1.03 1.08 1.12 1.09 1.04 1.07 1.08 1.13 1.17 1.24 1.37 1.51 1.71 1.91 2.02 2.08 2.08 1.98 1.75 1.57 1.54 1.52 1.50 1.55 1.61 1.59 1.37 1.27 1.20 1.25 1.19 1.08 1.00 0.92 0.84 0.77
0.64 0.71 0.76 0.87 0.92 0.90 0.93 0.99 0.98 0.93 0.92 0.92 0.87 0.78 0.80 0.86 0.87 0.96 1.01 1.30 1.55 1.77 1.91 1.99 1.96 1.82 1.60 1.49 1.38 1.42 1.54 1.70 1.78 1.72 1.62 1.35 1.28 1.23 1.18 1.14 1.06 0.97 0.88
0.53 0.58 0.64 0.80 0.91 0.82 0.93 0.92 0.85 0.78 0.75 0.79 0.77 0.69 0.67 0.71 0.63 0.59 0.63 0.85 1.14 1.35 1.54 1.72 1.78 1.66 1.52 1.44 1.48 1.49 1.48 1.53 1.56 1.49 1.48 1.49 1.41 1.31 1.22 1.17 1.19 1.18 1.09
0.47 0.52 0.56 0.73 0.83 0.91 0.85 0.70 0.74 0.74 0.74 0.77 0.79 0.81 0.73 0.69 0.76 0.68 0.62 0.69 0.78 0.89 1.05 1.31 1.53 1.52 1.62 1.54 1.45 1.39 1.40 1.43 1.44 1.50 1.50 1.50 1.40 1.30 1.18 1.14 1.28 1.23 1.22
0.44 0.49 0.55 0.59 0.67 0.80 0.74 0.59 0.63 0.63 0.74 0.81 0.84 0.93 0.94 0.88 0.85 0.92 0.88 0.88 0.85 0.78 0.84 0.77 0.98 1.36 1.50 1.55 1.50 1.52 1.60 1.53 1.41 1.45 1.47 1.48 1.41 1.30 1.16 1.07 1.17 1.10 1.04
0.48 0.50 0.55 0.58 0.64 0.68 0.64 0.57 0.60 0.67 0.80 0.82 0.79 0.90 0.94 0.88 0.92 0.98 1.11 1.17 1.09 0.94 1.05 1.06 0.98 1.08 1.22 1.28 1.39 1.48 1.53 1.45 1.40 1.33 1.24 1.21 1.17 1.20 1.24 1.16 1.12 1.16 1.06
0.47 0.48 0.47 0.47 0.52 0.55 0.60 0.50 0.61 0.73 0.78 0.80 0.81 0.87 1.01 0.93 0.90 0.88 0.97 1.12 1.11 0.98 0.86 0.89 0.86 0.76 0.71 0.82 1.01 1.17 1.44 1.54 1.47 1.36 1.19 1.13 1.15 1.12 1.15 1.09 1.00 1.04 1.02

GEFSMA_prec_meanprecacc_162.txt.gz
Total_Precipitation_Accumulation
0.77 0.71 0.60 0.62 0.57 0.60 0.67 0.71 0.74 0.74 0.78 0.76 0.76 0.77 0.79 0.76 0.70 0.68 0.82 1.00 1.39 1.59 1.43 1.21 1.01 0.91 0.91 0.91 0.92 1.09 1.27 1.43 1.45 1.52 1.62 1.73 1.62 1.46 1.42 1.32 1.32 1.30 1.17
0.71 0.74 0.69 0.70 0.71 0.69 0.69 0.69 0.68 0.78 0.83 0.81 0.81 0.82 0.81 0.71 0.70 0.79 0.93 0.98 1.01 1.22 1.54 1.51 1.34 1.15 1.06 0.97 0.95 1.05 1.20 1.33 1.33 1.42 1.49 1.56 1.49 1.29 1.21 1.29 1.44 1.25 1.04
0.68 0.74 0.77 0.78 0.79 0.80 0.79 0.80 0.80 0.87 0.84 0.87 0.89 0.82 0.78 0.71 0.72 0.79 0.84 0.91 0.75 0.68 1.00 1.38 1.52 1.40 1.33 1.23 1.07 1.09 1.19 1.32 1.26 1.38 1.46 1.51 1.36 1.23 1.12 1.25 1.40 1.26 1.07
0.71 0.79 0.82 0.86 0.92 0.84 0.80 0.87 0.92 0.98 0.94 0.96 0.98 0.86 0.72 0.76 0.75 0.78 0.88 0.90 0.85 0.68 0.69 0.80 0.98 1.13 1.40 1.53 1.33 1.28 1.26 1.25 1.19 1.32 1.43 1.40 1.27 1.20 1.13 1.23 1.25 1.23 1.16
0.89 0.96 1.01 1.04 1.06 1.08 1.00 0.89 0.92 0.99 1.07 1.09 1.00 0.92 0.79 0.79 0.82 0.83 1.00 1.01 0.92 0.81 0.79 0.63 0.59 0.68 0.92 1.28 1.36 1.44 1.38 1.27 1.18 1.22 1.30 1.19 1.20 1.16 1.04 1.09 1.12 1.07 1.06
1.16 1.27 1.25 1.20 1.27 1.36 1.38 1.17 1.21 1.16 1.11 1.18 1.08 0.99 0.95 0.90 0.90 0.96 1.01 1.07 1.09 0.94 0.93 0.77 0.65 0.47 0.55 0.83 1.13 1.45 1.54 1.46 1.28 1.23 1.33 1.14 1.08 1.11 0.94 0.91 0.96 1.00 0.97
1.50 1.66 1.63 1.61 1.63 1.61 1.57 1.51 1.64 1.58 1.31 1.21 1.40 1.36 1.21 1.04 0.99 0.98 0.99 1.12 1.21 1.20 1.21 1.04 0.89 0.68 0.50 0.51 0.65 1.11 1.42 1.60 1.55 1.41 1.49 1.41 1.14 1.04 0.96 0.90 0.92 0.97 1.01
1.73 1.77 1.97 2.07 2.05 2.15 2.12 1.93 2.07 2.07 1.70 1.46 1.68 1.96 1.69 1.47 1.09 0.98 1.02 1.05 1.17 1.30 1.36 1.20 1.01 0.85 0.75 0.68 0.51 0.67 0.94 1.36 1.59 1.48 1.56 1.66 1.35 1.07 0.94 0.92 0.92 0.97 1.08
1.88 1.90 2.01 2.18 2.21 2.27 2.35 2.42 2.37 2.46 2.23 1.85 1.74 2.01 1.88 1.75 1.54 1.13 1.03 1.12 1.26 1.36 1.43 1.44 1.29 1.04 0.96 0.95 0.74 0.57 0.67 0.84 1.26 1.45 1.48 1.61 1.44 1.13 0.94 0.92 0.91 0.91 1.01
2.07 2.14 2.16 2.26 2.30 2.32 2.41 2.51 2.46 2.59 2.64 2.26 2.00 1.78 1.60 1.60 1.71 1.47 1.21 1.16 1.32 1.38 1.42 1.47 1.49 1.32 1.14 1.15 0.99 0.77 0.75 0.79 1.00 1.41 1.58 1.56 1.47 1.28 1.05 0.99 0.96 0.90 0.95
2.18 2.22 2.28 2.44 2.43 2.40 2.38 2.59 2.64 2.72 2.64 2.56 2.41 2.24 2.08 1.83 1.49 1.57 1.57 1.40 1.30 1.22 1.30 1.43 1.58 1.52 1.37 1.30 1.33 1.02 0.79 0.72 0.76 1.25 1.57 1.71 1.61 1.51 1.41 1.31 1.16 1.02 0.96
2.21 2.10 2.03 2.17 2.24 2.27 2.25 2.43 2.61 2.74 2.73 2.75 2.65 2.36 2.30 2.16 1.81 1.74 1.60 1.48 1.47 1.28 1.22 1.28 1.35 1.36 1.38 1.35 1.29 1.26 0.97 0.74 0.62 0.90 1.33 1.49 1.63 1.69 1.69 1.70 1.51 1.31 1.20
2.03 2.06 1.96 1.95 1.98 1.93 1.98 2.09 2.16 2.24 2.38 2.54 2.44 2.23 2.18 2.03 2.01 2.01 1.88 1.64 1.45 1.24 1.25 1.22 1.21 1.20 1.20 1.23 1.32 1.42 1.07 0.78 0.59 0.64 0.96 1.14 1.25 1.47 1.67 1.78 1.75 1.65 1.55
1.72 1.80 1.81 1.75 1.79 1.84 1.85 1.92 1.93 1.94 1.97 2.04 2.04 2.12 2.17 2.04 1.97 1.89 1.88 2.02 1.78 1.53 1.39 1.26 1.24 1.24 1.18 1.18 1.35 1.43 1.10 0.87 0.66 0.57 0.61 0.79 0.93 1.16 1.41 1.63 1.75 1.84 1.80
1.28 1.34 1.44 1.52 1.61 1.66 1.72 1.86 1.93 1.92 1.87 1.84 1.95 2.01 1.95 1.94 1.91 1.80 1.77 1.88 1.95 1.81 1.68 1.50 1.35 1.26 1.27 1.23 1.34 1.18 1.10 0.99 0.79 0.69 0.61 0.57 0.64 0.79 0.95 1.19 1.36 1.41 1.50
0.94 1.00 1.11 1.28 1.50 1.63 1.67 1.74 1.79 1.87 1.90 1.86 1.93 2.02 2.03 2.04 2.07 1.99 1.86 1.82 1.76 1.80 1.72 1.49 1.30 1.19 1.32 1.21 1.33 1.15 1.11 1.22 0.99 0.81 0.73 0.66 0.60 0.60 0.64 0.78 0.92 0.96 0.99
0.78 0.89 0.95 1.09 1.25 1.43 1.61 1.76 1.77 1.77 1.81 1.79 1.73 1.81 1.92 2.03 2.16 2.17 2.15 2.02 1.87 1.83 1.75 1.59 1.38 1.23 1.35 1.40 1.34 1.28 1.19 1.11 1.05 0.95 0.85 0.83 0.76 0.63 0.63 0.67 0.78 0.80 0.79
0.62 0.71 0.84 1.05 1.16 1.25 1.30 1.38 1.46 1.50 1.53 1.58 1.56 1.54 1.62 1.73 1.88 2.03 2.10 2.05 2.04 1.95 1.85 1.81 1.63 1.38 1.27 1.33 1.37 1.45 1.37 1.18 1.11 1.13 1.05 0.96 0.91 0.77 0.68 0.64 0.69 0.72 0.70
0.61 0.66 0.80 0.95 1.01 1.06 1.10 1.12 1.22 1.31 1.32 1.30 1.35 1.32 1.34 1.44 1.58 1.72 1.80 1.87 1.99 2.03 2.02 1.93 1.84 1.65 1.41 1.40 1.44 1.43 1.45 1.54 1.31 1.20 1.20 1.16 1.09 1.00 0.93 0.84 0.77 0.73 0.68
0.62 0.69 0.84 0.94 0.95 0.91 1.00 1.03 1.08 1.12 1.09 1.04 1.08 1.09 1.14 1.18 1.26 1.38 1.52 1.73 1.93 2.04 2.11 2.10 2.00 1.77 1.60 1.56 1.53 1.52 1.57 1.65 1.63 1.41 1.30 1.22 1.26 1.20 1.08 1.00 0.93 0.85 0.78
0.64 0.71 0.76 0.87 0.92 0.90 0.93 0.99 0.98 0.93 0.92 0.92 0.88 0.79 0.81 0.87 0.88 0.96 1.02 1.30 1.56 1.79 1.93 2.00 1.98 1.84 1.62 1.51 1.40 1.43 1.56 1.73 1.81 1.76 1.66 1.39 1.30 1.25 1.19 1.15 1.08 0.99 0.90
0.53 0.58 0.64 0.80 0.91 0.82 0.93 0.92 0.85 0.78 0.75 0.79 0.77 0.70 0.68 0.72 0.63 0.60 0.63 0.85 1.15 1.36 1.55 1.73 1.79 1.67 1.54 1.45 1.50 1.50 1.50 1.56 1.59 1.52 1.52 1.53 1.44 1.34 1.25 1.19 1.20 1.19 1.11
0.47 0.52 0.56 0.73 0.83 0.91 0.85 0.70 0.74 0.74 0.74 0.77 0.79 0.81 0.74 0.69 0.77 0.68 0.62 0.69 0.78 0.89 1.05 1.32 1.54 1.54 1.63 1.55 1.46 1.41 1.42 1.46 1.47 1.53 1.54 1.53 1.43 1.34 1.21 1.16 1.30 1.24 1.24
0.44 0.49 0.55 0.59 0.67 0.80 0.74 0.59 0.63 0.63 0.74 0.81 0.84 0.93 0.94 0.88 0.85 0.93 0.88 0.89 0.85 0.78 0.85 0.77 0.99 1.37 1.51 1.56 1.51 1.54 1.63 1.56 1.45 1.48 1.50 1.51 1.44 1.32 1.18 1.09 1.18 1.11 1.06
0.48 0.50 0.55 0.58 0.64 0.68 0.64 0.57 0.60 0.67 0.80 0.82 0.79 0.90 0.94 0.88 0.92 0.98 1.11 1.17 1.10 0.94 1.05 1.06 0.98 1.09 1.23 1.29 1.39 1.49 1.55 1.48 1.43 1.36 1.26 1.23 1.18 1.21 1.26 1.16 1.12 1.17 1.08
0.47 0.48 0.47 0.47 0.52 0.55 0.60 0.50 0.61 0.73 0.78 0.80 0.81 0.87 1.01 0.93 0.90 0.88 0.97 1.12 1.11 0.98 0.86 0.90 0.87 0.77 0.71 0.82 1.01 1.18 1.46 1.56 1.50 1.40 1.21 1.15 1.16 1.14 1.17 1.10 1.01 1.05 1.04

GEFSMA_prec_meanprecacc_168.txt.gz
Total_Precipitation_Accumulation
0.77 0.71 0.60 0.62 0.57 0.60 0.67 0.71 0.75 0.76 0.80 0.77 0.76 0.79 0.80 0.77 0.70 0.68 0.83 1.01 1.40 1.61 1.45 1.23 1.07 1.03 1.01 0.98 0.99 1.17 1.35 1.51 1.52 1.56 1.66 1.78 1.65 1.48 1.45 1.35 1.36 1.32 1.20
0.71 0.74 0.69 0.70 0.71 0.69 0.69 0.69 0.68 0.79 0.84 0.83 0.82 0.83 0.82 0.72 0.71 0.79 0.94 0.99 1.01 1.23 1.56 1.55 1.39 1.22 1.13 1.02 1.00 1.11 1.26 1.38 1.36 1.45 1.53 1.59 1.51 1.30 1.22 1.32 1.47 1.28 1.06
0.68 0.74 0.77 0.78 0.79 0.80 0.79 0.80 0.81 0.88 0.85 0.88 0.90 0.84 0.80 0.73 0.73 0.80 0.85 0.92 0.75 0.69 1.01 1.42 1.57 1.45 1.39 1.28 1.12 1.14 1.23 1.36 1.30 1.42 1.49 1.53 1.39 1.25 1.13 1.27 1.44 1.31 1.11
0.71 0.80 0.82 0.86 0.92 0.84 0.81 0.88 0.93 0.98 0.95 0.98 1.01 0.88 0.75 0.79 0.77 0.79 0.90 0.92 0.85 0.68 0.71 0.83 1.03 1.20 1.46 1.58 1.38 1.32 1.30 1.29 1.22 1.36 1.46 1.42 1.29 1.22 1.15 1.25 1.28 1.28 1.24
0.89 0.96 1.01 1.04 1.06 1.08 1.00 0.90 0.92 0.99 1.09 1.12 1.03 0.94 0.82 0.82 0.85 0.84 1.01 1.02 0.93 0.82 0.80 0.65 0.63 0.74 0.97 1.32 1.41 1.48 1.42 1.30 1.21 1.27 1.33 1.23 1.23 1.18 1.06 1.12 1.17 1.12 1.15
1.17 1.27 1.25 1.21 1.27 1.36 1.38 1.18 1.22 1.18 1.13 1.20 1.09 1.01 0.98 0.91 0.92 0.98 1.03 1.09 1.11 0.96 0.95 0.78 0.66 0.49 0.58 0.86 1.15 1.49 1.59 1.50 1.32 1.28 1.36 1.17 1.12 1.14 0.97 0.94 1.02 1.06 1.03
1.50 1.67 1.64 1.62 1.63 1.61 1.57 1.51 1.64 1.58 1.32 1.23 1.41 1.38 1.24 1.07 1.03 1.02 1.03 1.15 1.24 1.23 1.23 1.05 0.90 0.69 0.51 0.52 0.67 1.13 1.46 1.65 1.60 1.46 1.56 1.47 1.18 1.07 1.00 0.95 0.97 1.03 1.07
1.73 1.77 1.97 2.08 2.05 2.15 2.12 1.94 2.07 2.07 1.71 1.47 1.68 1.97 1.70 1.49 1.12 1.02 1.07 1.10 1.19 1.33 1.40 1.23 1.02 0.86 0.76 0.69 0.52 0.69 0.98 1.41 1.66 1.56 1.75 1.86 1.43 1.13 0.99 0.96 0.97 1.05 1.18
1.88 1.90 2.01 2.18 2.21 2.27 2.36 2.43 2.37 2.46 2.24 1.86 1.74 2.01 1.88 1.75 1.56 1.17 1.08 1.17 1.31 1.40 1.47 1.46 1.30 1.05 0.97 0.97 0.75 0.59 0.69 0.87 1.33 1.54 1.73 2.04 1.73 1.28 1.02 0.98 0.97 0.97 1.12
2.07 2.14 2.16 2.27 2.30 2.32 2.41 2.51 2.47 2.60 2.64 2.27 2.00 1.79 1.61 1.61 1.72 1.48 1.23 1.20 1.37 1.42 1.44 1.48 1.50 1.33 1.15 1.15 1.00 0.78 0.77 0.81 1.04 1.48 1.76 1.97 1.92 1.53 1.16 1.08 1.10 1.01 1.05
2.18 2.22 2.28 2.44 2.43 2.41 2.38 2.59 2.64 2.72 2.65 2.56 2.41 2.25 2.09 1.84 1.50 1.57 1.58 1.43 1.33 1.26 1.33 1.45 1.60 1.54 1.38 1.31 1.34 1.03 0.80 0.78 0.82 1.30 1.66 1.96 1.95 1.75 1.55 1.43 1.34 1.24 1.07
2.22 2.12 2.03 2.17 2.24 2.27 2.26 2.44 2.61 2.74 2.73 2.75 2.66 2.37 2.30 2.16 1.82 1.75 1.61 1.49 1.48 1.31 1.26 1.32 1.39 1.39 1.40 1.36 1.29 1.27 0.99 0.81 0.76 1.01 1.39 1.63 1.85 1.87 1.83 1.82 1.68 1.57 1.36
2.04 2.09 1.97 1.95 1.98 1.94 1.98 2.10 2.16 2.24 2.39 2.54 2.45 2.24 2.19 2.04 2.02 2.02 1.89 1.65 1.47 1.26 1.27 1.25 1.25 1.23 1.21 1.25 1.33 1.43 1.09 0.84 0.71 0.79 1.06 1.23 1.40 1.64 1.80 1.90 1.90 1.84 1.72
1.73 1.82 1.81 1.76 1.80 1.84 1.85 1.93 1.94 1.95 1.97 2.05 2.05 2.13 2.18 2.05 1.98 1.90 1.91 2.04 1.80 1.55 1.40 1.28 1.27 1.28 1.21 1.19 1.36 1.44 1.11 0.90 0.72 0.66 0.70 0.85 1.06 1.36 1.56 1.74 1.87 1.99 1.95
1.28 1.35 1.45 1.52 1.61 1.66 1.72 1.86 1.93 1.92 1.87 1.85 1.95 2.01 1.96 1.94 1.91 1.81 1.78 1.90 1.96 1.81 1.68 1.51 1.37 1.29 1.30 1.25 1.35 1.19 1.11 1.00 0.81 0.72 0.64 0.60 0.71 0.97 1.11 1.30 1.45 1.50 1.61
0.94 1.00 1.11 1.28 1.50 1.63 1.67 1.74 1.79 1.87 1.90 1.86 1.93 2.03 2.04 2.04 2.07 1.99 1.87 1.83 1.76 1.80 1.72 1.50 1.31 1.21 1.34 1.23 1.35 1.17 1.11 1.23 1.00 0.82 0.74 0.68 0.63 0.67 0.76 0.85 0.99 1.04 1.07
0.78 0.90 0.95 1.09 1.25 1.43 1.61 1.76 1.78 1.78 1.81 1.79 1.73 1.82 1.94 2.03 2.16 2.18 2.16 2.03 1.88 1.84 1.75 1.59 1.38 1.24 1.37 1.43 1.37 1.31 1.21 1.12 1.06 0.97 0.87 0.84 0.77 0.65 0.71 0.75 0.83 0.85 0.85
0.62 0.71 0.85 1.05 1.16 1.25 1.30 1.38 1.46 1.51 1.54 1.58 1.57 1.55 1.62 1.74 1.89 2.04 2.12 2.06 2.05 1.95 1.85 1.81 1.64 1.38 1.28 1.35 1.40 1.47 1.40 1.20 1.13 1.16 1.07 0.98 0.92 0.78 0.71 0.70 0.75 0.75 0.73
0.61 0.66 0.80 0.95 1.01 1.06 1.10 1.12 1.23 1.31 1.32 1.31 1.36 1.33 1.35 1.45 1.59 1.72 1.80 1.88 1.99 2.04 2.03 1.93 1.84 1.65 1.41 1.41 1.45 1.45 1.47 1.57 1.34 1.23 1.22 1.17 1.10 1.02 0.94 0.85 0.80 0.77 0.71
0.62 0.69 0.84 0.94 0.95 0.91 1.00 1.03 1.09 1.13 1.09 1.05 1.08 1.09 1.14 1.18 1.26 1.38 1.52 1.73 1.93 2.04 2.11 2.10 2.00 1.77 1.60 1.57 1.54 1.53 1.59 1.66 1.65 1.44 1.32 1.24 1.28 1.22 1.09 1.02 0.94 0.88 0.83
0.64 0.71 0.76 0.87 0.92 0.90 0.93 0.99 0.98 0.93 0.92 0.92 0.88 0.79 0.81 0.87 0.88 0.97 1.02 1.31 1.56 1.79 1.93 2.00 1.98 1.84 1.63 1.52 1.40 1.44 1.57 1.73 1.82 1.77 1.68 1.41 1.33 1.28 1.22 1.17 1.09 1.00 0.93
0.53 0.58 0.64 0.80 0.91 0.82 0.93 0.93 0.85 0.78 0.75 0.80 0.77 0.70 0.68 0.72 0.63 0.60 0.63 0.85 1.15 1.36 1.55 1.73 1.79 1.68 1.54 1.46 1.50 1.50 1.51 1.57 1.60 1.53 1.53 1.54 1.47 1.36 1.28 1.22 1.23 1.21 1.13
0.47 0.52 0.56 0.73 0.83 0.91 0.85 0.70 0.74 0.74 0.74 0.77 0.79 0.81 0.74 0.69 0.77 0.68 0.62 0.69 0.78 0.89 1.05 1.32 1.54 1.54 1.63 1.55 1.46 1.41 1.43 1.47 1.47 1.53 1.54 1.54 1.45 1.35 1.22 1.17 1.31 1.25 1.25
0.44 0.49 0.55 0.59 0.67 0.80 0.74 0.59 0.64 0.63 0.74 0.81 0.84 0.93 0.94 0.88 0.85 0.93 0.88 0.89 0.85 0.78 0.85 0.77 0.99 1.37 1.51 1.57 1.51 1.54 1.64 1.57 1.45 1.48 1.50 1.52 1.44 1.33 1.18 1.09 1.18 1.11 1.06
0.48 0.50 0.55 0.58 0.64 0.68 0.65 0.57 0.61 0.67 0.80 0.82 0.79 0.90 0.94 0.88 0.92 0.98 1.11 1.17 1.10 0.94 1.05 1.06 0.98 1.09 1.23 1.29 1.40 1.49 1.56 1.49 1.44 1.36 1.26 1.23 1.18 1.21 1.26 1.17 1.13 1.17 1.08
0.47 0.48 0.48 0.48 0.53 0.55 0.60 0.51 0.62 0.73 0.78 0.80 0.81 0.87 1.01 0.93 0.90 0.88 0.97 1.12 1.11 0.98 0.86 0.90 0.87 0.77 0.71 0.82 1.02 1.18 1.46 1.57 1.51 1.40 1.21 1.15 1.17 1.14 1.17 1.11 1.02 1.06 1.05

GEFSMA_prec_meanprecacc_174.txt.gz
Total_Precipitation_Accumulation
0.77 0.71 0.60 0.62 0.57 0.60 0.67 0.71 0.75 0.76 0.81 0.77 0.76 0.79 0.80 0.77 0.70 0.69 0.84 1.03 1.43 1.64 1.52 1.37 1.19 1.16 1.14 1.06 1.09 1.28 1.44 1.60 1.59 1.63 1.72 1.82 1.69 1.52 1.48 1.39 1.40 1.37 1.23
0.71 0.74 0.69 0.70 0.71 0.69 0.69 0.69 0.69 0.80 0.84 0.83 0.82 0.83 0.82 0.72 0.72 0.80 0.94 1.00 1.03 1.25 1.63 1.68 1.53 1.37 1.25 1.12 1.10 1.21 1.36 1.47 1.44 1.50 1.58 1.63 1.55 1.34 1.26 1.35 1.51 1.31 1.10
0.68 0.74 0.77 0.78 0.79 0.80 0.79 0.81 0.81 0.88 0.86 0.88 0.90 0.84 0.80 0.74 0.74 0.80 0.86 0.93 0.76 0.71 1.05 1.53 1.73 1.61 1.51 1.39 1.22 1.22 1.30 1.44 1.36 1.47 1.54 1.57 1.42 1.29 1.16 1.31 1.47 1.34 1.13
0.71 0.80 0.82 0.86 0.92 0.84 0.81 0.88 0.93 0.99 0.96 0.99 1.02 0.89 0.75 0.79 0.77 0.80 0.91 0.92 0.85 0.69 0.73 0.91 1.17 1.35 1.59 1.68 1.47 1.38 1.36 1.34 1.28 1.42 1.51 1.46 1.32 1.26 1.18 1.28 1.31 1.31 1.28
0.89 0.96 1.01 1.04 1.06 1.08 1.00 0.90 0.92 1.00 1.10 1.13 1.04 0.95 0.82 0.82 0.85 0.85 1.02 1.03 0.93 0.82 0.83 0.72 0.76 0.87 1.06 1.40 1.49 1.54 1.48 1.34 1.26 1.33 1.37 1.25 1.26 1.21 1.09 1.16 1.21 1.17 1.20
1.17 1.27 1.25 1.21 1.27 1.36 1.38 1.18 1.22 1.18 1.14 1.22 1.10 1.02 0.99 0.92 0.93 0.99 1.04 1.11 1.12 0.97 0.98 0.86 0.78 0.61 0.67 0.94 1.23 1.55 1.66 1.55 1.38 1.35 1.42 1.21 1.15 1.18 1.00 0.98 1.06 1.11 1.10
1.50 1.67 1.64 1.62 1.63 1.61 1.57 1.51 1.64 1.59 1.33 1.25 1.42 1.39 1.25 1.09 1.06 1.04 1.05 1.18 1.26 1.24 1.25 1.11 0.99 0.78 0.61 0.61 0.74 1.21 1.55 1.72 1.67 1.52 1.61 1.51 1.21 1.10 1.03 0.98 1.01 1.08 1.14
1.73 1.77 1.98 2.08 2.05 2.15 2.12 1.94 2.07 2.07 1.71 1.48 1.70 1.99 1.72 1.52 1.15 1.05 1.11 1.13 1.22 1.35 1.41 1.24 1.05 0.90 0.82 0.75 0.58 0.76 1.04 1.48 1.73 1.63 1.80 1.91 1.46 1.15 1.02 1.01 1.03 1.11 1.24
1.89 1.90 2.02 2.19 2.21 2.28 2.36 2.43 2.38 2.47 2.25 1.87 1.76 2.02 1.90 1.77 1.58 1.19 1.11 1.20 1.34 1.42 1.48 1.47 1.31 1.06 0.99 0.99 0.78 0.62 0.73 0.92 1.39 1.62 1.81 2.11 1.77 1.32 1.06 1.03 1.04 1.05 1.19
2.07 2.15 2.17 2.28 2.31 2.32 2.41 2.52 2.48 2.61 2.65 2.27 2.00 1.79 1.62 1.62 1.73 1.49 1.25 1.22 1.39 1.43 1.45 1.49 1.51 1.34 1.17 1.17 1.02 0.80 0.79 0.84 1.09 1.56 1.85 2.13 2.05 1.60 1.22 1.14 1.16 1.06 1.11
2.18 2.22 2.28 2.45 2.44 2.41 2.39 2.59 2.64 2.73 2.65 2.56 2.42 2.25 2.09 1.84 1.51 1.57 1.58 1.43 1.34 1.26 1.35 1.46 1.61 1.55 1.40 1.32 1.36 1.05 0.82 0.80 0.87 1.37 1.76 2.17 2.24 1.96 1.68 1.53 1.39 1.30 1.14
2.22 2.12 2.03 2.17 2.24 2.27 2.26 2.45 2.62 2.74 2.73 2.75 2.66 2.37 2.30 2.16 1.82 1.76 1.62 1.50 1.49 1.32 1.27 1.34 1.40 1.40 1.41 1.37 1.31 1.28 1.00 0.83 0.81 1.09 1.46 1.77 2.12 2.18 2.10 1.99 1.76 1.64 1.47
2.04 2.09 1.97 1.96 1.99 1.94 1.99 2.11 2.17 2.24 2.39 2.54 2.45 2.24 2.19 2.04 2.02 2.02 1.90 1.65 1.48 1.27 1.29 1.27 1.26 1.24 1.22 1.26 1.34 1.44 1.10 0.86 0.76 0.88 1.17 1.32 1.53 1.86 2.11 2.11 2.01 1.95 1.87
1.73 1.82 1.81 1.76 1.80 1.84 1.85 1.93 1.94 1.95 1.98 2.05 2.05 2.13 2.19 2.06 1.98 1.91 1.92 2.06 1.81 1.57 1.43 1.30 1.29 1.29 1.22 1.21 1.38 1.46 1.13 0.93 0.76 0.72 0.80 0.98 1.17 1.48 1.77 1.91 2.00 2.08 2.06
1.28 1.35 1.45 1.52 1.61 1.66 1.72 1.86 1.93 1.92 1.87 1.85 1.95 2.02 1.97 1.95 1.92 1.81 1.79 1.92 1.98 1.84 1.71 1.53 1.39 1.31 1.32 1.27 1.37 1.20 1.13 1.02 0.84 0.75 0.70 0.69 0.81 1.07 1.26 1.45 1.61 1.62 1.72
0.94 1.00 1.11 1.28 1.50 1.63 1.67 1.74 1.79 1.87 1.91 1.86 1.94 2.03 2.05 2.05 2.07 1.99 1.87 1.84 1.77 1.81 1.74 1.52 1.33 1.24 1.36 1.27 1.38 1.19 1.13 1.25 1.02 0.84 0.77 0.72 0.69 0.73 0.85 1.01 1.13 1.19 1.19
0.79 0.91 0.95 1.09 1.25 1.43 1.61 1.76 1.78 1.78 1.81 1.79 1.73 1.82 1.94 2.03 2.16 2.18 2.16 2.04 1.88 1.84 1.76 1.60 1.40 1.26 1.39 1.45 1.40 1.34 1.22 1.13 1.08 0.99 0.89 0.86 0.80 0.68 0.74 0.82 0.93 0.99 1.02
0.62 0.72 0.85 1.05 1.16 1.25 1.30 1.38 1.46 1.51 1.54 1.58 1.57 1.55 1.62 1.74 1.89 2.04 2.12 2.06 2.05 1.95 1.85 1.82 1.66 1.40 1.29 1.37 1.44 1.51 1.42 1.22 1.15 1.19 1.10 1.00 0.94 0.80 0.72 0.75 0.83 0.87 0.88
0.61 0.66 0.80 0.96 1.01 1.06 1.10 1.12 1.23 1.31 1.32 1.31 1.36 1.33 1.35 1.45 1.59 1.72 1.81 1.88 2.00 2.04 2.03 1.93 1.85 1.66 1.42 1.42 1.47 1.48 1.50 1.60 1.36 1.25 1.24 1.19 1.12 1.03 0.96 0.87 0.85 0.87 0.82
0.63 0.69 0.85 0.94 0.95 0.91 1.00 1.03 1.09 1.13 1.10 1.05 1.08 1.09 1.14 1.19 1.26 1.38 1.53 1.74 1.93 2.04 2.11 2.10 2.00 1.77 1.61 1.57 1.55 1.54 1.61 1.68 1.67 1.45 1.33 1.24 1.29 1.25 1.13 1.04 0.96 0.93 0.92
0.65 0.71 0.77 0.88 0.92 0.90 0.93 1.00 0.99 0.93 0.93 0.92 0.88 0.79 0.81 0.88 0.89 0.97 1.02 1.31 1.56 1.79 1.93 2.00 1.98 1.84 1.63 1.52 1.40 1.44 1.57 1.74 1.82 1.78 1.68 1.41 1.33 1.28 1.24 1.19 1.10 1.01 0.97
0.54 0.59 0.64 0.80 0.92 0.82 0.94 0.93 0.85 0.78 0.76 0.80 0.77 0.70 0.68 0.72 0.63 0.60 0.64 0.85 1.15 1.36 1.55 1.73 1.79 1.68 1.54 1.46 1.50 1.51 1.51 1.57 1.60 1.53 1.53 1.55 1.47 1.36 1.28 1.22 1.23 1.22 1.14
0.47 0.52 0.57 0.73 0.83 0.91 0.86 0.71 0.74 0.74 0.75 0.77 0.79 0.81 0.74 0.69 0.77 0.68 0.62 0.69 0.78 0.89 1.05 1.32 1.54 1.54 1.63 1.56 1.47 1.41 1.43 1.47 1.47 1.53 1.54 1.54 1.45 1.35 1.22 1.17 1.31 1.26 1.26
0.44 0.49 0.55 0.59 0.67 0.80 0.74 0.60 0.64 0.64 0.74 0.82 0.84 0.93 0.94 0.88 0.85 0.93 0.88 0.89 0.85 0.78 0.85 0.77 0.99 1.37 1.51 1.57 1.52 1.55 1.64 1.57 1.45 1.48 1.50 1.52 1.44 1.33 1.18 1.09 1.18 1.11 1.07
0.48 0.51 0.55 0.58 0.64 0.68 0.65 0.58 0.61 0.67 0.80 0.82 0.79 0.90 0.94 0.88 0.92 0.98 1.11 1.17 1.10 0.94 1.05 1.06 0.98 1.09 1.23 1.29 1.40 1.50 1.56 1.49 1.44 1.36 1.26 1.23 1.18 1.21 1.26 1.17 1.13 1.17 1.08
0.47 0.49 0.48 0.48 0.53 0.55 0.60 0.51 0.62 0.73 0.78 0.80 0.81 0.87 1.01 0.93 0.90 0.88 0.97 1.12 1.11 0.98 0.86 0.90 0.87 0.77 0.71 0.82 1.02 1.19 1.47 1.58 1.51 1.41 1.22 1.15 1.17 1.14 1.17 1.11 1.02 1.06 1.05

GEFSMA_prec_meanprecacc_180.txt.gz
Total_Precipitation_Accumulation
0.78 0.71 0.60 0.63 0.58 0.62 0.69 0.73 0.76 0.76 0.81 0.78 0.78 0.80 0.81 0.78 0.71 0.70 0.86 1.06 1.47 1.72 1.60 1.44 1.26 1.25 1.22 1.13 1.18 1.37 1.53 1.66 1.65 1.67 1.75 1.87 1.76 1.59 1.53 1.42 1.44 1.40 1.26
0.71 0.74 0.70 0.71 0.72 0.70 0.70 0.70 0.69 0.81 0.85 0.85 0.84 0.84 0.84 0.74 0.73 0.81 0.96 1.02 1.04 1.32 1.74 1.77 1.62 1.47 1.37 1.21 1.19 1.31 1.45 1.54 1.49 1.54 1.61 1.67 1.61 1.40 1.30 1.38 1.55 1.36 1.14
0.68 0.74 0.77 0.78 0.80 0.80 0.79 0.81 0.82 0.89 0.87 0.90 0.92 0.86 0.82 0.75 0.75 0.81 0.87 0.94 0.78 0.79 1.18 1.64 1.82 1.70 1.63 1.49 1.30 1.30 1.39 1.54 1.42 1.52 1.58 1.61 1.46 1.33 1.20 1.36 1.51 1.38 1.17
0.71 0.80 0.82 0.86 0.92 0.84 0.81 0.88 0.94 1.00 0.98 1.01 1.04 0.91 0.77 0.81 0.78 0.81 0.92 0.93 0.87 0.76 0.84 1.01 1.26 1.42 1.68 1.77 1.55 1.47 1.45 1.45 1.35 1.47 1.54 1.48 1.35 1.30 1.22 1.33 1.36 1.35 1.30
0.89 0.96 1.02 1.04 1.06 1.08 1.01 0.91 0.94 1.01 1.12 1.15 1.06 0.97 0.83 0.84 0.87 0.87 1.04 1.05 0.94 0.84 0.89 0.84 0.88 0.97 1.15 1.50 1.57 1.62 1.55 1.40 1.31 1.37 1.41 1.28 1.28 1.25 1.12 1.19 1.26 1.22 1.24
1.17 1.28 1.26 1.21 1.27 1.37 1.39 1.19 1.24 1.19 1.16 1.24 1.12 1.04 1.00 0.94 0.94 1.01 1.06 1.12 1.13 0.98 1.02 0.98 0.90 0.69 0.73 1.02 1.31 1.64 1.73 1.61 1.44 1.40 1.47 1.26 1.19 1.20 1.03 1.00 1.09 1.16 1.13
1.50 1.67 1.64 1.62 1.63 1.62 1.58 1.53 1.67 1.60 1.35 1.27 1.45 1.42 1.28 1.12 1.07 1.05 1.06 1.19 1.27 1.26 1.31 1.24 1.11 0.89 0.70 0.67 0.79 1.28 1.62 1.79 1.74 1.58 1.67 1.56 1.25 1.13 1.05 1.01 1.04 1.11 1.17
1.73 1.77 1.98 2.08 2.06 2.16 2.13 1.95 2.09 2.09 1.72 1.49 1.73 2.02 1.75 1.55 1.17 1.06 1.12 1.14 1.23 1.37 1.45 1.33 1.16 1.01 0.93 0.86 0.65 0.81 1.10 1.55 1.80 1.69 1.86 1.95 1.49 1.18 1.04 1.03 1.06 1.15 1.27
1.89 1.90 2.02 2.19 2.21 2.28 2.37 2.44 2.39 2.48 2.26 1.88 1.78 2.05 1.93 1.79 1.61 1.22 1.13 1.22 1.36 1.45 1.50 1.49 1.34 1.11 1.06 1.06 0.83 0.68 0.78 0.99 1.46 1.69 1.88 2.17 1.82 1.36 1.09 1.06 1.08 1.08 1.22
2.07 2.15 2.17 2.28 2.31 2.33 2.42 2.52 2.49 2.63 2.67 2.28 2.02 1.81 1.63 1.64 1.75 1.51 1.27 1.24 1.42 1.47 1.48 1.52 1.55 1.38 1.20 1.20 1.05 0.83 0.82 0.87 1.13 1.62 1.90 2.19 2.11 1.64 1.26 1.18 1.19 1.10 1.15
2.18 2.22 2.28 2.45 2.44 2.42 2.39 2.60 2.65 2.74 2.66 2.57 2.43 2.26 2.10 1.86 1.52 1.58 1.60 1.45 1.38 1.31 1.39 1.50 1.65 1.59 1.42 1.35 1.39 1.07 0.84 0.83 0.92 1.42 1.80 2.23 2.33 2.00 1.72 1.57 1.44 1.34 1.18
2.22 2.12 2.03 2.17 2.24 2.27 2.26 2.45 2.62 2.75 2.73 2.76 2.67 2.38 2.32 2.18 1.84 1.77 1.63 1.52 1.53 1.36 1.31 1.38 1.44 1.43 1.44 1.41 1.34 1.31 1.02 0.86 0.86 1.12 1.51 1.87 2.33 2.30 2.18 2.06 1.82 1.70 1.51
2.05 2.09 1.97 1.96 1.99 1.94 1.99 2.11 2.17 2.24 2.39 2.54 2.45 2.24 2.20 2.05 2.03 2.03 1.91 1.67 1.50 1.30 1.33 1.31 1.29 1.27 1.25 1.29 1.37 1.46 1.12 0.88 0.81 0.92 1.22 1.48 1.86 2.19 2.34 2.24 2.08 2.02 1.93
1.73 1.82 1.81 1.76 1.80 1.84 1.85 1.93 1.94 1.95 1.98 2.05 2.05 2.14 2.20 2.07 1.99 1.92 1.94 2.08 1.83 1.60 1.45 1.32 1.31 1.32 1.24 1.23 1.40 1.48 1.14 0.96 0.80 0.77 0.87 1.11 1.43 1.83 2.06 2.06 2.06 2.13 2.12
1.28 1.35 1.45 1.52 1.61 1.66 1.72 1.86 1.93 1.92 1.88 1.85 1.96 2.03 1.98 1.96 1.93 1.83 1.81 1.94 2.01 1.86 1.72 1.56 1.42 1.35 1.35 1.29 1.39 1.22 1.14 1.05 0.88 0.79 0.74 0.76 0.92 1.25 1.48 1.63 1.69 1.66 1.76
0.94 1.00 1.11 1.28 1.50 1.63 1.67 1.74 1.79 1.87 1.91 1.86 1.94 2.04 2.06 2.06 2.08 2.01 1.88 1.86 1.80 1.83 1.75 1.54 1.36 1.27 1.41 1.30 1.40 1.21 1.14 1.27 1.05 0.87 0.80 0.75 0.73 0.81 0.97 1.13 1.22 1.25 1.23
0.79 0.91 0.95 1.09 1.25 1.43 1.61 1.76 1.78 1.78 1.81 1.80 1.74 1.83 1.95 2.05 2.17 2.19 2.18 2.06 1.91 1.86 1.77 1.61 1.41 1.29 1.44 1.49 1.43 1.36 1.24 1.15 1.11 1.01 0.91 0.88 0.83 0.72 0.80 0.89 0.99 1.04 1.05
0.62 0.72 0.85 1.05 1.16 1.25 1.30 1.38 1.46 1.51 1.54 1.58 1.57 1.55 1.63 1.74 1.90 2.05 2.14 2.08 2.06 1.96 1.86 1.83 1.66 1.41 1.31 1.39 1.46 1.54 1.45 1.23 1.17 1.21 1.12 1.02 0.96 0.82 0.74 0.77 0.85 0.91 0.92
0.62 0.67 0.80 0.96 1.01 1.06 1.10 1.12 1.23 1.32 1.33 1.31 1.36 1.33 1.35 1.45 1.59 1.73 1.82 1.89 2.00 2.04 2.04 1.94 1.86 1.67 1.43 1.42 1.48 1.51 1.54 1.63 1.38 1.27 1.27 1.21 1.13 1.04 0.97 0.88 0.86 0.88 0.85
0.65 0.70 0.86 0.94 0.95 0.91 1.00 1.03 1.09 1.13 1.10 1.05 1.08 1.10 1.14 1.19 1.27 1.39 1.54 1.75 1.94 2.05 2.12 2.10 2.01 1.78 1.61 1.58 1.55 1.56 1.64 1.72 1.70 1.47 1.35 1.27 1.31 1.27 1.13 1.05 0.98 0.95 0.95
0.67 0.72 0.77 0.88 0.92 0.90 0.93 1.00 0.99 0.94 0.93 0.92 0.88 0.79 0.81 0.88 0.89 0.98 1.03 1.32 1.57 1.80 1.93 2.01 1.99 1.84 1.64 1.53 1.41 1.45 1.59 1.75 1.83 1.79 1.69 1.42 1.35 1.30 1.24 1.19 1.11 1.03 0.99
0.56 0.60 0.65 0.81 0.92 0.82 0.94 0.94 0.86 0.79 0.76 0.80 0.77 0.70 0.68 0.72 0.63 0.61 0.64 0.86 1.16 1.36 1.56 1.74 1.80 1.68 1.55 1.47 1.51 1.51 1.51 1.57 1.60 1.54 1.54 1.55 1.48 1.38 1.29 1.23 1.23 1.22 1.14
0.48 0.54 0.57 0.73 0.83 0.91 0.86 0.71 0.75 0.74 0.75 0.77 0.79 0.81 0.74 0.70 0.77 0.69 0.63 0.70 0.78 0.90 1.06 1.32 1.55 1.54 1.64 1.56 1.47 1.42 1.43 1.47 1.48 1.53 1.54 1.55 1.46 1.35 1.23 1.18 1.32 1.26 1.26
0.45 0.50 0.55 0.59 0.67 0.80 0.74 0.60 0.65 0.64 0.75 0.82 0.85 0.93 0.94 0.88 0.86 0.93 0.89 0.89 0.86 0.79 0.85 0.77 0.99 1.37 1.52 1.57 1.53 1.55 1.65 1.58 1.45 1.48 1.51 1.53 1.45 1.33 1.19 1.09 1.19 1.11 1.07
0.49 0.51 0.55 0.58 0.64 0.69 0.65 0.58 0.62 0.68 0.81 0.83 0.79 0.90 0.94 0.89 0.93 0.99 1.12 1.18 1.10 0.95 1.05 1.06 0.98 1.09 1.23 1.29 1.40 1.50 1.57 1.50 1.45 1.37 1.26 1.24 1.20 1.23 1.27 1.17 1.13 1.17 1.08
0.48 0.49 0.49 0.48 0.53 0.55 0.60 0.52 0.63 0.74 0.79 0.81 0.81 0.87 1.02 0.94 0.91 0.89 0.98 1.12 1.11 0.98 0.86 0.90 0.87 0.77 0.71 0.82 1.02 1.19 1.47 1.58 1.52 1.42 1.23 1.16 1.18 1.17 1.20 1.12 1.02 1.06 1.05

GEFSMA_prec_meanprecacc_186.txt.gz
Total_Precipitation_Accumulation
0.79 0.72 0.62 0.64 0.60 0.64 0.70 0.75 0.77 0.79 0.85 0.82 0.80 0.82 0.84 0.81 0.74 0.73 0.88 1.08 1.50 1.75 1.66 1.51 1.31 1.31 1.30 1.22 1.29 1.47 1.64 1.74 1.70 1.70 1.80 1.91 1.79 1.63 1.55 1.44 1.46 1.42 1.29
0.72 0.75 0.71 0.73 0.73 0.71 0.71 0.71 0.70 0.83 0.88 0.87 0.87 0.87 0.86 0.76 0.75 0.84 0.99 1.04 1.06 1.34 1.79 1.85 1.69 1.54 1.45 1.30 1.28 1.40 1.54 1.60 1.54 1.59 1.67 1.71 1.65 1.43 1.32 1.41 1.58 1.39 1.17
0.69 0.74 0.77 0.79 0.80 0.81 0.79 0.81 0.82 0.89 0.88 0.93 0.96 0.88 0.83 0.78 0.78 0.85 0.91 0.98 0.81 0.81 1.21 1.68 1.86 1.74 1.70 1.61 1.42 1.42 1.49 1.60 1.47 1.57 1.62 1.64 1.49 1.36 1.23 1.38 1.54 1.42 1.20
0.71 0.80 0.82 0.87 0.92 0.84 0.81 0.89 0.95 1.01 1.00 1.05 1.09 0.95 0.79 0.86 0.83 0.84 0.96 0.97 0.91 0.79 0.87 1.05 1.29 1.45 1.76 1.90 1.72 1.66 1.59 1.52 1.40 1.52 1.58 1.51 1.38 1.33 1.25 1.36 1.40 1.38 1.33
0.89 0.97 1.02 1.04 1.06 1.08 1.01 0.91 0.95 1.04 1.15 1.20 1.09 0.99 0.87 0.87 0.89 0.89 1.07 1.07 0.96 0.87 0.93 0.89 0.92 1.01 1.26 1.67 1.82 1.85 1.69 1.48 1.36 1.41 1.44 1.31 1.31 1.28 1.16 1.23 1.30 1.26 1.28
1.17 1.28 1.26 1.21 1.27 1.38 1.41 1.21 1.27 1.22 1.19 1.28 1.14 1.06 1.03 0.97 0.97 1.03 1.08 1.13 1.14 1.00 1.06 1.03 0.95 0.75 0.85 1.17 1.48 1.79 1.85 1.70 1.51 1.46 1.52 1.30 1.21 1.23 1.06 1.04 1.13 1.20 1.17
1.50 1.67 1.64 1.62 1.63 1.63 1.60 1.55 1.71 1.64 1.38 1.30 1.48 1.45 1.31 1.15 1.10 1.07 1.09 1.21 1.29 1.27 1.34 1.30 1.18 0.96 0.79 0.77 0.90 1.41 1.74 1.89 1.83 1.66 1.73 1.60 1.28 1.16 1.09 1.04 1.08 1.14 1.19
1.73 1.77 1.98 2.09 2.06 2.17 2.15 1.98 2.13 2.13 1.76 1.53 1.78 2.07 1.79 1.58 1.20 1.08 1.14 1.15 1.25 1.38 1.46 1.37 1.23 1.08 1.01 0.93 0.71 0.87 1.16 1.63 1.90 1.78 1.93 2.00 1.54 1.22 1.09 1.07 1.10 1.17 1.30
1.89 1.90 2.02 2.20 2.22 2.29 2.39 2.47 2.42 2.52 2.31 1.92 1.80 2.09 1.98 1.84 1.64 1.24 1.15 1.24 1.38 1.46 1.51 1.51 1.38 1.15 1.10 1.10 0.87 0.70 0.80 1.02 1.51 1.76 1.95 2.23 1.86 1.39 1.12 1.09 1.11 1.11 1.24
2.07 2.15 2.17 2.28 2.31 2.33 2.43 2.54 2.51 2.65 2.72 2.33 2.04 1.83 1.66 1.67 1.78 1.55 1.30 1.27 1.44 1.48 1.49 1.53 1.57 1.41 1.24 1.23 1.08 0.85 0.84 0.89 1.15 1.66 1.96 2.25 2.16 1.68 1.29 1.21 1.22 1.13 1.17
2.18 2.22 2.29 2.45 2.45 2.43 2.40 2.61 2.66 2.76 2.69 2.61 2.47 2.30 2.14 1.89 1.53 1.62 1.65 1.50 1.42 1.33 1.40 1.52 1.67 1.61 1.45 1.38 1.42 1.09 0.86 0.84 0.93 1.43 1.82 2.27 2.37 2.04 1.75 1.60 1.47 1.37 1.22
2.22 2.12 2.04 2.18 2.24 2.29 2.27 2.45 2.63 2.77 2.75 2.78 2.70 2.42 2.36 2.22 1.86 1.79 1.67 1.57 1.58 1.40 1.34 1.41 1.46 1.44 1.46 1.44 1.36 1.32 1.03 0.88 0.89 1.17 1.55 1.91 2.37 2.33 2.21 2.11 1.87 1.74 1.57
2.05 2.09 1.97 1.96 1.99 1.95 1.99 2.11 2.18 2.26 2.40 2.56 2.48 2.27 2.23 2.07 2.04 2.05 1.95 1.72 1.56 1.34 1.36 1.34 1.32 1.29 1.27 1.31 1.39 1.48 1.13 0.91 0.87 0.98 1.27 1.53 1.89 2.21 2.36 2.26 2.11 2.06 1.99
1.73 1.82 1.82 1.76 1.80 1.84 1.85 1.93 1.95 1.96 1.99 2.07 2.07 2.16 2.21 2.09 2.01 1.94 1.97 2.13 1.89 1.64 1.48 1.34 1.33 1.33 1.26 1.24 1.41 1.49 1.16 0.99 0.86 0.83 0.93 1.18 1.49 1.87 2.09 2.12 2.16 2.23 2.18
1.29 1.35 1.45 1.52 1.61 1.66 1.72 1.87 1.94 1.93 1.89 1.86 1.97 2.04 2.00 1.99 1.96 1.85 1.83 1.98 2.07 1.91 1.76 1.58 1.45 1.37 1.37 1.30 1.40 1.24 1.17 1.09 0.92 0.83 0.79 0.83 1.02 1.33 1.54 1.75 1.91 1.87 1.90
0.95 1.01 1.12 1.28 1.51 1.63 1.67 1.75 1.80 1.88 1.92 1.88 1.96 2.07 2.10 2.08 2.10 2.02 1.90 1.89 1.84 1.87 1.79 1.57 1.39 1.30 1.43 1.31 1.41 1.23 1.17 1.30 1.09 0.91 0.84 0.81 0.81 0.88 1.03 1.23 1.40 1.46 1.41
0.80 0.92 0.96 1.10 1.25 1.44 1.62 1.77 1.78 1.78 1.83 1.82 1.77 1.87 1.98 2.08 2.20 2.21 2.20 2.09 1.93 1.88 1.80 1.64 1.43 1.31 1.46 1.50 1.44 1.38 1.25 1.18 1.14 1.04 0.95 0.92 0.87 0.77 0.85 0.95 1.11 1.21 1.20
0.63 0.73 0.86 1.06 1.17 1.25 1.30 1.39 1.47 1.51 1.55 1.61 1.60 1.58 1.66 1.76 1.92 2.07 2.16 2.10 2.08 1.97 1.88 1.85 1.67 1.42 1.32 1.40 1.47 1.56 1.47 1.25 1.19 1.23 1.15 1.05 0.99 0.86 0.77 0.80 0.89 0.97 1.00
0.63 0.68 0.81 0.96 1.02 1.06 1.10 1.13 1.23 1.32 1.33 1.32 1.37 1.35 1.37 1.46 1.60 1.74 1.83 1.90 2.01 2.05 2.05 1.95 1.87 1.69 1.44 1.45 1.53 1.56 1.58 1.65 1.40 1.29 1.29 1.22 1.14 1.05 0.98 0.89 0.87 0.89 0.86
0.67 0.72 0.87 0.95 0.96 0.91 1.00 1.04 1.09 1.13 1.10 1.05 1.09 1.10 1.15 1.19 1.28 1.40 1.55 1.76 1.95 2.06 2.13 2.12 2.02 1.80 1.63 1.59 1.57 1.58 1.66 1.75 1.72 1.49 1.37 1.29 1.32 1.28 1.14 1.05 0.98 0.95 0.95
0.68 0.73 0.79 0.89 0.92 0.90 0.93 1.00 0.99 0.94 0.93 0.93 0.88 0.79 0.81 0.88 0.90 0.98 1.03 1.32 1.58 1.81 1.94 2.02 2.00 1.85 1.64 1.53 1.41 1.45 1.59 1.76 1.84 1.79 1.70 1.43 1.35 1.31 1.25 1.20 1.11 1.03 0.99
0.57 0.61 0.66 0.81 0.92 0.83 0.94 0.94 0.86 0.79 0.76 0.81 0.78 0.70 0.69 0.72 0.64 0.61 0.65 0.87 1.17 1.38 1.57 1.75 1.81 1.69 1.55 1.47 1.51 1.51 1.52 1.58 1.61 1.54 1.55 1.56 1.48 1.38 1.30 1.24 1.24 1.22 1.14
0.49 0.54 0.58 0.74 0.84 0.92 0.86 0.71 0.75 0.75 0.75 0.78 0.80 0.82 0.75 0.70 0.77 0.69 0.63 0.70 0.79 0.91 1.07 1.33 1.56 1.55 1.64 1.57 1.48 1.43 1.44 1.48 1.49 1.54 1.55 1.56 1.46 1.36 1.24 1.19 1.32 1.26 1.27
0.46 0.51 0.57 0.60 0.68 0.81 0.75 0.60 0.65 0.64 0.75 0.82 0.85 0.94 0.95 0.88 0.86 0.94 0.89 0.89 0.87 0.80 0.85 0.78 1.00 1.38 1.52 1.58 1.53 1.56 1.65 1.58 1.46 1.49 1.52 1.54 1.46 1.34 1.20 1.10 1.20 1.12 1.07
0.50 0.52 0.56 0.59 0.65 0.69 0.65 0.58 0.62 0.68 0.82 0.84 0.79 0.91 0.95 0.89 0.93 1.00 1.12 1.18 1.10 0.95 1.06 1.07 0.98 1.09 1.23 1.29 1.40 1.50 1.57 1.50 1.45 1.38 1.27 1.25 1.20 1.23 1.28 1.19 1.14 1.18 1.09
0.48 0.50 0.49 0.49 0.53 0.55 0.60 0.52 0.64 0.74 0.80 0.81 0.82 0.87 1.02 0.95 0.92 0.90 0.99 1.13 1.12 0.99 0.87 0.90 0.87 0.77 0.71 0.82 1.02 1.19 1.47 1.59 1.53 1.43 1.24 1.17 1.19 1.18 1.21 1.14 1.05 1.07 1.05

GEFSMA_prec_meanprecacc_192.txt.gz
Total_Precipitation_Accumulation
0.79 0.73 0.62 0.65 0.60 0.64 0.70 0.76 0.79 0.82 0.91 0.86 0.82 0.84 0.87 0.83 0.76 0.74 0.90 1.13 1.55 1.81 1.71 1.56 1.37 1.39 1.42 1.34 1.39 1.56 1.72 1.79 1.73 1.74 1.84 1.95 1.83 1.68 1.59 1.46 1.48 1.44 1.32
0.72 0.76 0.72 0.73 0.74 0.71 0.71 0.72 0.71 0.85 0.92 0.92 0.89 0.89 0.88 0.77 0.76 0.85 1.00 1.06 1.09 1.38 1.84 1.90 1.76 1.66 1.60 1.44 1.38 1.51 1.62 1.64 1.58 1.64 1.71 1.75 1.67 1.47 1.35 1.43 1.60 1.41 1.19
0.69 0.74 0.78 0.79 0.81 0.81 0.80 0.83 0.84 0.92 0.93 0.97 0.99 0.90 0.85 0.79 0.78 0.85 0.93 1.00 0.82 0.83 1.24 1.72 1.91 1.82 1.81 1.70 1.49 1.51 1.55 1.65 1.52 1.62 1.67 1.67 1.51 1.39 1.26 1.41 1.56 1.43 1.23
0.71 0.80 0.83 0.87 0.93 0.85 0.82 0.90 0.97 1.05 1.04 1.10 1.13 0.97 0.80 0.87 0.84 0.85 0.97 0.99 0.92 0.80 0.89 1.07 1.31 1.49 1.82 1.99 1.80 1.72 1.65 1.57 1.44 1.56 1.62 1.54 1.40 1.35 1.27 1.40 1.42 1.40 1.36
0.89 0.97 1.02 1.05 1.07 1.08 1.01 0.92 0.96 1.07 1.18 1.22 1.10 1.01 0.89 0.88 0.92 0.91 1.09 1.08 0.98 0.88 0.94 0.90 0.93 1.04 1.32 1.73 1.88 1.92 1.74 1.52 1.39 1.45 1.47 1.34 1.33 1.30 1.19 1.26 1.32 1.28 1.29
1.17 1.28 1.26 1.21 1.28 1.38 1.42 1.22 1.27 1.23 1.20 1.30 1.15 1.07 1.04 0.99 1.00 1.05 1.10 1.15 1.16 1.02 1.07 1.04 0.96 0.78 0.92 1.23 1.53 1.85 1.91 1.75 1.55 1.50 1.55 1.32 1.24 1.26 1.10 1.07 1.16 1.22 1.19
1.51 1.67 1.65 1.63 1.64 1.64 1.61 1.56 1.71 1.65 1.39 1.31 1.49 1.46 1.32 1.16 1.11 1.09 1.10 1.22 1.31 1.29 1.35 1.31 1.19 1.00 0.86 0.82 0.95 1.46 1.80 1.95 1.90 1.72 1.77 1.63 1.31 1.19 1.13 1.09 1.11 1.17 1.22
1.73 1.77 1.98 2.09 2.07 2.18 2.16 1.98 2.13 2.14 1.78 1.54 1.79 2.08 1.80 1.59 1.21 1.09 1.15 1.17 1.26 1.40 1.47 1.39 1.25 1.13 1.07 0.99 0.77 0.94 1.23 1.71 1.98 1.84 1.97 2.03 1.56 1.26 1.12 1.10 1.13 1.20 1.32
1.89 1.91 2.02 2.20 2.22 2.29 2.40 2.47 2.42 2.52 2.33 1.94 1.81 2.09 1.99 1.84 1.64 1.26 1.18 1.27 1.39 1.47 1.52 1.52 1.40 1.18 1.15 1.16 0.93 0.76 0.86 1.06 1.54 1.80 1.99 2.26 1.89 1.42 1.16 1.12 1.14 1.14 1.27
2.08 2.15 2.18 2.29 2.32 2.34 2.44 2.54 2.52 2.66 2.73 2.34 2.04 1.84 1.67 1.67 1.79 1.56 1.32 1.29 1.45 1.49 1.50 1.54 1.58 1.44 1.27 1.27 1.12 0.88 0.86 0.91 1.17 1.68 1.99 2.28 2.19 1.71 1.32 1.24 1.25 1.16 1.21
2.18 2.22 2.29 2.45 2.45 2.43 2.41 2.62 2.67 2.76 2.69 2.61 2.47 2.31 2.14 1.89 1.54 1.62 1.66 1.52 1.43 1.34 1.41 1.53 1.68 1.63 1.48 1.41 1.45 1.11 0.87 0.85 0.94 1.45 1.84 2.29 2.39 2.06 1.77 1.62 1.49 1.40 1.25
2.22 2.12 2.04 2.18 2.25 2.29 2.28 2.46 2.64 2.77 2.75 2.78 2.71 2.42 2.37 2.23 1.87 1.80 1.68 1.58 1.59 1.41 1.34 1.42 1.47 1.46 1.48 1.45 1.37 1.33 1.04 0.89 0.90 1.18 1.56 1.92 2.38 2.34 2.22 2.13 1.90 1.77 1.60
2.05 2.09 1.97 1.96 1.99 1.95 1.99 2.12 2.19 2.26 2.40 2.57 2.48 2.28 2.24 2.08 2.04 2.05 1.95 1.73 1.57 1.35 1.37 1.35 1.33 1.31 1.28 1.32 1.40 1.49 1.14 0.92 0.88 0.99 1.28 1.54 1.90 2.22 2.37 2.29 2.14 2.09 2.03
1.73 1.82 1.82 1.76 1.80 1.84 1.86 1.94 1.96 1.97 2.00 2.08 2.08 2.17 2.23 2.10 2.01 1.95 1.98 2.14 1.90 1.65 1.49 1.35 1.34 1.34 1.27 1.25 1.42 1.50 1.18 1.02 0.88 0.84 0.95 1.20 1.50 1.88 2.11 2.15 2.20 2.28 2.25
1.29 1.36 1.45 1.52 1.62 1.67 1.73 1.87 1.94 1.94 1.91 1.89 1.98 2.06 2.02 2.00 1.97 1.86 1.84 1.99 2.08 1.92 1.77 1.59 1.46 1.38 1.37 1.30 1.41 1.26 1.20 1.13 0.94 0.86 0.84 0.86 1.03 1.35 1.56 1.77 1.95 1.94 2.02
0.95 1.01 1.12 1.28 1.51 1.64 1.68 1.75 1.80 1.88 1.92 1.89 1.98 2.09 2.11 2.10 2.12 2.04 1.91 1.90 1.86 1.89 1.80 1.58 1.40 1.31 1.44 1.31 1.42 1.24 1.19 1.34 1.11 0.94 0.89 0.86 0.85 0.91 1.04 1.24 1.44 1.54 1.54
0.81 0.92 0.96 1.10 1.26 1.44 1.63 1.78 1.79 1.79 1.83 1.82 1.77 1.88 2.00 2.09 2.21 2.23 2.21 2.09 1.94 1.89 1.80 1.64 1.44 1.32 1.46 1.51 1.45 1.39 1.28 1.21 1.17 1.08 0.99 0.97 0.91 0.80 0.87 0.97 1.13 1.28 1.31
0.64 0.73 0.86 1.06 1.17 1.25 1.30 1.39 1.48 1.52 1.56 1.61 1.61 1.58 1.66 1.77 1.93 2.08 2.16 2.10 2.08 1.98 1.88 1.86 1.68 1.42 1.33 1.42 1.48 1.57 1.49 1.27 1.22 1.27 1.19 1.09 1.03 0.88 0.79 0.82 0.92 1.00 1.04
0.65 0.68 0.81 0.96 1.02 1.07 1.11 1.13 1.23 1.33 1.34 1.32 1.38 1.36 1.38 1.46 1.61 1.75 1.84 1.91 2.01 2.05 2.05 1.96 1.87 1.69 1.45 1.46 1.53 1.57 1.61 1.68 1.43 1.33 1.32 1.27 1.18 1.08 1.00 0.91 0.89 0.91 0.88
0.68 0.72 0.87 0.95 0.96 0.92 1.01 1.04 1.10 1.14 1.11 1.06 1.09 1.10 1.15 1.20 1.28 1.41 1.56 1.77 1.96 2.06 2.13 2.12 2.02 1.80 1.64 1.60 1.57 1.59 1.68 1.76 1.74 1.51 1.39 1.31 1.34 1.29 1.15 1.06 0.98 0.96 0.95
0.70 0.74 0.80 0.89 0.93 0.90 0.94 1.00 1.00 0.94 0.94 0.93 0.89 0.80 0.81 0.89 0.91 1.00 1.04 1.33 1.59 1.81 1.95 2.02 2.00 1.86 1.65 1.54 1.41 1.45 1.60 1.76 1.85 1.80 1.71 1.43 1.35 1.31 1.25 1.20 1.11 1.04 1.00
0.59 0.63 0.67 0.82 0.93 0.83 0.94 0.94 0.87 0.79 0.77 0.81 0.78 0.71 0.69 0.72 0.64 0.61 0.66 0.88 1.18 1.39 1.57 1.75 1.81 1.70 1.56 1.47 1.52 1.52 1.52 1.58 1.62 1.55 1.55 1.56 1.48 1.38 1.30 1.24 1.24 1.22 1.15
0.51 0.56 0.60 0.75 0.84 0.92 0.86 0.72 0.75 0.75 0.76 0.78 0.80 0.83 0.75 0.70 0.77 0.69 0.63 0.70 0.79 0.91 1.07 1.34 1.57 1.56 1.65 1.57 1.48 1.43 1.44 1.48 1.49 1.54 1.55 1.56 1.46 1.36 1.24 1.19 1.33 1.26 1.27
0.48 0.53 0.58 0.61 0.68 0.82 0.76 0.61 0.65 0.64 0.75 0.83 0.86 0.94 0.95 0.88 0.87 0.94 0.89 0.89 0.87 0.80 0.86 0.79 1.00 1.38 1.52 1.58 1.53 1.56 1.65 1.58 1.46 1.49 1.52 1.54 1.46 1.34 1.20 1.11 1.20 1.12 1.07
0.52 0.54 0.57 0.59 0.65 0.69 0.67 0.60 0.63 0.69 0.82 0.84 0.79 0.91 0.95 0.90 0.94 1.00 1.12 1.18 1.10 0.95 1.06 1.07 0.99 1.09 1.23 1.29 1.41 1.51 1.57 1.50 1.46 1.38 1.28 1.25 1.21 1.23 1.28 1.19 1.15 1.18 1.09
0.50 0.52 0.51 0.49 0.54 0.56 0.61 0.52 0.64 0.75 0.80 0.81 0.82 0.88 1.02 0.95 0.93 0.90 0.99 1.13 1.12 0.99 0.87 0.90 0.87 0.77 0.71 0.82 1.02 1.19 1.48 1.59 1.54 1.44 1.24 1.17 1.19 1.18 1.23 1.16 1.06 1.08 1.06

GEFSMA_prec_meanprecacc_198.txt.gz
Total_Precipitation_Accumulation
0.80 0.74 0.63 0.65 0.60 0.64 0.71 0.76 0.79 0.82 0.91 0.87 0.84 0.87 0.89 0.86 0.77 0.75 0.91 1.17 1.62 1.91 1.81 1.65 1.47 1.52 1.53 1.41 1.43 1.60 1.76 1.83 1.78 1.78 1.89 2.01 1.89 1.73 1.65 1.52 1.53 1.49 1.38
0.73 0.76 0.72 0.73 0.74 0.71 0.72 0.73 0.72 0.85 0.92 0.94 0.92 0.91 0.89 0.78 0.76 0.86 1.01 1.08 1.13 1.44 1.92 2.00 1.91 1.81 1.72 1.52 1.44 1.56 1.67 1.69 1.63 1.70 1.77 1.81 1.73 1.53 1.41 1.48 1.63 1.45 1.25
0.69 0.75 0.78 0.79 0.81 0.81 0.81 0.83 0.85 0.93 0.93 1.01 1.02 0.91 0.86 0.79 0.79 0.86 0.93 1.00 0.84 0.86 1.31 1.91 2.15 2.01 1.95 1.82 1.60 1.60 1.64 1.71 1.59 1.70 1.73 1.72 1.57 1.45 1.32 1.46 1.59 1.47 1.27
0.72 0.80 0.83 0.87 0.93 0.85 0.82 0.91 0.97 1.05 1.05 1.12 1.15 0.99 0.82 0.88 0.84 0.85 0.97 0.99 0.93 0.81 0.96 1.26 1.55 1.70 1.97 2.14 1.94 1.82 1.72 1.63 1.51 1.61 1.66 1.61 1.47 1.40 1.31 1.44 1.45 1.43 1.39
0.90 0.97 1.02 1.05 1.07 1.09 1.01 0.92 0.97 1.07 1.19 1.24 1.12 1.02 0.90 0.89 0.92 0.92 1.09 1.09 0.99 0.89 0.98 0.98 1.06 1.19 1.46 1.87 2.00 2.02 1.82 1.59 1.44 1.49 1.52 1.39 1.39 1.35 1.23 1.31 1.37 1.33 1.34
1.17 1.28 1.26 1.21 1.28 1.39 1.42 1.23 1.28 1.23 1.20 1.30 1.16 1.08 1.06 1.00 1.01 1.07 1.11 1.16 1.17 1.03 1.09 1.07 0.99 0.83 0.99 1.31 1.62 1.94 2.00 1.83 1.60 1.54 1.59 1.37 1.28 1.31 1.17 1.15 1.23 1.29 1.24
1.51 1.68 1.65 1.63 1.65 1.64 1.61 1.56 1.71 1.65 1.39 1.32 1.50 1.47 1.33 1.18 1.13 1.09 1.11 1.23 1.31 1.30 1.36 1.31 1.20 1.02 0.89 0.88 1.03 1.56 1.88 2.01 1.96 1.78 1.82 1.67 1.35 1.25 1.21 1.16 1.17 1.24 1.27
1.73 1.77 1.98 2.09 2.07 2.18 2.16 1.99 2.13 2.14 1.78 1.54 1.79 2.08 1.81 1.60 1.22 1.10 1.16 1.18 1.27 1.40 1.49 1.39 1.25 1.14 1.09 1.02 0.81 1.01 1.32 1.80 2.07 1.93 2.04 2.07 1.60 1.31 1.16 1.14 1.17 1.23 1.36
1.89 1.91 2.03 2.20 2.22 2.30 2.40 2.47 2.42 2.52 2.34 1.94 1.81 2.09 1.99 1.85 1.65 1.26 1.18 1.27 1.40 1.47 1.52 1.53 1.40 1.19 1.16 1.18 0.96 0.82 0.94 1.14 1.63 1.90 2.08 2.31 1.93 1.47 1.19 1.15 1.17 1.16 1.30
2.08 2.15 2.18 2.29 2.32 2.34 2.44 2.54 2.52 2.66 2.73 2.34 2.04 1.84 1.67 1.67 1.79 1.56 1.33 1.29 1.45 1.49 1.50 1.54 1.60 1.45 1.28 1.27 1.13 0.90 0.88 0.93 1.20 1.72 2.03 2.32 2.23 1.75 1.36 1.27 1.28 1.19 1.25
2.19 2.22 2.29 2.46 2.46 2.44 2.41 2.63 2.68 2.77 2.70 2.62 2.47 2.31 2.14 1.89 1.54 1.62 1.66 1.52 1.43 1.34 1.41 1.55 1.70 1.66 1.50 1.42 1.46 1.12 0.88 0.86 0.96 1.47 1.87 2.32 2.43 2.09 1.80 1.65 1.52 1.42 1.27
2.23 2.12 2.04 2.18 2.25 2.29 2.28 2.47 2.65 2.78 2.76 2.79 2.71 2.43 2.37 2.23 1.87 1.80 1.68 1.58 1.59 1.41 1.36 1.46 1.52 1.52 1.54 1.49 1.40 1.35 1.05 0.90 0.92 1.20 1.58 1.94 2.41 2.36 2.24 2.15 1.92 1.80 1.63
2.05 2.09 1.97 1.96 1.99 1.95 1.99 2.12 2.20 2.27 2.41 2.58 2.49 2.28 2.24 2.08 2.05 2.06 1.95 1.73 1.57 1.36 1.39 1.39 1.38 1.38 1.37 1.41 1.46 1.53 1.16 0.95 0.92 1.03 1.31 1.55 1.92 2.24 2.39 2.31 2.18 2.14 2.07
1.74 1.82 1.82 1.76 1.80 1.85 1.86 1.94 1.96 1.98 2.01 2.09 2.09 2.18 2.24 2.10 2.02 1.95 1.98 2.14 1.90 1.66 1.51 1.38 1.38 1.40 1.34 1.32 1.49 1.54 1.21 1.06 0.93 0.88 0.99 1.22 1.52 1.89 2.13 2.17 2.21 2.31 2.29
1.30 1.36 1.45 1.53 1.62 1.67 1.73 1.87 1.94 1.94 1.91 1.89 1.99 2.06 2.02 2.02 1.99 1.88 1.85 2.00 2.09 1.94 1.79 1.62 1.48 1.40 1.41 1.34 1.44 1.28 1.23 1.17 1.00 0.94 0.93 0.89 1.05 1.36 1.57 1.78 1.96 1.97 2.07
0.98 1.03 1.13 1.29 1.51 1.64 1.68 1.75 1.80 1.88 1.93 1.90 1.99 2.09 2.12 2.13 2.14 2.06 1.93 1.91 1.87 1.90 1.82 1.61 1.42 1.33 1.45 1.33 1.44 1.26 1.22 1.37 1.17 1.07 1.01 0.90 0.87 0.92 1.05 1.24 1.45 1.58 1.62
0.83 0.95 0.99 1.12 1.26 1.45 1.63 1.78 1.79 1.79 1.84 1.83 1.78 1.89 2.02 2.11 2.22 2.23 2.22 2.10 1.95 1.90 1.82 1.66 1.46 1.33 1.47 1.52 1.45 1.40 1.28 1.22 1.22 1.19 1.08 1.02 0.94 0.81 0.87 0.97 1.14 1.30 1.39
0.66 0.75 0.89 1.08 1.19 1.27 1.31 1.40 1.48 1.53 1.57 1.63 1.62 1.60 1.67 1.78 1.94 2.09 2.17 2.11 2.09 1.99 1.90 1.87 1.69 1.44 1.35 1.44 1.49 1.58 1.50 1.28 1.25 1.33 1.25 1.13 1.05 0.90 0.80 0.83 0.94 1.01 1.06
0.66 0.69 0.82 0.98 1.03 1.08 1.12 1.14 1.24 1.33 1.35 1.34 1.40 1.37 1.38 1.47 1.62 1.77 1.86 1.93 2.04 2.08 2.08 1.97 1.88 1.70 1.45 1.47 1.56 1.60 1.63 1.69 1.44 1.34 1.35 1.29 1.19 1.09 1.01 0.92 0.89 0.91 0.88
0.70 0.73 0.88 0.96 0.97 0.93 1.02 1.06 1.11 1.15 1.12 1.07 1.10 1.11 1.15 1.20 1.29 1.43 1.57 1.79 1.97 2.08 2.14 2.13 2.02 1.80 1.64 1.61 1.61 1.63 1.72 1.79 1.75 1.51 1.41 1.33 1.36 1.31 1.17 1.07 0.99 0.96 0.96
0.72 0.76 0.80 0.90 0.94 0.91 0.95 1.01 1.01 0.95 0.94 0.94 0.90 0.81 0.82 0.90 0.93 1.02 1.06 1.35 1.61 1.83 1.95 2.03 2.00 1.86 1.65 1.54 1.42 1.47 1.61 1.78 1.85 1.81 1.71 1.44 1.37 1.33 1.28 1.22 1.13 1.05 1.01
0.61 0.64 0.68 0.84 0.94 0.84 0.95 0.95 0.87 0.80 0.77 0.82 0.79 0.72 0.70 0.74 0.66 0.63 0.67 0.90 1.19 1.39 1.58 1.76 1.82 1.70 1.56 1.47 1.52 1.52 1.53 1.60 1.63 1.56 1.56 1.57 1.49 1.40 1.33 1.26 1.26 1.24 1.16
0.53 0.58 0.61 0.76 0.85 0.93 0.87 0.73 0.76 0.75 0.76 0.78 0.81 0.83 0.75 0.71 0.79 0.70 0.64 0.71 0.80 0.92 1.08 1.34 1.57 1.56 1.65 1.58 1.49 1.43 1.45 1.49 1.49 1.55 1.55 1.56 1.46 1.37 1.25 1.21 1.34 1.27 1.27
0.50 0.55 0.58 0.61 0.69 0.82 0.77 0.62 0.66 0.65 0.76 0.83 0.86 0.94 0.95 0.89 0.87 0.95 0.89 0.90 0.87 0.80 0.87 0.79 1.00 1.38 1.53 1.59 1.54 1.56 1.66 1.59 1.46 1.50 1.52 1.54 1.46 1.34 1.20 1.11 1.21 1.13 1.07
0.54 0.55 0.58 0.60 0.65 0.70 0.67 0.60 0.63 0.69 0.82 0.84 0.79 0.91 0.95 0.90 0.94 1.00 1.12 1.19 1.11 0.96 1.07 1.07 0.99 1.10 1.24 1.30 1.41 1.51 1.57 1.50 1.46 1.38 1.28 1.25 1.21 1.24 1.28 1.19 1.15 1.19 1.09
0.51 0.53 0.51 0.50 0.54 0.56 0.61 0.53 0.65 0.75 0.80 0.81 0.82 0.88 1.02 0.95 0.93 0.90 0.99 1.13 1.12 0.99 0.87 0.91 0.88 0.78 0.72 0.82 1.02 1.19 1.48 1.59 1.54 1.44 1.24 1.17 1.19 1.19 1.23 1.16 1.06 1.08 1.06

GEFSMA_prec_meanprecacc_204.txt.gz
Total_Precipitation_Accumulation
0.81 0.75 0.64 0.66 0.61 0.64 0.72 0.77 0.80 0.83 0.92 0.88 0.85 0.88 0.90 0.86 0.78 0.77 0.94 1.21 1.68 2.03 1.96 1.78 1.59 1.60 1.61 1.47 1.48 1.64 1.81 1.90 1.84 1.84 1.95 2.05 1.94 1.79 1.70 1.60 1.60 1.54 1.44
0.74 0.77 0.73 0.74 0.74 0.72 0.72 0.73 0.73 0.86 0.93 0.96 0.94 0.92 0.91 0.79 0.78 0.87 1.03 1.11 1.17 1.52 2.01 2.09 2.03 1.92 1.82 1.60 1.51 1.64 1.74 1.77 1.71 1.78 1.84 1.87 1.77 1.57 1.46 1.56 1.73 1.52 1.30
0.70 0.75 0.78 0.80 0.82 0.81 0.81 0.84 0.85 0.94 0.94 1.02 1.05 0.93 0.87 0.81 0.79 0.87 0.94 1.02 0.86 0.90 1.38 1.98 2.23 2.09 2.03 1.89 1.69 1.68 1.72 1.78 1.66 1.78 1.79 1.79 1.62 1.51 1.39 1.54 1.70 1.58 1.34
0.73 0.81 0.84 0.88 0.94 0.85 0.82 0.91 0.98 1.06 1.06 1.13 1.17 1.00 0.83 0.90 0.86 0.86 0.99 1.01 0.97 0.90 1.08 1.32 1.59 1.75 2.04 2.21 2.03 1.92 1.80 1.71 1.57 1.67 1.72 1.71 1.57 1.49 1.39 1.53 1.56 1.56 1.47
0.91 0.98 1.03 1.06 1.08 1.09 1.02 0.93 0.97 1.08 1.20 1.24 1.13 1.04 0.93 0.92 0.94 0.93 1.10 1.11 1.05 1.05 1.15 1.08 1.10 1.24 1.53 1.96 2.11 2.11 1.90 1.65 1.49 1.53 1.55 1.45 1.49 1.45 1.31 1.38 1.44 1.45 1.46
1.19 1.29 1.27 1.22 1.29 1.39 1.43 1.23 1.28 1.24 1.21 1.31 1.17 1.09 1.07 1.02 1.02 1.07 1.12 1.18 1.26 1.17 1.22 1.14 1.04 0.87 1.07 1.42 1.74 2.04 2.09 1.91 1.65 1.58 1.62 1.40 1.33 1.39 1.29 1.23 1.30 1.37 1.37
1.52 1.68 1.66 1.64 1.65 1.65 1.62 1.57 1.71 1.65 1.40 1.32 1.51 1.49 1.35 1.19 1.14 1.11 1.12 1.27 1.39 1.39 1.44 1.37 1.24 1.06 0.94 0.95 1.13 1.67 2.02 2.16 2.08 1.85 1.87 1.71 1.39 1.29 1.28 1.23 1.24 1.32 1.36
1.74 1.78 1.99 2.10 2.07 2.19 2.17 1.99 2.14 2.15 1.79 1.55 1.81 2.11 1.84 1.63 1.23 1.11 1.17 1.21 1.31 1.46 1.55 1.43 1.28 1.17 1.12 1.06 0.90 1.18 1.47 1.94 2.21 2.04 2.11 2.12 1.63 1.34 1.21 1.20 1.24 1.29 1.40
1.89 1.91 2.03 2.21 2.22 2.30 2.41 2.48 2.42 2.53 2.35 1.95 1.81 2.10 2.02 1.88 1.68 1.29 1.20 1.28 1.41 1.50 1.57 1.58 1.43 1.21 1.18 1.21 1.01 0.93 1.07 1.26 1.73 1.99 2.14 2.35 1.96 1.50 1.22 1.18 1.19 1.19 1.32
2.08 2.16 2.18 2.30 2.32 2.34 2.45 2.55 2.52 2.66 2.74 2.35 2.05 1.84 1.67 1.68 1.81 1.59 1.35 1.30 1.46 1.50 1.53 1.57 1.62 1.46 1.29 1.30 1.17 0.96 0.95 1.00 1.25 1.76 2.07 2.35 2.25 1.78 1.39 1.30 1.32 1.24 1.29
2.19 2.23 2.30 2.46 2.46 2.44 2.42 2.63 2.68 2.78 2.71 2.62 2.47 2.31 2.14 1.90 1.55 1.64 1.68 1.53 1.44 1.35 1.42 1.56 1.72 1.67 1.51 1.44 1.50 1.15 0.90 0.88 0.98 1.50 1.90 2.36 2.47 2.14 1.85 1.70 1.56 1.45 1.30
2.23 2.12 2.04 2.18 2.25 2.29 2.28 2.47 2.65 2.79 2.77 2.79 2.71 2.43 2.37 2.24 1.87 1.81 1.69 1.60 1.61 1.42 1.36 1.46 1.52 1.53 1.55 1.50 1.40 1.35 1.05 0.90 0.92 1.22 1.60 1.97 2.43 2.39 2.28 2.19 1.97 1.85 1.67
2.06 2.10 1.98 1.97 2.00 1.95 1.99 2.12 2.20 2.28 2.42 2.58 2.49 2.28 2.24 2.08 2.05 2.06 1.97 1.74 1.58 1.36 1.39 1.40 1.38 1.39 1.38 1.42 1.47 1.53 1.16 0.95 0.93 1.04 1.33 1.57 1.94 2.25 2.42 2.35 2.23 2.21 2.12
1.74 1.83 1.83 1.77 1.81 1.85 1.86 1.95 1.96 1.98 2.02 2.10 2.09 2.18 2.24 2.10 2.02 1.96 2.00 2.15 1.92 1.68 1.52 1.39 1.39 1.42 1.37 1.34 1.50 1.54 1.22 1.07 0.94 0.91 1.03 1.26 1.55 1.92 2.16 2.20 2.25 2.35 2.33
1.31 1.37 1.46 1.54 1.63 1.68 1.73 1.88 1.95 1.94 1.91 1.90 1.99 2.06 2.03 2.02 2.00 1.89 1.87 2.02 2.12 1.96 1.81 1.63 1.50 1.43 1.45 1.37 1.46 1.30 1.25 1.19 1.03 0.98 1.00 0.96 1.10 1.42 1.62 1.80 1.98 1.99 2.09
0.99 1.04 1.14 1.31 1.53 1.65 1.69 1.76 1.81 1.89 1.93 1.90 1.99 2.10 2.13 2.13 2.14 2.07 1.94 1.93 1.89 1.92 1.84 1.62 1.44 1.36 1.49 1.36 1.47 1.29 1.24 1.39 1.20 1.12 1.04 0.91 0.89 0.95 1.08 1.26 1.46 1.59 1.64
0.85 0.96 1.00 1.14 1.30 1.47 1.66 1.80 1.81 1.81 1.85 1.83 1.79 1.89 2.02 2.11 2.23 2.24 2.23 2.11 1.97 1.92 1.84 1.68 1.48 1.35 1.49 1.55 1.48 1.43 1.31 1.24 1.24 1.22 1.09 1.03 0.95 0.82 0.89 0.98 1.15 1.31 1.40
0.68 0.76 0.90 1.09 1.21 1.29 1.33 1.42 1.50 1.54 1.58 1.64 1.63 1.60 1.68 1.78 1.94 2.09 2.18 2.13 2.11 2.01 1.92 1.89 1.70 1.45 1.36 1.46 1.52 1.60 1.51 1.29 1.25 1.34 1.27 1.16 1.07 0.90 0.81 0.84 0.95 1.02 1.06
0.67 0.70 0.83 0.98 1.04 1.09 1.13 1.15 1.25 1.34 1.36 1.35 1.40 1.37 1.39 1.47 1.62 1.77 1.86 1.94 2.05 2.09 2.09 1.99 1.89 1.71 1.47 1.49 1.58 1.61 1.64 1.69 1.45 1.35 1.36 1.31 1.21 1.11 1.02 0.93 0.90 0.92 0.89
0.70 0.74 0.88 0.96 0.98 0.94 1.03 1.06 1.12 1.16 1.12 1.07 1.11 1.11 1.16 1.21 1.29 1.43 1.58 1.80 1.98 2.09 2.15 2.14 2.03 1.81 1.65 1.63 1.62 1.64 1.73 1.79 1.75 1.52 1.42 1.34 1.38 1.33 1.18 1.08 1.00 0.97 0.97
0.73 0.76 0.81 0.90 0.94 0.91 0.96 1.02 1.02 0.96 0.96 0.95 0.90 0.81 0.83 0.90 0.93 1.02 1.07 1.36 1.61 1.84 1.96 2.03 2.01 1.86 1.65 1.56 1.44 1.47 1.62 1.78 1.86 1.81 1.72 1.45 1.38 1.34 1.29 1.23 1.14 1.06 1.01
0.61 0.64 0.69 0.84 0.94 0.84 0.95 0.96 0.88 0.81 0.78 0.83 0.80 0.72 0.70 0.74 0.66 0.63 0.68 0.90 1.20 1.40 1.58 1.76 1.82 1.70 1.56 1.49 1.53 1.53 1.54 1.60 1.63 1.56 1.56 1.57 1.50 1.41 1.34 1.28 1.27 1.24 1.17
0.54 0.59 0.62 0.76 0.85 0.93 0.87 0.73 0.77 0.76 0.77 0.80 0.81 0.84 0.76 0.71 0.79 0.71 0.65 0.72 0.80 0.92 1.08 1.35 1.58 1.56 1.65 1.58 1.49 1.44 1.46 1.49 1.50 1.55 1.56 1.56 1.47 1.38 1.28 1.24 1.36 1.29 1.30
0.51 0.55 0.59 0.61 0.69 0.83 0.77 0.62 0.67 0.66 0.77 0.84 0.87 0.95 0.96 0.89 0.88 0.95 0.89 0.90 0.87 0.80 0.87 0.80 1.01 1.39 1.53 1.59 1.54 1.57 1.66 1.59 1.47 1.50 1.52 1.55 1.48 1.36 1.22 1.15 1.24 1.15 1.10
0.54 0.55 0.58 0.60 0.66 0.70 0.68 0.61 0.64 0.69 0.83 0.84 0.80 0.91 0.96 0.90 0.95 1.01 1.12 1.19 1.11 0.96 1.07 1.08 0.99 1.10 1.24 1.30 1.41 1.51 1.58 1.51 1.47 1.39 1.28 1.26 1.22 1.25 1.30 1.21 1.17 1.20 1.10
0.52 0.54 0.52 0.51 0.55 0.56 0.62 0.54 0.65 0.76 0.81 0.81 0.82 0.88 1.02 0.95 0.93 0.90 0.99 1.14 1.13 1.00 0.87 0.91 0.88 0.78 0.72 0.83 1.02 1.20 1.48 1.60 1.54 1.45 1.25 1.18 1.21 1.19 1.23 1.16 1.06 1.09 1.06

GEFSMA_prec_meanprecacc_210.txt.gz
Total_Precipitation_Accumulation
0.84 0.77 0.65 0.67 0.63 0.66 0.75 0.80 0.83 0.86 0.94 0.90 0.87 0.90 0.93 0.88 0.80 0.79 0.97 1.23 1.70 2.07 2.03 1.87 1.68 1.68 1.67 1.51 1.53 1.69 1.85 1.95 1.92 1.92 2.01 2.10 2.00 1.85 1.77 1.69 1.68 1.61 1.51
0.76 0.78 0.74 0.75 0.76 0.73 0.74 0.75 0.74 0.88 0.95 0.98 0.96 0.94 0.92 0.83 0.81 0.90 1.06 1.13 1.19 1.55 2.07 2.17 2.11 1.99 1.89 1.67 1.59 1.70 1.79 1.82 1.78 1.85 1.90 1.91 1.81 1.62 1.50 1.62 1.81 1.60 1.39
0.71 0.76 0.79 0.81 0.82 0.82 0.82 0.85 0.86 0.96 0.96 1.04 1.07 0.95 0.89 0.86 0.82 0.88 0.97 1.07 0.89 0.92 1.40 2.00 2.27 2.14 2.10 1.96 1.76 1.74 1.78 1.85 1.74 1.86 1.85 1.84 1.67 1.55 1.43 1.60 1.77 1.66 1.44
0.74 0.82 0.84 0.89 0.94 0.86 0.84 0.93 1.00 1.08 1.08 1.15 1.18 1.02 0.85 0.94 0.88 0.88 1.01 1.05 1.01 0.94 1.10 1.33 1.60 1.79 2.10 2.27 2.10 1.99 1.88 1.78 1.63 1.73 1.78 1.76 1.61 1.52 1.42 1.57 1.61 1.61 1.58
0.92 0.99 1.04 1.06 1.08 1.09 1.03 0.94 0.98 1.10 1.22 1.26 1.14 1.05 0.94 0.95 0.97 0.94 1.12 1.14 1.12 1.12 1.18 1.10 1.12 1.27 1.59 2.06 2.24 2.20 1.97 1.71 1.54 1.58 1.61 1.49 1.53 1.50 1.35 1.42 1.48 1.52 1.56
1.19 1.30 1.28 1.22 1.30 1.40 1.44 1.24 1.30 1.26 1.22 1.33 1.18 1.11 1.09 1.03 1.03 1.09 1.13 1.25 1.39 1.25 1.26 1.19 1.09 0.90 1.10 1.48 1.84 2.14 2.17 2.00 1.73 1.65 1.69 1.44 1.38 1.43 1.34 1.27 1.34 1.42 1.44
1.52 1.70 1.67 1.64 1.66 1.66 1.63 1.58 1.73 1.67 1.42 1.34 1.55 1.53 1.37 1.20 1.15 1.12 1.17 1.39 1.53 1.47 1.50 1.42 1.30 1.11 0.98 0.98 1.19 1.78 2.13 2.28 2.17 1.92 1.92 1.75 1.43 1.32 1.31 1.28 1.30 1.38 1.44
1.75 1.79 2.00 2.11 2.08 2.21 2.18 2.01 2.16 2.19 1.82 1.57 1.85 2.18 1.90 1.67 1.26 1.15 1.25 1.32 1.44 1.55 1.60 1.47 1.32 1.21 1.15 1.08 0.92 1.25 1.58 2.07 2.32 2.12 2.17 2.17 1.68 1.38 1.25 1.25 1.29 1.34 1.46
1.91 1.92 2.04 2.21 2.23 2.31 2.43 2.51 2.46 2.57 2.38 1.97 1.83 2.14 2.09 1.95 1.72 1.32 1.26 1.37 1.54 1.62 1.65 1.64 1.47 1.23 1.20 1.23 1.03 0.96 1.12 1.34 1.83 2.11 2.23 2.41 2.01 1.55 1.27 1.22 1.23 1.22 1.35
2.09 2.17 2.19 2.30 2.33 2.35 2.46 2.56 2.53 2.68 2.76 2.37 2.06 1.85 1.69 1.72 1.84 1.62 1.40 1.36 1.54 1.59 1.60 1.62 1.66 1.50 1.32 1.33 1.20 0.98 0.98 1.05 1.34 1.86 2.14 2.38 2.28 1.81 1.42 1.33 1.35 1.28 1.33
2.20 2.24 2.31 2.47 2.46 2.45 2.43 2.64 2.70 2.80 2.72 2.64 2.49 2.32 2.16 1.92 1.57 1.67 1.73 1.58 1.47 1.38 1.46 1.60 1.76 1.71 1.54 1.47 1.54 1.21 0.97 0.97 1.06 1.54 1.93 2.39 2.51 2.18 1.89 1.74 1.60 1.50 1.35
2.24 2.13 2.05 2.19 2.26 2.30 2.29 2.48 2.66 2.80 2.79 2.80 2.72 2.43 2.39 2.26 1.90 1.84 1.72 1.62 1.64 1.44 1.39 1.49 1.55 1.55 1.57 1.53 1.44 1.40 1.11 0.94 0.95 1.22 1.61 1.99 2.45 2.41 2.30 2.22 2.00 1.89 1.71
2.07 2.11 1.99 1.98 2.01 1.96 2.01 2.13 2.20 2.28 2.43 2.59 2.51 2.30 2.26 2.09 2.06 2.08 1.99 1.77 1.61 1.39 1.41 1.41 1.39 1.40 1.39 1.43 1.48 1.53 1.17 0.95 0.93 1.04 1.33 1.58 1.95 2.26 2.43 2.37 2.26 2.25 2.16
1.76 1.85 1.84 1.78 1.82 1.86 1.87 1.97 1.99 1.99 2.02 2.10 2.09 2.19 2.25 2.11 2.03 1.97 2.02 2.18 1.95 1.71 1.56 1.41 1.39 1.43 1.38 1.36 1.51 1.55 1.22 1.07 0.95 0.91 1.03 1.27 1.56 1.93 2.17 2.22 2.27 2.38 2.36
1.32 1.39 1.48 1.55 1.64 1.69 1.75 1.90 1.99 1.98 1.94 1.91 2.00 2.07 2.03 2.02 2.00 1.90 1.88 2.05 2.15 2.00 1.85 1.66 1.52 1.45 1.47 1.39 1.47 1.31 1.26 1.19 1.04 0.98 1.00 0.97 1.12 1.43 1.63 1.82 1.99 2.01 2.12
1.01 1.06 1.16 1.32 1.55 1.67 1.70 1.78 1.84 1.93 1.96 1.92 2.01 2.11 2.13 2.13 2.14 2.08 1.96 1.95 1.91 1.96 1.87 1.65 1.46 1.38 1.51 1.38 1.48 1.30 1.24 1.39 1.20 1.12 1.04 0.92 0.90 0.97 1.09 1.28 1.48 1.61 1.65
0.86 0.97 1.01 1.16 1.31 1.49 1.67 1.81 1.83 1.83 1.87 1.86 1.80 1.90 2.03 2.12 2.23 2.25 2.24 2.13 1.99 1.95 1.86 1.70 1.50 1.37 1.52 1.57 1.50 1.43 1.31 1.24 1.24 1.23 1.10 1.05 0.96 0.84 0.91 1.01 1.18 1.33 1.41
0.69 0.77 0.90 1.10 1.22 1.30 1.34 1.43 1.51 1.55 1.60 1.66 1.65 1.61 1.69 1.79 1.95 2.10 2.20 2.14 2.13 2.03 1.93 1.91 1.73 1.48 1.40 1.49 1.54 1.62 1.53 1.30 1.27 1.36 1.29 1.18 1.08 0.92 0.84 0.87 0.98 1.04 1.08
0.68 0.71 0.84 0.99 1.05 1.10 1.14 1.16 1.26 1.35 1.37 1.36 1.42 1.39 1.40 1.49 1.63 1.78 1.87 1.96 2.07 2.10 2.11 2.01 1.92 1.74 1.50 1.52 1.60 1.63 1.66 1.71 1.47 1.38 1.38 1.32 1.23 1.12 1.04 0.96 0.93 0.94 0.91
0.72 0.75 0.89 0.97 0.98 0.94 1.03 1.07 1.12 1.16 1.13 1.08 1.11 1.12 1.17 1.22 1.31 1.44 1.58 1.80 1.99 2.10 2.17 2.15 2.05 1.83 1.67 1.64 1.63 1.65 1.74 1.81 1.78 1.54 1.43 1.35 1.39 1.34 1.20 1.09 1.02 0.99 0.98
0.74 0.76 0.81 0.91 0.94 0.92 0.96 1.03 1.02 0.97 0.96 0.96 0.91 0.81 0.83 0.92 0.94 1.03 1.07 1.36 1.62 1.85 1.97 2.04 2.02 1.87 1.67 1.57 1.45 1.48 1.62 1.80 1.87 1.82 1.73 1.45 1.39 1.35 1.29 1.24 1.15 1.07 1.02
0.62 0.65 0.69 0.84 0.94 0.84 0.96 0.96 0.88 0.81 0.79 0.84 0.80 0.73 0.71 0.75 0.67 0.64 0.68 0.91 1.20 1.40 1.59 1.77 1.83 1.71 1.57 1.50 1.55 1.54 1.54 1.61 1.64 1.57 1.57 1.58 1.50 1.42 1.35 1.28 1.28 1.25 1.17
0.54 0.59 0.62 0.76 0.86 0.93 0.88 0.73 0.77 0.76 0.77 0.81 0.83 0.85 0.77 0.72 0.80 0.71 0.65 0.72 0.80 0.92 1.08 1.35 1.58 1.57 1.66 1.59 1.50 1.45 1.46 1.50 1.50 1.55 1.56 1.57 1.48 1.40 1.29 1.26 1.38 1.30 1.30
0.51 0.56 0.59 0.62 0.69 0.83 0.77 0.62 0.67 0.66 0.77 0.85 0.89 0.97 0.98 0.92 0.89 0.96 0.90 0.91 0.88 0.80 0.87 0.80 1.01 1.39 1.53 1.59 1.55 1.58 1.67 1.60 1.47 1.51 1.53 1.55 1.48 1.37 1.24 1.16 1.25 1.16 1.10
0.55 0.57 0.59 0.61 0.66 0.70 0.68 0.61 0.64 0.70 0.83 0.85 0.81 0.93 0.97 0.92 0.97 1.02 1.13 1.19 1.12 0.96 1.07 1.08 0.99 1.10 1.25 1.30 1.42 1.52 1.58 1.51 1.47 1.40 1.29 1.26 1.23 1.26 1.31 1.22 1.18 1.20 1.11
0.55 0.56 0.54 0.53 0.56 0.57 0.63 0.54 0.66 0.77 0.82 0.84 0.85 0.91 1.05 0.98 0.95 0.91 0.99 1.14 1.14 1.01 0.88 0.91 0.88 0.78 0.72 0.83 1.02 1.20 1.48 1.61 1.56 1.46 1.26 1.20 1.22 1.20 1.25 1.17 1.07 1.10 1.08

GEFSMA_prec_meanprecacc_216.txt.gz
Total_Precipitation_Accumulation
0.88 0.80 0.67 0.68 0.64 0.68 0.76 0.81 0.85 0.89 0.95 0.91 0.88 0.92 0.94 0.90 0.82 0.80 0.98 1.26 1.74 2.12 2.11 1.96 1.77 1.75 1.72 1.55 1.57 1.74 1.90 2.00 1.96 1.95 2.06 2.14 2.05 1.91 1.82 1.72 1.73 1.66 1.55
0.79 0.81 0.76 0.76 0.77 0.76 0.76 0.76 0.75 0.89 0.96 0.99 0.97 0.96 0.94 0.84 0.83 0.91 1.07 1.14 1.22 1.59 2.16 2.27 2.18 2.06 1.95 1.72 1.65 1.75 1.85 1.88 1.83 1.89 1.94 1.95 1.85 1.65 1.53 1.65 1.84 1.63 1.43
0.73 0.78 0.82 0.83 0.83 0.84 0.83 0.86 0.87 0.96 0.97 1.05 1.09 0.96 0.90 0.87 0.83 0.89 0.98 1.08 0.90 0.94 1.45 2.06 2.31 2.19 2.14 2.01 1.80 1.78 1.83 1.90 1.79 1.91 1.90 1.88 1.70 1.57 1.46 1.62 1.80 1.69 1.48
0.74 0.82 0.85 0.90 0.95 0.86 0.84 0.94 1.00 1.09 1.09 1.16 1.19 1.02 0.86 0.94 0.89 0.89 1.02 1.05 1.03 0.95 1.10 1.34 1.63 1.84 2.17 2.33 2.14 2.03 1.93 1.83 1.68 1.77 1.83 1.79 1.63 1.54 1.44 1.60 1.65 1.66 1.62
0.93 1.00 1.04 1.07 1.09 1.10 1.03 0.94 0.99 1.12 1.24 1.28 1.15 1.06 0.95 0.96 0.98 0.95 1.12 1.15 1.13 1.13 1.19 1.11 1.13 1.29 1.64 2.13 2.30 2.25 2.03 1.77 1.59 1.63 1.65 1.53 1.56 1.53 1.39 1.46 1.52 1.56 1.63
1.19 1.31 1.30 1.23 1.30 1.40 1.44 1.25 1.30 1.28 1.25 1.34 1.19 1.12 1.10 1.04 1.04 1.10 1.16 1.28 1.41 1.27 1.27 1.20 1.10 0.92 1.14 1.54 1.92 2.22 2.24 2.08 1.81 1.70 1.74 1.49 1.41 1.47 1.39 1.32 1.38 1.47 1.50
1.53 1.71 1.69 1.66 1.66 1.66 1.63 1.58 1.73 1.68 1.43 1.35 1.55 1.54 1.38 1.21 1.16 1.15 1.21 1.44 1.56 1.48 1.50 1.43 1.30 1.13 1.01 1.00 1.23 1.84 2.20 2.34 2.24 1.98 1.97 1.79 1.46 1.35 1.33 1.31 1.33 1.43 1.49
1.76 1.80 2.01 2.11 2.09 2.21 2.19 2.01 2.16 2.20 1.82 1.58 1.86 2.19 1.91 1.68 1.27 1.18 1.31 1.37 1.48 1.56 1.61 1.48 1.33 1.22 1.17 1.09 0.93 1.28 1.61 2.11 2.37 2.18 2.22 2.21 1.71 1.40 1.27 1.27 1.32 1.38 1.50
1.91 1.93 2.05 2.22 2.24 2.32 2.44 2.52 2.46 2.57 2.38 1.98 1.85 2.15 2.10 1.95 1.74 1.38 1.33 1.41 1.58 1.63 1.67 1.65 1.48 1.24 1.21 1.23 1.04 0.97 1.14 1.38 1.90 2.18 2.30 2.46 2.06 1.59 1.30 1.25 1.26 1.25 1.39
2.10 2.18 2.20 2.33 2.34 2.36 2.47 2.57 2.53 2.68 2.77 2.38 2.07 1.86 1.71 1.72 1.86 1.68 1.47 1.43 1.59 1.62 1.62 1.64 1.67 1.50 1.33 1.35 1.22 0.99 0.98 1.06 1.38 1.92 2.20 2.45 2.32 1.84 1.45 1.36 1.38 1.32 1.37
2.21 2.25 2.32 2.50 2.48 2.46 2.45 2.65 2.70 2.80 2.73 2.65 2.50 2.32 2.16 1.92 1.58 1.70 1.77 1.64 1.54 1.44 1.49 1.62 1.77 1.72 1.56 1.48 1.55 1.21 0.97 0.98 1.09 1.58 1.97 2.43 2.54 2.20 1.91 1.77 1.64 1.54 1.38
2.24 2.14 2.06 2.21 2.28 2.32 2.32 2.50 2.67 2.81 2.79 2.81 2.73 2.44 2.39 2.26 1.91 1.85 1.75 1.66 1.68 1.49 1.42 1.50 1.57 1.57 1.58 1.55 1.45 1.41 1.12 0.97 1.00 1.25 1.63 2.00 2.47 2.43 2.32 2.25 2.04 1.93 1.74
2.08 2.11 2.00 1.98 2.02 1.98 2.03 2.15 2.22 2.29 2.44 2.60 2.51 2.30 2.26 2.10 2.06 2.09 2.00 1.78 1.63 1.41 1.43 1.42 1.41 1.41 1.40 1.45 1.49 1.54 1.17 0.97 0.95 1.06 1.33 1.59 1.96 2.28 2.45 2.40 2.28 2.28 2.19
1.76 1.85 1.85 1.79 1.83 1.87 1.88 1.97 2.00 2.00 2.03 2.11 2.10 2.19 2.26 2.11 2.03 1.98 2.03 2.19 1.97 1.73 1.57 1.41 1.40 1.43 1.39 1.36 1.51 1.55 1.22 1.07 0.95 0.91 1.03 1.27 1.56 1.94 2.20 2.24 2.29 2.40 2.38
1.33 1.40 1.49 1.56 1.65 1.69 1.75 1.91 2.00 1.99 1.95 1.92 2.01 2.08 2.04 2.02 2.01 1.90 1.88 2.05 2.16 2.01 1.86 1.67 1.53 1.46 1.48 1.40 1.48 1.32 1.26 1.19 1.04 0.99 1.00 0.97 1.12 1.45 1.66 1.84 2.01 2.02 2.14
1.02 1.06 1.17 1.33 1.56 1.68 1.71 1.79 1.86 1.95 1.98 1.93 2.02 2.12 2.15 2.15 2.16 2.09 1.96 1.95 1.92 1.97 1.88 1.67 1.48 1.40 1.52 1.39 1.50 1.31 1.25 1.40 1.20 1.12 1.04 0.93 0.91 0.99 1.12 1.30 1.50 1.63 1.66
0.86 0.98 1.02 1.17 1.32 1.50 1.68 1.82 1.84 1.85 1.89 1.88 1.82 1.92 2.04 2.13 2.25 2.27 2.25 2.13 2.00 1.95 1.87 1.73 1.53 1.42 1.57 1.58 1.50 1.44 1.32 1.25 1.24 1.23 1.10 1.05 0.98 0.87 0.93 1.02 1.20 1.34 1.43
0.70 0.77 0.91 1.11 1.23 1.31 1.36 1.44 1.52 1.58 1.63 1.69 1.67 1.64 1.71 1.81 1.97 2.12 2.21 2.15 2.14 2.03 1.94 1.94 1.77 1.53 1.44 1.52 1.56 1.64 1.54 1.30 1.27 1.36 1.29 1.19 1.11 0.95 0.86 0.89 1.00 1.06 1.10
0.69 0.72 0.85 1.00 1.06 1.12 1.16 1.17 1.28 1.37 1.38 1.38 1.45 1.41 1.42 1.50 1.65 1.80 1.90 1.98 2.09 2.11 2.11 2.02 1.94 1.77 1.54 1.55 1.62 1.64 1.67 1.72 1.48 1.40 1.40 1.34 1.25 1.14 1.05 0.97 0.94 0.95 0.92
0.73 0.75 0.90 0.98 1.00 0.96 1.05 1.08 1.14 1.17 1.14 1.09 1.14 1.15 1.19 1.24 1.33 1.47 1.62 1.83 2.01 2.11 2.18 2.16 2.06 1.84 1.68 1.66 1.64 1.66 1.75 1.82 1.79 1.56 1.44 1.37 1.40 1.35 1.20 1.10 1.03 1.00 1.00
0.76 0.78 0.83 0.93 0.97 0.95 0.99 1.05 1.04 0.98 0.98 0.97 0.92 0.83 0.85 0.93 0.97 1.06 1.10 1.39 1.64 1.86 1.98 2.05 2.03 1.88 1.68 1.58 1.46 1.49 1.63 1.81 1.88 1.83 1.74 1.46 1.39 1.35 1.30 1.24 1.15 1.07 1.03
0.64 0.66 0.70 0.86 0.97 0.87 0.98 0.98 0.90 0.83 0.80 0.85 0.81 0.74 0.72 0.76 0.69 0.67 0.71 0.93 1.22 1.42 1.59 1.78 1.84 1.72 1.58 1.51 1.56 1.55 1.55 1.61 1.65 1.58 1.58 1.59 1.51 1.42 1.35 1.29 1.29 1.26 1.18
0.56 0.60 0.63 0.78 0.87 0.95 0.89 0.74 0.78 0.77 0.78 0.82 0.84 0.86 0.78 0.73 0.82 0.73 0.67 0.74 0.82 0.93 1.09 1.36 1.59 1.57 1.66 1.60 1.51 1.45 1.46 1.50 1.50 1.56 1.56 1.57 1.48 1.40 1.30 1.26 1.38 1.30 1.30
0.54 0.57 0.60 0.63 0.71 0.84 0.78 0.63 0.67 0.66 0.77 0.86 0.90 0.97 0.99 0.93 0.91 0.98 0.92 0.92 0.89 0.81 0.89 0.81 1.02 1.39 1.53 1.60 1.55 1.58 1.67 1.60 1.48 1.51 1.53 1.55 1.48 1.38 1.24 1.17 1.26 1.17 1.11
0.58 0.58 0.61 0.62 0.67 0.72 0.69 0.62 0.64 0.70 0.84 0.86 0.82 0.93 0.98 0.94 1.00 1.06 1.16 1.22 1.15 0.99 1.10 1.10 1.00 1.11 1.25 1.31 1.42 1.52 1.59 1.52 1.48 1.40 1.29 1.26 1.23 1.26 1.31 1.23 1.19 1.22 1.12
0.57 0.58 0.56 0.54 0.56 0.58 0.64 0.56 0.67 0.77 0.82 0.84 0.85 0.91 1.06 0.99 0.97 0.94 1.02 1.16 1.14 1.01 0.89 0.92 0.89 0.78 0.72 0.83 1.03 1.20 1.49 1.61 1.56 1.46 1.27 1.20 1.23 1.21 1.25 1.18 1.08 1.10 1.09

GEFSMA_prec_meanprecacc_222.txt.gz
Total_Precipitation_Accumulation
0.90 0.83 0.70 0.69 0.65 0.68 0.76 0.81 0.85 0.91 0.97 0.92 0.89 0.93 0.96 0.91 0.82 0.80 0.99 1.29 1.79 2.19 2.20 2.06 1.86 1.81 1.77 1.60 1.61 1.78 1.96 2.06 2.05 2.01 2.11 2.19 2.11 1.97 1.87 1.76 1.76 1.70 1.59
0.82 0.85 0.80 0.79 0.78 0.77 0.77 0.76 0.76 0.91 0.97 1.01 0.99 0.97 0.95 0.85 0.83 0.91 1.07 1.15 1.24 1.64 2.30 2.42 2.30 2.14 2.01 1.77 1.68 1.80 1.92 1.94 1.89 1.94 1.99 2.00 1.90 1.69 1.57 1.69 1.87 1.66 1.48
0.76 0.82 0.85 0.84 0.84 0.85 0.84 0.86 0.88 0.98 0.99 1.07 1.11 0.98 0.92 0.87 0.83 0.89 0.98 1.08 0.91 0.96 1.51 2.15 2.38 2.25 2.21 2.06 1.83 1.82 1.89 1.94 1.83 1.96 1.95 1.93 1.76 1.63 1.50 1.67 1.83 1.73 1.54
0.75 0.84 0.87 0.90 0.95 0.87 0.85 0.94 1.01 1.10 1.10 1.18 1.20 1.03 0.86 0.95 0.89 0.89 1.02 1.06 1.03 0.96 1.11 1.37 1.67 1.90 2.26 2.41 2.21 2.07 1.97 1.88 1.72 1.82 1.87 1.82 1.66 1.59 1.49 1.64 1.69 1.70 1.68
0.93 1.00 1.05 1.07 1.09 1.10 1.03 0.94 0.99 1.12 1.24 1.29 1.15 1.06 0.95 0.96 0.98 0.95 1.13 1.16 1.14 1.13 1.19 1.11 1.15 1.35 1.79 2.23 2.38 2.32 2.08 1.81 1.64 1.67 1.69 1.57 1.61 1.59 1.45 1.52 1.57 1.61 1.68
1.20 1.31 1.30 1.23 1.30 1.41 1.45 1.25 1.31 1.28 1.25 1.35 1.19 1.12 1.10 1.04 1.04 1.11 1.16 1.29 1.42 1.27 1.27 1.20 1.10 0.95 1.22 1.61 1.99 2.29 2.32 2.14 1.86 1.75 1.77 1.53 1.47 1.53 1.44 1.38 1.45 1.54 1.56
1.53 1.72 1.70 1.66 1.67 1.67 1.64 1.58 1.74 1.69 1.43 1.35 1.55 1.54 1.38 1.21 1.16 1.15 1.21 1.45 1.57 1.49 1.51 1.43 1.31 1.14 1.03 1.04 1.29 1.95 2.33 2.45 2.32 2.05 2.01 1.83 1.50 1.39 1.38 1.35 1.40 1.51 1.56
1.76 1.81 2.02 2.12 2.09 2.22 2.20 2.02 2.17 2.20 1.83 1.58 1.86 2.19 1.91 1.68 1.28 1.19 1.32 1.38 1.48 1.57 1.61 1.48 1.33 1.22 1.18 1.11 0.96 1.34 1.72 2.20 2.44 2.24 2.28 2.26 1.75 1.43 1.30 1.31 1.37 1.45 1.57
1.92 1.95 2.07 2.23 2.24 2.33 2.45 2.53 2.46 2.57 2.39 1.98 1.85 2.16 2.11 1.96 1.75 1.40 1.34 1.43 1.59 1.64 1.67 1.65 1.48 1.24 1.21 1.24 1.06 0.99 1.17 1.44 1.98 2.27 2.38 2.52 2.09 1.62 1.34 1.29 1.32 1.31 1.45
2.11 2.20 2.23 2.35 2.35 2.36 2.48 2.58 2.53 2.69 2.77 2.38 2.08 1.87 1.72 1.73 1.87 1.71 1.49 1.45 1.60 1.63 1.63 1.65 1.68 1.51 1.34 1.35 1.23 1.00 1.00 1.10 1.43 1.99 2.28 2.51 2.37 1.86 1.47 1.38 1.42 1.36 1.42
2.21 2.26 2.34 2.52 2.49 2.47 2.46 2.67 2.71 2.81 2.74 2.66 2.51 2.34 2.17 1.93 1.61 1.74 1.80 1.66 1.55 1.45 1.50 1.63 1.79 1.73 1.56 1.48 1.55 1.21 0.98 0.99 1.10 1.60 2.00 2.46 2.57 2.23 1.94 1.80 1.67 1.57 1.41
2.25 2.14 2.08 2.25 2.29 2.33 2.33 2.52 2.69 2.82 2.80 2.82 2.74 2.45 2.40 2.28 1.95 1.91 1.78 1.68 1.69 1.50 1.43 1.52 1.57 1.57 1.59 1.55 1.46 1.42 1.12 0.97 1.01 1.27 1.64 2.02 2.48 2.45 2.35 2.28 2.06 1.96 1.76
2.08 2.12 2.01 2.01 2.04 2.00 2.05 2.18 2.25 2.32 2.45 2.61 2.53 2.32 2.27 2.12 2.10 2.14 2.04 1.82 1.66 1.43 1.44 1.43 1.41 1.41 1.41 1.46 1.51 1.56 1.18 0.97 0.96 1.07 1.35 1.59 1.96 2.29 2.47 2.41 2.30 2.30 2.22
1.77 1.86 1.86 1.80 1.85 1.91 1.91 2.02 2.05 2.06 2.08 2.15 2.13 2.21 2.27 2.13 2.06 2.01 2.07 2.23 2.01 1.76 1.58 1.43 1.41 1.44 1.39 1.37 1.52 1.57 1.24 1.08 0.96 0.93 1.05 1.28 1.57 1.95 2.21 2.25 2.30 2.43 2.42
1.34 1.41 1.50 1.57 1.66 1.72 1.78 1.93 2.03 2.03 1.99 1.96 2.04 2.10 2.05 2.04 2.02 1.92 1.90 2.07 2.19 2.03 1.86 1.68 1.54 1.47 1.49 1.40 1.49 1.32 1.27 1.20 1.04 0.99 1.01 0.98 1.12 1.45 1.67 1.85 2.02 2.04 2.17
1.03 1.07 1.17 1.35 1.58 1.69 1.73 1.81 1.88 1.98 2.00 1.95 2.04 2.15 2.17 2.16 2.17 2.10 1.98 1.96 1.93 1.97 1.89 1.67 1.49 1.41 1.53 1.39 1.50 1.31 1.25 1.40 1.20 1.12 1.04 0.93 0.91 0.99 1.12 1.32 1.56 1.66 1.69
0.88 0.99 1.03 1.18 1.33 1.51 1.70 1.84 1.87 1.88 1.90 1.89 1.83 1.93 2.06 2.15 2.26 2.28 2.27 2.15 2.01 1.97 1.88 1.74 1.55 1.44 1.58 1.59 1.51 1.44 1.32 1.25 1.25 1.23 1.10 1.05 0.98 0.88 0.93 1.04 1.25 1.39 1.46
0.72 0.79 0.93 1.12 1.24 1.32 1.37 1.46 1.54 1.60 1.66 1.72 1.71 1.67 1.75 1.85 2.00 2.15 2.24 2.18 2.17 2.06 1.96 1.96 1.80 1.56 1.47 1.53 1.58 1.65 1.54 1.31 1.27 1.36 1.30 1.19 1.11 0.97 0.87 0.91 1.01 1.07 1.12
0.71 0.74 0.88 1.02 1.08 1.13 1.17 1.18 1.29 1.39 1.42 1.42 1.49 1.45 1.46 1.54 1.69 1.84 1.94 2.01 2.12 2.14 2.14 2.06 1.99 1.81 1.57 1.58 1.64 1.65 1.67 1.72 1.49 1.40 1.40 1.35 1.26 1.16 1.07 0.98 0.94 0.95 0.93
0.76 0.79 0.93 1.01 1.03 0.99 1.08 1.10 1.15 1.19 1.17 1.13 1.17 1.18 1.21 1.26 1.36 1.51 1.66 1.87 2.05 2.14 2.20 2.18 2.08 1.87 1.70 1.67 1.65 1.66 1.75 1.82 1.80 1.57 1.45 1.38 1.42 1.37 1.21 1.10 1.03 1.00 1.00
0.81 0.83 0.86 0.96 1.00 0.97 1.02 1.08 1.06 1.00 1.00 0.99 0.95 0.85 0.87 0.95 0.99 1.09 1.13 1.42 1.67 1.89 2.01 2.07 2.04 1.90 1.70 1.59 1.46 1.49 1.63 1.81 1.89 1.85 1.75 1.47 1.40 1.36 1.30 1.25 1.15 1.08 1.03
0.68 0.71 0.75 0.90 1.00 0.89 1.00 0.99 0.91 0.84 0.82 0.87 0.83 0.75 0.73 0.78 0.72 0.69 0.72 0.95 1.25 1.44 1.62 1.80 1.86 1.74 1.60 1.52 1.56 1.55 1.55 1.62 1.65 1.59 1.58 1.59 1.51 1.43 1.35 1.29 1.29 1.26 1.18
0.60 0.63 0.66 0.80 0.90 0.97 0.90 0.75 0.80 0.79 0.80 0.84 0.86 0.87 0.78 0.74 0.83 0.74 0.68 0.75 0.83 0.95 1.11 1.38 1.61 1.60 1.69 1.62 1.52 1.46 1.47 1.50 1.51 1.56 1.57 1.57 1.48 1.40 1.30 1.27 1.39 1.31 1.31
0.56 0.59 0.62 0.64 0.72 0.86 0.80 0.65 0.69 0.67 0.79 0.88 0.91 0.98 0.99 0.93 0.92 0.99 0.92 0.93 0.89 0.83 0.90 0.82 1.03 1.40 1.55 1.61 1.57 1.59 1.68 1.61 1.48 1.51 1.53 1.55 1.48 1.38 1.25 1.17 1.27 1.18 1.12
0.60 0.60 0.62 0.63 0.68 0.73 0.70 0.63 0.66 0.71 0.85 0.87 0.83 0.94 0.99 0.94 1.00 1.06 1.16 1.22 1.15 1.00 1.11 1.11 1.02 1.13 1.27 1.33 1.44 1.54 1.61 1.54 1.49 1.41 1.29 1.26 1.23 1.27 1.31 1.23 1.19 1.22 1.13
0.59 0.61 0.58 0.55 0.58 0.59 0.65 0.57 0.68 0.78 0.83 0.85 0.86 0.92 1.06 0.99 0.97 0.95 1.02 1.16 1.15 1.02 0.89 0.92 0.89 0.79 0.73 0.84 1.04 1.21 1.50 1.62 1.57 1.46 1.27 1.20 1.23 1.22 1.25 1.18 1.08 1.10 1.09

GEFSMA_prec_meanprecacc_228.txt.gz
Total_Precipitation_Accumulation
0.92 0.85 0.72 0.73 0.68 0.71 0.78 0.83 0.86 0.92 0.98 0.94 0.91 0.93 0.96 0.92 0.83 0.81 1.01 1.33 1.85 2.25 2.26 2.14 1.94 1.87 1.81 1.63 1.63 1.81 2.01 2.11 2.09 2.04 2.13 2.22 2.15 2.00 1.91 1.83 1.83 1.74 1.62
0.84 0.87 0.83 0.82 0.82 0.80 0.80 0.78 0.78 0.92 0.98 1.03 1.01 0.98 0.96 0.85 0.84 0.91 1.08 1.16 1.26 1.66 2.35 2.55 2.38 2.20 2.07 1.81 1.71 1.83 1.96 1.99 1.93 1.96 2.01 2.03 1.93 1.72 1.62 1.74 1.91 1.70 1.52
0.77 0.83 0.86 0.87 0.87 0.87 0.86 0.88 0.89 0.99 1.01 1.10 1.13 0.99 0.92 0.88 0.84 0.90 0.99 1.09 0.91 0.97 1.53 2.18 2.41 2.29 2.27 2.12 1.89 1.87 1.94 1.98 1.86 1.98 1.98 1.96 1.80 1.67 1.54 1.71 1.87 1.78 1.58
0.76 0.85 0.89 0.91 0.96 0.88 0.86 0.96 1.03 1.12 1.13 1.20 1.23 1.05 0.87 0.96 0.90 0.90 1.03 1.06 1.04 0.96 1.12 1.38 1.69 1.93 2.32 2.50 2.30 2.13 2.02 1.92 1.77 1.87 1.91 1.85 1.70 1.63 1.54 1.70 1.75 1.76 1.73
0.94 1.02 1.07 1.08 1.09 1.11 1.04 0.96 1.01 1.15 1.27 1.31 1.16 1.07 0.96 0.97 0.99 0.96 1.14 1.16 1.15 1.14 1.20 1.12 1.17 1.38 1.86 2.32 2.47 2.40 2.16 1.87 1.69 1.72 1.72 1.60 1.65 1.65 1.52 1.58 1.62 1.66 1.73
1.21 1.32 1.32 1.25 1.31 1.41 1.46 1.26 1.32 1.29 1.27 1.36 1.19 1.13 1.10 1.05 1.05 1.11 1.16 1.29 1.42 1.27 1.27 1.21 1.12 0.98 1.25 1.66 2.03 2.36 2.40 2.21 1.92 1.78 1.81 1.56 1.50 1.59 1.51 1.45 1.51 1.59 1.62
1.54 1.73 1.71 1.67 1.68 1.68 1.65 1.59 1.75 1.70 1.44 1.35 1.56 1.55 1.39 1.21 1.16 1.16 1.22 1.46 1.57 1.49 1.51 1.44 1.32 1.16 1.05 1.07 1.34 2.00 2.41 2.54 2.38 2.10 2.04 1.85 1.53 1.43 1.42 1.42 1.47 1.57 1.61
1.77 1.82 2.03 2.13 2.10 2.24 2.22 2.03 2.18 2.21 1.83 1.59 1.87 2.21 1.93 1.70 1.29 1.20 1.33 1.39 1.49 1.57 1.62 1.49 1.34 1.24 1.20 1.14 1.00 1.41 1.80 2.28 2.51 2.30 2.32 2.29 1.77 1.46 1.34 1.34 1.41 1.48 1.60
1.93 1.96 2.09 2.25 2.25 2.34 2.47 2.54 2.47 2.58 2.39 1.99 1.86 2.18 2.12 1.97 1.76 1.41 1.35 1.44 1.59 1.65 1.68 1.66 1.49 1.25 1.22 1.27 1.09 1.03 1.23 1.51 2.05 2.32 2.42 2.56 2.12 1.64 1.36 1.32 1.35 1.34 1.49
2.12 2.22 2.26 2.37 2.37 2.37 2.49 2.59 2.54 2.69 2.78 2.40 2.08 1.88 1.73 1.74 1.89 1.73 1.50 1.46 1.61 1.63 1.63 1.65 1.68 1.51 1.34 1.37 1.25 1.02 1.03 1.13 1.48 2.04 2.32 2.56 2.41 1.89 1.49 1.41 1.45 1.40 1.47
2.22 2.27 2.36 2.54 2.51 2.49 2.48 2.67 2.71 2.81 2.74 2.67 2.52 2.35 2.19 1.95 1.64 1.77 1.82 1.68 1.57 1.46 1.51 1.63 1.79 1.74 1.56 1.49 1.56 1.23 1.00 1.00 1.13 1.64 2.04 2.51 2.62 2.26 1.96 1.83 1.69 1.59 1.44
2.26 2.15 2.09 2.26 2.33 2.36 2.35 2.54 2.70 2.83 2.81 2.83 2.76 2.47 2.42 2.30 1.99 1.95 1.82 1.70 1.72 1.53 1.44 1.52 1.58 1.58 1.60 1.56 1.47 1.43 1.13 0.98 1.03 1.29 1.66 2.05 2.51 2.47 2.38 2.32 2.09 1.98 1.79
2.09 2.13 2.02 2.03 2.07 2.03 2.06 2.19 2.26 2.33 2.46 2.62 2.54 2.33 2.29 2.14 2.13 2.19 2.09 1.86 1.69 1.44 1.45 1.44 1.42 1.42 1.42 1.47 1.52 1.56 1.19 0.98 0.98 1.09 1.37 1.61 1.97 2.30 2.49 2.43 2.32 2.33 2.26
1.79 1.87 1.87 1.81 1.87 1.93 1.91 2.02 2.06 2.07 2.09 2.16 2.14 2.24 2.30 2.16 2.10 2.07 2.12 2.28 2.04 1.78 1.59 1.44 1.42 1.45 1.41 1.39 1.53 1.57 1.24 1.09 0.97 0.94 1.07 1.30 1.58 1.96 2.22 2.26 2.31 2.44 2.45
1.36 1.42 1.51 1.58 1.67 1.74 1.79 1.94 2.04 2.05 2.00 1.97 2.06 2.14 2.09 2.07 2.07 1.98 1.96 2.12 2.23 2.06 1.89 1.70 1.55 1.48 1.50 1.41 1.49 1.33 1.28 1.21 1.06 1.01 1.03 0.99 1.13 1.45 1.68 1.86 2.03 2.05 2.19
1.05 1.09 1.18 1.36 1.59 1.71 1.74 1.82 1.90 2.00 2.01 1.97 2.05 2.17 2.20 2.18 2.20 2.14 2.02 2.00 1.96 2.00 1.91 1.70 1.51 1.43 1.54 1.40 1.50 1.31 1.25 1.40 1.21 1.13 1.05 0.93 0.91 1.00 1.13 1.32 1.57 1.68 1.72
0.92 1.00 1.04 1.19 1.34 1.52 1.71 1.86 1.89 1.90 1.92 1.91 1.84 1.95 2.07 2.16 2.28 2.30 2.30 2.19 2.05 1.98 1.90 1.76 1.57 1.46 1.59 1.60 1.51 1.45 1.32 1.25 1.25 1.23 1.11 1.05 0.99 0.88 0.94 1.04 1.26 1.41 1.48
0.74 0.81 0.94 1.14 1.25 1.34 1.39 1.47 1.55 1.62 1.67 1.73 1.72 1.69 1.76 1.86 2.02 2.17 2.26 2.21 2.20 2.08 1.99 1.99 1.83 1.59 1.49 1.56 1.59 1.66 1.56 1.32 1.28 1.37 1.30 1.20 1.12 0.98 0.89 0.93 1.02 1.08 1.13
0.72 0.76 0.89 1.04 1.10 1.15 1.18 1.20 1.31 1.41 1.43 1.44 1.50 1.47 1.47 1.55 1.70 1.85 1.95 2.02 2.14 2.16 2.17 2.10 2.04 1.87 1.63 1.62 1.67 1.68 1.69 1.73 1.50 1.41 1.41 1.35 1.27 1.16 1.08 0.98 0.94 0.96 0.93
0.78 0.80 0.95 1.03 1.05 1.02 1.11 1.14 1.20 1.23 1.19 1.15 1.19 1.19 1.22 1.27 1.37 1.52 1.67 1.88 2.06 2.15 2.22 2.20 2.11 1.90 1.74 1.71 1.68 1.69 1.77 1.84 1.81 1.57 1.46 1.39 1.42 1.37 1.21 1.11 1.03 1.00 1.00
0.82 0.84 0.88 0.99 1.02 1.00 1.05 1.12 1.10 1.03 1.03 1.02 0.96 0.86 0.88 0.96 1.00 1.10 1.14 1.43 1.68 1.90 2.02 2.08 2.06 1.92 1.72 1.63 1.50 1.53 1.66 1.83 1.90 1.85 1.76 1.48 1.41 1.36 1.31 1.25 1.16 1.08 1.04
0.70 0.72 0.77 0.93 1.03 0.91 1.02 1.01 0.93 0.86 0.83 0.88 0.85 0.77 0.74 0.79 0.73 0.70 0.74 0.96 1.25 1.44 1.62 1.80 1.87 1.75 1.61 1.55 1.60 1.59 1.59 1.64 1.67 1.60 1.59 1.60 1.51 1.43 1.36 1.29 1.29 1.26 1.18
0.62 0.65 0.67 0.82 0.91 0.97 0.91 0.76 0.81 0.80 0.81 0.85 0.87 0.89 0.80 0.75 0.85 0.75 0.69 0.76 0.84 0.95 1.11 1.38 1.61 1.60 1.70 1.63 1.54 1.49 1.51 1.55 1.54 1.59 1.59 1.59 1.49 1.40 1.30 1.27 1.40 1.31 1.31
0.59 0.61 0.63 0.65 0.73 0.87 0.81 0.66 0.70 0.69 0.80 0.89 0.92 1.00 1.00 0.94 0.92 0.99 0.92 0.93 0.90 0.83 0.91 0.83 1.03 1.41 1.56 1.62 1.58 1.62 1.72 1.66 1.52 1.54 1.55 1.57 1.49 1.38 1.25 1.17 1.27 1.18 1.12
0.62 0.61 0.63 0.64 0.69 0.74 0.72 0.65 0.67 0.72 0.85 0.88 0.84 0.96 1.00 0.95 1.01 1.06 1.17 1.23 1.15 1.00 1.11 1.11 1.02 1.13 1.28 1.34 1.45 1.56 1.63 1.57 1.52 1.43 1.31 1.28 1.24 1.28 1.32 1.23 1.19 1.23 1.14
0.61 0.62 0.59 0.56 0.59 0.60 0.67 0.59 0.69 0.79 0.84 0.85 0.86 0.92 1.07 1.00 0.98 0.95 1.03 1.17 1.16 1.02 0.90 0.93 0.90 0.80 0.74 0.85 1.05 1.23 1.52 1.64 1.59 1.49 1.29 1.22 1.25 1.23 1.26 1.18 1.08 1.10 1.10

GEFSMA_prec_meanprecacc_234.txt.gz
Total_Precipitation_Accumulation
0.94 0.89 0.76 0.77 0.72 0.76 0.82 0.87 0.90 0.94 1.00 0.96 0.93 0.96 0.99 0.94 0.85 0.83 1.02 1.35 1.87 2.28 2.35 2.27 2.01 1.91 1.85 1.65 1.66 1.84 2.04 2.16 2.12 2.06 2.16 2.26 2.19 2.03 1.94 1.88 1.88 1.79 1.68
0.85 0.89 0.85 0.85 0.86 0.85 0.83 0.81 0.80 0.93 1.00 1.05 1.03 0.99 0.97 0.87 0.85 0.93 1.09 1.18 1.27 1.68 2.41 2.64 2.46 2.26 2.13 1.86 1.74 1.85 1.98 2.02 1.97 1.99 2.04 2.06 1.97 1.75 1.66 1.78 1.96 1.75 1.58
0.78 0.84 0.88 0.89 0.90 0.90 0.88 0.89 0.90 1.00 1.03 1.13 1.16 1.01 0.94 0.89 0.84 0.90 0.99 1.10 0.92 0.98 1.56 2.22 2.45 2.34 2.34 2.17 1.93 1.91 1.98 2.02 1.90 2.02 2.01 2.00 1.84 1.73 1.62 1.78 1.94 1.83 1.64
0.77 0.86 0.90 0.93 0.98 0.90 0.88 0.98 1.05 1.15 1.18 1.25 1.26 1.07 0.88 0.96 0.90 0.90 1.03 1.07 1.06 0.98 1.14 1.40 1.70 1.96 2.37 2.55 2.36 2.20 2.06 1.96 1.80 1.91 1.95 1.89 1.76 1.70 1.60 1.77 1.82 1.80 1.77
0.96 1.04 1.10 1.11 1.11 1.12 1.06 0.98 1.03 1.19 1.33 1.34 1.17 1.08 0.97 0.98 1.00 0.96 1.14 1.17 1.16 1.16 1.22 1.13 1.18 1.40 1.89 2.38 2.53 2.47 2.22 1.94 1.75 1.77 1.77 1.64 1.69 1.72 1.58 1.62 1.65 1.70 1.76
1.23 1.35 1.35 1.27 1.33 1.44 1.49 1.30 1.35 1.32 1.29 1.37 1.20 1.14 1.11 1.05 1.05 1.11 1.17 1.30 1.43 1.29 1.29 1.22 1.14 1.00 1.27 1.69 2.08 2.43 2.48 2.29 2.00 1.85 1.85 1.60 1.55 1.64 1.55 1.48 1.53 1.62 1.65
1.57 1.76 1.75 1.71 1.70 1.71 1.68 1.62 1.79 1.73 1.46 1.37 1.58 1.57 1.41 1.22 1.17 1.16 1.23 1.47 1.58 1.50 1.52 1.45 1.34 1.18 1.07 1.08 1.36 2.03 2.45 2.59 2.45 2.16 2.10 1.91 1.57 1.46 1.45 1.44 1.49 1.58 1.64
1.78 1.84 2.07 2.16 2.13 2.27 2.25 2.06 2.21 2.23 1.85 1.61 1.91 2.25 1.96 1.72 1.30 1.21 1.34 1.41 1.50 1.58 1.64 1.50 1.36 1.26 1.23 1.17 1.04 1.44 1.84 2.33 2.59 2.36 2.37 2.33 1.81 1.48 1.35 1.36 1.43 1.50 1.62
1.94 1.99 2.12 2.28 2.29 2.38 2.51 2.57 2.49 2.60 2.42 2.01 1.89 2.22 2.16 2.00 1.79 1.43 1.36 1.44 1.60 1.66 1.70 1.68 1.51 1.26 1.24 1.30 1.12 1.06 1.27 1.56 2.12 2.40 2.49 2.61 2.17 1.67 1.38 1.34 1.38 1.36 1.51
2.14 2.24 2.28 2.38 2.38 2.40 2.52 2.61 2.55 2.71 2.81 2.44 2.12 1.91 1.75 1.76 1.92 1.75 1.51 1.47 1.62 1.64 1.64 1.66 1.69 1.53 1.36 1.41 1.29 1.06 1.05 1.15 1.52 2.10 2.38 2.63 2.47 1.93 1.51 1.43 1.48 1.44 1.49
2.23 2.29 2.37 2.54 2.52 2.50 2.48 2.69 2.72 2.82 2.76 2.70 2.56 2.37 2.20 1.97 1.67 1.81 1.85 1.69 1.57 1.47 1.51 1.64 1.80 1.75 1.58 1.52 1.60 1.25 1.01 1.01 1.14 1.67 2.08 2.56 2.66 2.30 2.00 1.86 1.72 1.62 1.47
2.28 2.17 2.09 2.28 2.34 2.37 2.37 2.56 2.72 2.85 2.82 2.84 2.78 2.49 2.45 2.34 2.02 1.99 1.85 1.72 1.73 1.54 1.46 1.53 1.59 1.60 1.62 1.59 1.49 1.44 1.14 0.99 1.03 1.31 1.71 2.09 2.56 2.51 2.43 2.36 2.13 2.02 1.82
2.13 2.14 2.03 2.04 2.09 2.05 2.08 2.21 2.28 2.35 2.49 2.66 2.57 2.36 2.32 2.16 2.15 2.23 2.12 1.88 1.71 1.47 1.47 1.46 1.43 1.44 1.44 1.49 1.54 1.59 1.21 1.00 1.00 1.14 1.44 1.68 2.02 2.34 2.52 2.46 2.35 2.36 2.30
1.82 1.88 1.89 1.83 1.89 1.95 1.93 2.04 2.08 2.10 2.13 2.20 2.17 2.26 2.32 2.18 2.13 2.10 2.17 2.32 2.07 1.81 1.63 1.47 1.44 1.47 1.43 1.41 1.54 1.59 1.26 1.11 1.00 0.99 1.13 1.37 1.64 1.99 2.24 2.28 2.32 2.46 2.47
1.39 1.44 1.52 1.60 1.69 1.76 1.81 1.97 2.08 2.08 2.03 2.00 2.09 2.17 2.12 2.09 2.09 2.00 2.01 2.18 2.28 2.11 1.94 1.73 1.57 1.50 1.51 1.42 1.50 1.34 1.29 1.22 1.07 1.02 1.04 1.01 1.16 1.48 1.70 1.87 2.03 2.06 2.22
1.07 1.11 1.21 1.38 1.61 1.73 1.76 1.85 1.94 2.02 2.03 1.99 2.08 2.19 2.23 2.21 2.24 2.18 2.07 2.06 2.00 2.05 1.96 1.74 1.54 1.44 1.55 1.40 1.51 1.32 1.26 1.41 1.22 1.14 1.06 0.95 0.92 1.01 1.14 1.33 1.58 1.68 1.73
0.94 1.03 1.07 1.22 1.37 1.56 1.74 1.88 1.92 1.92 1.95 1.94 1.86 1.97 2.10 2.18 2.29 2.33 2.35 2.25 2.10 2.03 1.95 1.80 1.60 1.47 1.60 1.61 1.52 1.46 1.33 1.26 1.26 1.24 1.12 1.06 1.00 0.89 0.94 1.04 1.26 1.42 1.49
0.78 0.84 0.97 1.17 1.28 1.36 1.41 1.50 1.59 1.65 1.70 1.76 1.75 1.72 1.79 1.88 2.04 2.19 2.29 2.26 2.25 2.13 2.03 2.03 1.86 1.61 1.51 1.57 1.61 1.68 1.57 1.34 1.30 1.39 1.31 1.20 1.13 0.98 0.89 0.93 1.02 1.08 1.13
0.78 0.80 0.92 1.07 1.12 1.18 1.21 1.24 1.36 1.46 1.47 1.47 1.53 1.49 1.49 1.57 1.72 1.87 1.96 2.05 2.18 2.21 2.22 2.16 2.09 1.92 1.67 1.65 1.70 1.70 1.71 1.75 1.52 1.43 1.42 1.36 1.28 1.17 1.08 0.98 0.95 0.96 0.94
0.85 0.87 0.99 1.06 1.08 1.06 1.15 1.19 1.25 1.27 1.21 1.17 1.21 1.20 1.23 1.28 1.38 1.53 1.69 1.90 2.07 2.18 2.24 2.23 2.15 1.95 1.78 1.74 1.70 1.71 1.79 1.86 1.83 1.59 1.47 1.40 1.44 1.38 1.22 1.11 1.03 1.01 1.00
0.88 0.90 0.94 1.04 1.07 1.05 1.10 1.17 1.14 1.07 1.05 1.03 0.98 0.88 0.90 0.98 1.01 1.11 1.15 1.44 1.70 1.91 2.03 2.09 2.07 1.93 1.74 1.64 1.51 1.54 1.67 1.85 1.92 1.87 1.78 1.49 1.42 1.37 1.31 1.25 1.16 1.08 1.04
0.75 0.77 0.82 0.98 1.07 0.97 1.08 1.06 0.97 0.89 0.85 0.90 0.86 0.78 0.77 0.82 0.75 0.72 0.75 0.97 1.26 1.45 1.64 1.82 1.88 1.77 1.63 1.56 1.61 1.60 1.60 1.66 1.69 1.62 1.61 1.62 1.53 1.44 1.36 1.30 1.30 1.26 1.19
0.68 0.70 0.72 0.86 0.96 1.02 0.95 0.79 0.84 0.83 0.83 0.86 0.89 0.90 0.81 0.77 0.86 0.76 0.70 0.77 0.85 0.96 1.12 1.39 1.62 1.61 1.71 1.64 1.56 1.50 1.52 1.56 1.56 1.61 1.61 1.60 1.51 1.41 1.31 1.28 1.41 1.32 1.31
0.63 0.64 0.66 0.68 0.76 0.90 0.85 0.68 0.72 0.71 0.82 0.91 0.94 1.01 1.01 0.95 0.93 1.00 0.93 0.94 0.90 0.84 0.92 0.84 1.04 1.42 1.57 1.63 1.59 1.63 1.73 1.67 1.54 1.57 1.57 1.59 1.51 1.40 1.26 1.18 1.27 1.19 1.12
0.66 0.64 0.65 0.66 0.71 0.76 0.74 0.67 0.69 0.74 0.86 0.89 0.85 0.97 1.01 0.97 1.02 1.08 1.17 1.23 1.15 1.00 1.11 1.12 1.02 1.14 1.29 1.34 1.46 1.56 1.63 1.57 1.53 1.45 1.33 1.30 1.26 1.30 1.33 1.24 1.19 1.23 1.14
0.64 0.65 0.61 0.58 0.61 0.62 0.68 0.60 0.71 0.81 0.86 0.86 0.87 0.93 1.09 1.01 0.98 0.96 1.03 1.17 1.16 1.02 0.90 0.93 0.90 0.80 0.75 0.86 1.06 1.23 1.52 1.65 1.60 1.50 1.31 1.23 1.26 1.25 1.28 1.20 1.09 1.11 1.10